[[{"header":{"parameterUnit":"m.s-1","parameterCategory":1,"la1":30.6,"la2":29.2853,"lo1":-89.7004,"lo2":-87.6739,"dy":0.0162,"dx":0.0183,"nx":112,"ny":82,"refTime":"2023-09-21T00:00:00:Z","depth":0,"parameterNumber":2,"parameterNumberName":"U-component_of_WINDS"},"data":[0.0,0.0,0.0,0.0,0.0,0.0,0.0,0.0,0.0,0.0,0.0,0.0,0.0,0.0,0.0,0.0,0.0,0.0,0.0,0.0,0.0,0.0,0.0,0.0,0.0,0.0,0.0,0.0,0.0,0.0,0.0,0.0,0.0,0.0,0.0,0.0,0.0,0.0,0.0,0.0,0.0,0.0,0.0,0.0,0.0,0.0,0.0,0.0,0.0,0.0,0.0,0.0,0.0,0.0,0.0,0.0,0.0,0.0,0.0,0.0,0.0,0.0,0.0,0.0,0.0,0.0,0.0,0.0,0.0,0.0,0.0,0.0,0.0,0.0,0.0,0.0,0.0,0.0,0.0,0.0,0.0,0.0,0.0,0.0,0.0,0.0,0.0,0.0,0.0,0.0,1.6497,1.8618,2.2408,2.4616,2.4167,2.4302,2.2895,1.9346,0.0,0.0,0.0,0.0,0.0,0.0,0.0,0.0,0.0,0.0,0.0,0.0,0.0,0.0,0.0,0.0,0.0,0.0,0.0,0.0,0.0,0.0,0.0,0.0,0.0,0.0,0.0,0.0,0.0,0.0,0.0,0.0,0.0,0.0,0.0,0.0,0.0,0.0,0.0,0.0,0.0,0.0,0.0,0.0,0.0,0.0,0.0,0.0,0.0,0.0,0.0,0.0,0.0,0.0,0.0,0.0,0.0,0.0,0.0,0.0,0.0,0.0,0.0,0.0,0.0,0.0,0.0,0.0,0.0,0.0,0.0,0.0,0.0,0.0,0.0,0.0,0.0,0.0,0.0,0.0,0.0,0.0,0.0,0.0,0.0,0.0,0.0,0.0,0.0,0.0,0.0,0.0,0.0,0.0,0.0,0.0,0.0,0.0,0.0,0.0,0.0,0.0,0.0,0.0,1.7237,2.1241,2.3549,2.4779,2.4691,2.3449,2.1818,1.9811,0.0,0.0,0.0,0.0,0.0,0.0,0.0,0.0,0.0,0.0,0.0,0.0,0.0,0.0,0.0,0.0,0.0,0.0,0.0,0.0,0.0,0.0,0.0,0.0,0.0,0.0,0.0,0.0,0.0,0.0,0.0,0.0,0.0,0.0,0.0,0.0,0.0,0.0,0.0,0.0,0.0,0.0,0.0,0.0,0.0,0.0,0.0,0.0,0.0,0.0,0.0,0.0,0.0,0.0,0.0,0.0,0.0,0.0,0.0,0.0,0.0,0.0,0.0,0.0,0.0,0.0,0.0,0.0,0.0,0.0,0.0,0.0,0.0,0.0,0.0,0.0,0.0,0.0,0.0,0.0,0.0,0.0,0.0,0.0,0.0,0.0,0.0,0.0,0.0,0.0,0.0,0.0,0.0,0.0,0.0,0.0,0.0,0.0,0.0,0.0,0.0,0.0,0.0,1.701,1.8719,2.1956,2.3537,2.4365,2.4365,2.3098,2.158,1.9911,1.9258,0.0,0.0,0.0,0.0,0.0,0.0,0.0,0.0,0.0,0.0,0.0,0.0,0.0,0.0,0.0,0.0,0.0,0.0,0.0,0.0,0.0,0.0,0.0,0.0,0.0,0.0,0.0,0.0,0.0,0.0,0.0,0.0,0.0,0.0,0.0,0.0,0.0,0.0,0.0,0.0,0.0,0.0,0.0,0.0,0.0,0.0,0.0,0.0,0.0,0.0,0.0,0.0,0.0,0.0,0.0,0.0,0.0,0.0,0.0,0.0,0.0,0.0,0.0,0.0,0.0,0.0,0.0,0.0,0.0,0.0,0.0,0.0,0.0,0.0,0.0,0.0,0.0,0.0,0.0,0.0,0.0,0.0,0.0,0.0,0.0,0.0,0.0,0.0,0.0,0.0,0.0,0.0,0.0,0.0,0.0,0.0,0.0,0.0,0.0,0.0,0.0,0.0,1.8694,1.9999,2.2081,2.3326,2.4004,2.4004,2.2849,2.1455,1.9899,1.8681,0.0,0.0,0.0,0.0,0.0,0.0,0.0,0.0,0.0,0.0,0.0,0.0,0.0,0.0,0.0,0.0,0.0,0.0,0.0,0.0,0.0,0.0,0.0,0.0,0.0,0.0,0.0,0.0,0.0,0.0,0.0,0.0,0.0,0.0,0.0,0.0,0.0,0.0,0.0,0.0,0.0,0.0,0.0,0.0,0.0,0.0,0.0,0.0,0.0,0.0,0.0,0.0,0.0,0.0,0.0,0.0,0.0,0.0,0.0,0.0,0.0,0.0,0.0,0.0,0.0,0.0,0.0,0.0,0.0,0.0,0.0,0.0,0.0,0.0,0.0,0.0,0.0,0.0,0.0,0.0,0.0,0.0,0.0,0.0,0.0,0.0,0.0,0.0,0.0,0.0,0.0,0.0,0.0,0.0,0.0,0.0,0.0,0.0,0.0,0.0,0.0,0.0,1.8806,2.0401,2.2119,2.3326,2.4004,2.4004,2.2498,2.1041,1.9874,1.8329,0.0,0.0,0.0,0.0,0.0,0.0,0.0,0.0,0.0,0.0,0.0,0.0,0.0,0.0,0.0,0.0,0.0,0.0,0.0,0.0,0.0,0.0,0.0,0.0,0.0,0.0,0.0,0.0,0.0,0.0,0.0,0.0,0.0,0.0,0.0,0.0,0.0,0.0,0.0,0.0,0.0,0.0,0.0,0.0,0.0,0.0,0.0,0.0,0.0,0.0,0.0,0.0,0.0,0.0,0.0,0.0,0.0,0.0,0.0,0.0,0.0,0.0,0.0,0.0,0.0,0.0,0.0,0.0,0.0,0.0,0.0,0.0,0.0,0.0,0.0,0.0,0.0,0.0,0.0,0.0,0.0,0.0,0.0,0.0,0.0,0.0,0.0,0.0,0.0,0.0,0.0,0.0,0.0,0.0,0.0,0.0,0.0,0.0,0.0,0.0,0.0,0.0,1.8719,1.9936,2.1619,2.2485,2.2949,2.2949,2.1746,2.0515,1.9371,0.0,0.0,0.0,0.0,0.0,0.0,0.0,0.0,0.0,0.0,0.0,0.0,0.0,0.0,0.0,0.0,0.0,0.0,0.0,0.0,0.0,0.0,0.0,0.0,0.0,0.0,0.0,0.0,0.0,0.0,0.0,0.0,0.0,0.0,0.0,0.0,0.0,0.0,0.0,0.0,0.0,0.0,0.0,0.0,0.0,0.0,0.0,0.0,0.0,0.0,0.0,0.0,0.0,0.0,0.0,0.0,0.0,0.0,0.0,0.0,0.0,0.0,0.0,0.0,0.0,0.0,0.0,0.0,0.0,0.0,0.0,0.0,0.0,0.0,0.0,0.0,0.0,0.0,0.0,0.0,0.0,0.0,0.0,0.0,0.0,0.0,0.0,0.0,0.0,0.0,0.0,0.0,0.0,0.0,0.0,0.0,0.0,0.0,0.0,0.0,0.0,0.0,1.8042,1.8669,1.9585,2.1093,2.1733,2.2046,2.2046,2.0892,1.9823,1.9045,0.0,0.0,0.0,0.0,0.0,0.0,0.0,0.0,0.0,0.0,0.0,0.0,0.0,0.0,0.0,0.0,0.0,0.0,0.0,0.0,0.0,0.0,0.0,0.0,0.0,0.0,0.0,0.0,0.0,0.0,0.0,0.0,0.0,0.0,0.0,0.0,0.0,0.0,0.0,0.0,0.0,0.0,0.0,0.0,0.0,0.0,0.0,0.0,0.0,0.0,0.0,0.0,0.0,0.0,0.0,0.0,0.0,0.0,0.0,0.0,0.0,0.0,0.0,0.0,0.0,0.0,0.0,0.0,0.0,0.0,0.0,0.0,0.0,0.0,0.0,0.0,0.0,0.0,0.0,0.0,0.0,0.0,0.0,0.0,0.0,0.0,0.0,0.0,0.0,0.0,0.0,0.0,0.0,0.0,0.0,0.0,0.0,0.0,0.0,0.0,0.0,0.0,1.8042,1.8657,1.9434,2.0578,2.1168,2.1495,2.1482,1.9961,1.8995,0.0,0.0,0.0,0.0,0.0,0.0,0.0,0.0,0.0,0.0,0.0,0.0,0.0,0.0,0.0,0.0,0.0,0.0,0.0,0.0,0.0,0.0,0.0,0.0,0.0,0.0,0.0,0.0,0.0,0.0,0.0,0.0,0.0,0.0,0.0,0.0,0.0,0.0,0.0,0.0,0.0,0.0,0.0,0.0,0.0,0.0,0.0,0.0,0.0,0.0,0.0,0.0,0.0,0.0,0.0,0.0,0.0,0.0,0.0,0.0,0.0,0.0,0.0,0.0,0.0,0.0,0.0,0.0,0.0,0.0,0.0,0.0,0.0,0.0,0.0,0.0,0.0,0.0,0.0,0.0,0.0,0.0,0.0,0.0,0.0,0.0,0.0,0.0,0.0,0.0,0.0,0.0,0.0,0.0,0.0,0.0,0.0,0.0,0.0,0.0,0.0,0.0,0.0,1.8042,1.833,1.902,2.0541,2.0842,2.0753,2.0338,1.9497,1.8669,1.7915,0.0,0.0,0.0,0.0,0.0,0.0,0.0,0.0,0.0,0.0,0.0,0.0,0.0,0.0,0.0,0.0,0.0,0.0,0.0,0.0,0.0,0.0,0.0,0.0,0.0,0.0,0.0,0.0,0.0,0.0,0.0,0.0,0.0,0.0,0.0,0.0,0.0,0.0,0.0,0.0,0.0,0.0,0.0,0.0,0.0,0.0,0.0,0.0,0.0,0.0,0.0,0.0,0.0,0.0,0.0,0.0,0.0,0.0,0.0,0.0,0.0,0.0,0.0,0.0,0.0,0.0,0.0,0.0,0.0,0.0,0.0,0.0,0.0,0.0,0.0,0.0,0.0,0.0,0.0,0.0,0.0,0.0,0.0,0.0,0.0,0.0,0.0,0.0,0.0,0.0,0.0,0.0,0.0,0.0,0.0,0.0,0.0,0.0,0.0,0.0,0.0,0.0,1.8042,1.8204,1.8744,2.0201,2.0352,2.0188,1.9823,1.9108,1.8405,1.7763,0.0,0.0,0.0,0.0,0.0,0.0,0.0,0.0,0.0,0.0,0.0,0.0,0.0,0.0,0.0,0.0,0.0,0.0,0.0,0.0,0.0,0.0,0.0,0.0,0.0,0.0,0.0,0.0,0.0,0.0,0.0,0.0,0.0,0.0,0.0,0.0,0.0,0.0,0.0,0.0,0.0,0.0,0.0,0.0,0.0,0.0,0.0,0.0,0.0,0.0,0.0,0.0,0.0,0.0,0.0,0.0,0.0,0.0,0.0,0.0,0.0,0.0,0.0,0.0,0.0,0.0,0.0,0.0,0.0,0.0,0.0,0.0,0.0,0.0,0.0,0.0,0.0,0.0,0.0,0.0,0.0,0.0,0.0,0.0,0.0,0.0,0.0,0.0,0.0,0.0,0.0,0.0,0.0,0.0,0.0,0.0,0.0,0.0,0.0,0.0,0.0,0.0,1.8117,1.8267,1.8694,1.9773,1.9874,1.9836,1.9723,1.8794,1.8179,1.8129,0.0,0.0,0.0,0.0,0.0,0.0,0.0,0.0,0.0,0.0,0.0,0.0,0.0,0.0,0.0,0.0,0.0,0.0,0.0,0.0,0.0,0.0,0.0,0.0,0.0,0.0,0.0,0.0,0.0,0.0,0.0,0.0,0.0,0.0,0.0,0.0,0.0,0.0,0.0,0.0,0.0,0.0,0.0,0.0,0.0,0.0,0.0,0.0,0.0,0.0,0.0,0.0,0.0,0.0,0.0,0.0,0.0,0.0,0.0,0.0,1.8483,1.8545,0.0,0.0,0.0,0.0,0.0,0.0,0.0,0.0,0.0,0.0,0.0,0.0,0.0,0.0,0.0,0.0,0.0,0.0,0.0,0.0,0.0,0.0,0.0,0.0,0.0,0.0,0.0,0.0,0.0,0.0,0.0,0.0,0.0,0.0,0.0,0.0,0.0,0.0,0.0,0.0,1.8632,1.8832,1.9258,2.039,2.0515,2.0138,1.9246,1.8568,1.8016,1.76,1.6911,0.0,0.0,0.0,0.0,0.0,0.0,0.0,0.0,0.0,0.0,0.0,0.0,0.0,0.0,0.0,0.0,0.0,0.0,0.0,0.0,0.0,0.0,0.0,0.0,0.0,0.0,0.0,0.0,0.0,0.0,0.0,0.0,0.0,0.0,0.0,0.0,0.0,0.0,0.0,0.0,0.0,0.0,0.0,0.0,0.0,0.0,0.0,0.0,0.0,0.0,0.0,0.0,0.0,0.0,0.0,0.0,0.0,0.0,0.0,2.0073,1.9276,0.0,0.0,0.0,0.0,0.0,0.0,0.0,0.0,0.0,0.0,0.0,0.0,0.0,0.0,0.0,0.0,0.0,0.0,0.0,0.0,0.0,0.0,0.0,0.0,0.0,0.0,0.0,0.0,0.0,0.0,0.0,0.0,0.0,0.0,0.0,0.0,0.0,0.0,0.0,0.0,1.882,1.9221,1.9823,2.0954,2.0842,2.0465,1.9861,1.9058,1.8367,1.7826,1.725,0.0,0.0,0.0,0.0,0.0,0.0,0.0,0.0,0.0,0.0,0.0,0.0,0.0,0.0,0.0,0.0,0.0,0.0,0.0,0.0,0.0,0.0,0.0,0.0,0.0,0.0,0.0,0.0,0.0,0.0,0.0,0.0,0.0,0.0,0.0,0.0,0.0,0.0,0.0,0.0,0.0,0.0,0.0,0.0,0.0,0.0,0.0,0.0,0.0,0.0,0.0,0.0,0.0,2.2904,2.3581,2.3941,2.4468,2.4539,2.4092,2.226,2.0698,1.945,1.9703,0.0,0.0,0.0,0.0,0.0,0.0,0.0,0.0,0.0,0.0,0.0,0.0,0.0,0.0,0.0,0.0,0.0,0.0,0.0,0.0,0.0,0.0,1.902,1.9999,2.0238,1.9899,1.8668,0.0,0.0,0.0,0.0,0.0,0.0,0.0,0.0,0.0,0.0,0.0,1.8983,1.9623,2.0388,2.152,2.1169,2.0792,2.0717,1.966,1.8807,1.8368,1.7751,1.7437,0.0,0.0,0.0,0.0,0.0,0.0,0.0,0.0,0.0,0.0,0.0,0.0,0.0,0.0,0.0,0.0,0.0,0.0,0.0,0.0,0.0,0.0,0.0,0.0,0.0,0.0,0.0,0.0,0.0,0.0,0.0,0.0,1.9539,1.9052,0.0,0.0,0.0,0.0,0.0,0.0,0.0,0.0,0.0,0.0,0.0,0.0,0.0,2.1762,2.3227,2.3375,2.3485,2.3582,2.4241,2.4367,2.401,2.4549,2.4998,2.5349,2.5071,0.0,2.1102,2.0181,0.0,0.0,0.0,0.0,0.0,0.0,0.0,0.0,0.0,0.0,0.0,0.0,0.0,0.0,0.0,0.0,0.0,0.0,0.0,0.0,0.0,0.0,2.1218,2.1832,2.1968,2.2031,2.2293,2.0902,1.9597,1.9597,1.9271,1.8983,0.0,0.0,0.0,0.0,0.0,0.0,1.9497,2.0213,2.1006,2.2083,2.1707,2.1219,2.0729,1.966,1.897,1.8895,1.7953,1.7613,1.8078,1.765,0.0,0.0,0.0,0.0,0.0,0.0,0.0,0.0,0.0,0.0,0.0,0.0,0.0,0.0,0.0,0.0,0.0,0.0,0.0,0.0,0.0,0.0,0.0,0.0,0.0,0.0,0.0,0.0,0.0,2.0342,2.0462,1.9467,2.0212,2.0318,0.0,0.0,0.0,0.0,0.0,0.0,0.0,0.0,0.0,2.1975,2.2262,2.291,2.3953,2.4274,2.4751,2.5383,2.6544,2.7154,2.7278,2.7831,2.8183,2.8392,2.8091,2.6918,2.5038,2.3,2.133,1.9974,0.0,0.0,0.0,0.0,1.971,2.0839,2.0664,2.0977,2.143,2.1267,0.0,0.0,0.0,0.0,0.0,0.0,0.0,2.0515,2.1416,2.2284,2.3201,2.4384,2.466,2.4811,2.5347,2.4205,2.2686,2.1455,2.1252,2.1028,2.0112,1.9271,0.0,0.0,0.0,1.8983,1.961,2.0808,2.1895,2.2671,2.1837,2.1197,2.1139,1.9962,1.9158,1.9008,1.8179,1.797,1.8619,1.8019,1.7982,0.0,0.0,0.0,0.0,0.0,0.0,0.0,0.0,0.0,0.0,0.0,0.0,0.0,0.0,0.0,0.0,0.0,0.0,0.0,0.0,0.0,0.0,0.0,0.0,0.0,0.0,0.0,0.0,2.0812,2.1084,1.9657,2.0896,2.1137,0.0,0.0,0.0,0.0,0.0,0.0,2.1206,2.181,2.262,2.3723,2.4025,2.4524,2.5253,2.5951,2.664,2.7361,2.8686,2.9497,2.982,3.0356,3.0599,3.0593,3.0326,2.964,2.8528,2.5784,2.3728,2.2272,2.1583,2.1421,2.1534,2.1369,2.2098,2.316,2.3298,2.3712,2.4101,2.3552,2.3364,2.2987,2.0915,0.0,0.0,0.0,0.0,2.2275,2.3627,2.439,2.5238,2.6746,2.711,2.7223,2.7607,2.7042,2.5799,2.3562,2.3248,2.2909,2.1557,2.0702,0.0,1.8622,1.9243,1.9833,1.9765,2.0958,2.2028,2.2564,2.1446,2.0858,2.1323,2.0171,1.9408,1.9434,1.8644,1.8483,1.9183,1.8558,1.8495,1.9196,0.0,0.0,0.0,0.0,0.0,0.0,0.0,0.0,0.0,0.0,0.0,0.0,0.0,0.0,0.0,0.0,0.0,0.0,0.0,0.0,0.0,0.0,0.0,0.0,0.0,0.0,0.0,0.0,0.0,1.9137,2.0918,0.0,0.0,0.0,0.0,2.2088,2.2582,2.2927,2.2961,2.3542,2.4359,2.5451,2.6521,2.7585,2.8642,2.9748,3.0084,2.9636,3.0221,3.0258,2.9825,3.0356,3.0594,3.0629,3.1112,3.1008,3.0259,2.7496,2.569,2.4528,2.3409,2.3336,2.3766,2.3198,2.4026,2.5285,2.4305,2.4302,2.4929,2.5971,2.6285,2.5971,2.4271,2.4101,0.0,0.0,2.4531,2.5502,2.616,2.6738,2.7406,2.8518,2.8781,2.8794,2.8819,2.8762,2.8079,2.5862,2.4632,2.3738,2.3095,0.0,2.1075,2.0053,1.995,2.0031,2.0147,2.0357,2.0709,2.1251,2.0384,2.011,2.0946,2.0037,1.9748,2.0562,1.9559,1.9196,1.9748,1.9233,1.9208,1.9748,1.9761,0.0,0.0,0.0,0.0,0.0,0.0,0.0,0.0,0.0,0.0,0.0,0.0,0.0,0.0,0.0,0.0,0.0,0.0,0.0,0.0,0.0,0.0,0.0,0.0,0.0,0.0,0.0,0.0,2.1683,2.3699,0.0,2.2618,2.2973,2.3183,2.2845,2.3997,2.4881,2.528,2.6829,2.8062,2.8781,2.9556,3.0126,3.0509,3.0908,3.1034,3.0844,3.137,3.1526,3.1353,3.1543,3.1626,3.1632,3.1476,3.129,3.1033,3.0059,2.8561,2.6849,2.6101,2.5925,2.6105,2.5875,2.6628,2.7664,2.7288,2.7276,2.7401,2.711,2.652,2.5816,2.5209,2.5159,2.536,2.5552,2.613,2.6909,2.7808,2.8197,2.8518,2.9302,2.9478,2.9478,2.9478,2.9478,2.9252,2.8448,2.6313,2.435,2.3393,2.2099,2.078,1.9598,2.0125,2.049,2.0052,2.0801,2.1436,2.1631,2.0553,2.0031,2.057,1.9236,1.8592,1.913,1.8045,1.7684,1.8355,1.8192,1.8417,1.9084,1.9553,1.971,0.0,0.0,0.0,0.0,0.0,0.0,0.0,0.0,0.0,0.0,0.0,0.0,0.0,0.0,0.0,0.0,0.0,0.0,0.0,0.0,0.0,0.0,0.0,0.0,0.0,2.259,2.3892,2.3946,2.5853,2.6517,2.4905,2.5256,2.5431,2.5084,2.6259,2.7341,2.8111,2.9366,3.032,3.0849,3.1222,3.1393,3.1406,3.1581,3.1571,3.1406,3.1534,3.1514,3.1319,3.1227,3.144,3.1854,3.1654,3.1714,3.1955,3.1751,3.0696,2.9164,2.8612,2.8511,2.8643,2.8278,2.8825,2.9722,2.9546,2.9358,2.9045,2.8147,2.7469,2.6979,2.6779,2.6854,2.7092,2.7487,2.7864,2.8298,2.9019,2.9195,2.9296,2.9691,2.9514,2.9236,2.9236,2.8929,2.8692,2.8692,2.7396,2.5907,2.4601,2.3364,2.2025,2.0477,2.0849,2.1069,2.0419,2.0851,2.1233,2.1233,2.0174,1.9668,2.0194,1.8876,1.819,1.8551,1.7658,1.7264,1.7589,1.7838,1.83,1.8988,1.9918,2.0275,2.01,0.0,0.0,0.0,0.0,0.0,0.0,0.0,0.0,0.0,0.0,0.0,0.0,0.0,0.0,0.0,0.0,0.0,0.0,0.0,0.0,0.0,0.0,0.0,2.1392,2.3435,2.5086,2.5639,2.7168,2.7771,2.6669,2.8013,2.8982,2.8982,2.9541,3.031,3.1327,3.092,3.0899,3.1366,3.1391,3.1398,3.1387,3.1868,3.1861,3.1381,3.0751,3.0179,2.9706,2.9464,3.0045,3.1291,3.1783,3.2408,3.3052,3.2491,3.1938,3.1406,3.0834,3.0934,3.126,3.0206,3.0482,3.1311,3.0796,3.0269,2.9729,2.912,2.9321,2.9691,2.9107,2.9352,2.9792,2.9792,2.9792,2.9792,2.9792,2.9772,2.9753,2.9792,2.8897,2.8064,2.8096,2.727,2.6504,2.6504,2.7762,2.8311,2.6712,2.5904,2.4795,2.2772,2.2145,0.0,2.1252,2.0469,1.9932,1.9932,1.9153,1.8978,1.9834,1.9025,1.8659,1.9018,1.8544,1.8054,1.759,1.828,1.8958,1.9575,2.079,2.1188,2.069,0.0,0.0,0.0,0.0,0.0,0.0,0.0,0.0,0.0,0.0,0.0,0.0,0.0,0.0,0.0,0.0,0.0,0.0,0.0,0.0,0.0,2.1944,2.3038,2.3191,2.5181,2.6964,2.787,2.9467,3.0372,3.0061,3.0443,3.0708,3.0708,3.1235,3.1286,3.0707,3.1779,3.2055,3.1274,3.125,3.1248,3.1247,3.0517,3.0534,3.1252,3.1083,3.1387,3.2148,3.2465,3.2607,3.264,3.3536,3.3603,3.3115,3.3345,3.3119,3.2499,3.1115,3.0934,3.1331,3.0633,3.0809,3.1311,3.0796,3.05,3.0294,2.9729,2.9666,2.9767,2.9603,2.9666,2.9792,2.9792,2.9792,2.9792,2.9792,2.9197,2.8787,2.9605,2.8331,2.7148,2.7936,2.727,2.6504,2.6504,2.6862,2.666,2.5099,2.3781,2.2715,2.2159,2.1968,2.1728,2.126,2.0986,2.083,2.083,2.0069,1.9634,1.9882,1.8817,1.8068,1.7875,1.7413,1.7078,1.6946,1.7656,1.8383,1.9078,1.9446,1.984,0.0,0.0,0.0,0.0,0.0,0.0,0.0,0.0,0.0,0.0,0.0,0.0,0.0,0.0,0.0,0.0,0.0,0.0,0.0,0.0,0.0,0.0,2.4161,2.5569,2.627,2.7303,2.8549,3.0098,3.1148,3.1738,3.1738,3.1951,3.1801,3.1027,3.1101,3.0849,3.0033,3.0586,3.078,3.0468,3.0446,3.046,3.0456,2.9745,2.976,3.0451,2.992,3.009,3.08,3.0767,3.0894,3.1163,3.1738,3.1932,3.1893,3.1977,3.1833,3.1512,0.0,0.0,0.0,0.0,3.1537,3.1369,3.1047,3.0796,3.05,2.9967,2.9792,2.9792,2.9792,2.9792,2.9702,2.9216,2.9086,2.9086,2.9086,2.8259,2.7715,2.8819,2.7392,2.5964,2.6582,2.586,2.5084,2.5084,2.5084,0.0,2.3894,2.3396,2.2951,2.2466,2.2266,2.1992,2.1542,2.1327,2.1142,2.0977,2.0313,1.9825,1.9668,1.8791,0.0,0.0,0.0,1.7042,1.7159,1.7786,0.0,0.0,0.0,1.9738,1.9988,1.9738,0.0,0.0,2.1087,2.1058,0.0,0.0,0.0,0.0,0.0,0.0,0.0,0.0,0.0,0.0,0.0,0.0,0.0,0.0,0.0,0.0,2.6807,2.8165,2.9829,2.9597,2.9998,3.1976,3.2256,3.2239,3.2101,3.2562,3.2151,3.0416,2.9955,2.9591,2.9229,2.8475,0.0,0.0,0.0,2.9196,2.9204,2.9042,2.9051,2.9177,2.8162,2.7712,2.7788,2.7185,2.7494,2.8511,2.851,2.9126,3.0081,2.9665,2.9418,2.9421,3.0679,3.1749,3.2624,3.2815,3.2259,3.1385,3.1383,0.0,0.0,2.9993,2.9792,2.9772,2.9643,2.9624,2.9365,2.8247,2.7916,2.7916,2.7916,2.7116,2.6575,2.7663,2.6211,2.4638,2.4766,2.3898,2.3091,2.3091,2.3091,2.3091,2.3091,2.3941,2.4275,2.3256,2.2801,2.241,2.2012,2.1601,2.1191,2.0801,2.0322,0.0,1.9481,1.8966,1.8352,1.7578,1.7497,1.7575,1.7807,1.8279,1.8622,1.8801,1.9796,2.0096,1.9669,2.0096,2.0365,2.0467,2.08,2.0835,0.0,0.0,0.0,0.0,0.0,0.0,0.0,0.0,0.0,0.0,0.0,0.0,0.0,0.0,0.0,2.6722,2.8283,2.988,3.1512,3.1629,3.1717,3.2144,3.2629,3.2515,3.1498,3.1507,3.1032,2.9704,2.9512,2.9024,2.8,2.8699,2.8758,2.7968,2.7951,2.7961,2.7945,2.6919,2.6938,2.7955,2.8052,0.0,2.9073,2.9719,2.9721,2.9251,3.0097,3.0115,2.9575,2.9924,2.953,2.8813,2.951,2.9666,2.9651,3.1046,3.1434,3.1243,3.1365,3.1323,3.1085,3.0118,2.9792,2.9624,2.8708,2.8426,0.0,2.7107,2.6801,2.6801,2.6801,2.5964,2.542,2.6534,2.5073,2.3671,2.4606,2.3898,2.3091,2.3091,2.3091,2.3091,2.3091,2.3278,2.3343,2.3135,2.3023,2.284,2.2441,2.2293,2.2079,2.17,2.122,2.0801,2.0371,1.9628,1.8945,1.841,1.8059,1.7919,1.7955,1.8057,1.8124,1.8168,1.8388,1.8786,1.9391,1.8786,1.8861,1.9579,2.033,2.0649,0.0,0.0,0.0,0.0,0.0,0.0,0.0,0.0,0.0,0.0,0.0,2.3644,2.3949,0.0,2.7802,2.9478,3.0934,3.2127,3.2943,3.2534,3.2271,3.2603,3.234,3.1887,3.1267,3.0653,2.9795,2.8588,2.8278,2.7617,2.6408,2.6928,2.6964,2.6358,2.6553,2.6654,2.6661,2.6015,2.6014,2.6644,2.6857,2.715,2.7565,2.8075,2.8019,2.7576,2.8109,2.8046,2.7576,2.7844,2.7628,2.7183,2.7437,2.7971,2.8735,2.9873,3.0294,3.0268,3.0082,2.9837,2.9534,2.8721,2.8313,2.8051,2.7473,2.7299,2.7075,2.5964,2.5651,2.5651,2.5651,2.4798,2.4242,2.5378,2.4349,2.3266,2.3822,2.3507,2.3091,2.3091,2.3091,2.3091,2.3091,2.3091,2.3091,2.3091,2.3091,2.2945,2.2547,2.2488,2.2254,2.1631,2.1347,2.0947,2.0293,1.9453,1.8762,1.8332,1.8108,1.7991,1.7991,1.7991,1.7991,1.7991,1.7991,1.8202,1.8654,1.8202,1.8219,1.8654,1.9094,1.9299,0.0,0.0,0.0,0.0,0.0,0.0,0.0,2.1893,2.2977,2.3085,2.4531,2.6057,2.6976,2.8549,3.0324,3.2206,3.3307,3.3831,3.3575,3.2615,3.2001,3.2231,3.1418,3.0718,3.0402,2.9579,2.8498,2.7204,2.684,2.6252,2.5267,2.5219,2.5219,2.5219,2.5523,2.5693,2.5693,2.5693,2.5693,2.5693,2.5796,2.5796,2.5693,2.5796,2.5796,2.5693,2.5693,2.5693,2.5693,2.5693,2.5693,2.5698,2.562,2.6529,2.8014,2.8771,2.9039,2.9019,2.8712,2.8343,2.7941,2.7406,2.6935,2.6576,2.6347,2.6239,2.5933,2.4798,2.4478,2.4478,2.4478,2.38,2.3321,2.4253,2.3849,2.322,2.311,2.3159,2.322,2.311,2.3091,2.3091,2.3091,2.3091,2.3091,2.3091,2.3091,2.2974,2.2654,2.2615,2.2313,2.1542,2.1386,2.0947,1.9971,1.9259,1.8683,1.8281,1.8174,1.8118,1.8118,1.804,1.7991,1.7991,1.7991,1.7991,1.7991,1.7991,1.7991,1.7991,1.7991,1.7991,1.8553,1.9202,1.9712,2.0197,2.0866,2.1903,0.0,2.476,2.5376,2.5925,2.7745,2.9284,2.9409,3.118,3.2876,3.3596,3.3822,3.3531,3.2452,3.1705,3.0805,2.9439,2.9466,2.9034,2.752,2.7641,2.7139,2.5488,2.5675,2.5775,2.564,2.564,2.564,2.564,2.5689,2.5693,2.5693,2.5693,2.5693,2.5718,2.6133,2.6113,2.5703,2.6143,2.6079,2.5693,2.5693,2.5693,2.5693,2.5693,2.5693,2.5645,2.5317,2.5297,2.5688,2.7223,2.7791,2.7891,2.8418,2.8567,2.8422,2.7843,2.7352,2.6835,2.5829,2.5273,2.4745,2.3616,2.3288,2.3288,2.3288,2.32,2.3135,2.3266,2.3516,2.3613,2.3201,2.3415,2.3603,2.3169,2.3091,2.3091,2.3091,2.3091,2.3091,2.3091,2.3091,2.3081,2.3033,2.3023,2.2869,2.2401,2.2031,2.1299,2.0001,1.9805,1.9571,1.917,1.8762,1.8529,1.8529,1.8196,1.7991,1.7991,1.7991,1.7991,1.7991,1.7991,1.7991,1.7991,1.7991,1.7991,1.8296,1.9399,2.0381,2.0591,2.2288,2.4124,2.5045,2.6703,2.8197,2.8762,3.0401,3.1721,3.1721,3.2738,3.3633,3.3859,3.3578,3.3041,3.2215,3.04,2.8707,2.7498,2.6839,2.6503,2.6566,2.6316,2.5838,2.5149,2.5464,2.5601,2.5361,2.5571,2.5591,2.5361,2.5581,2.5693,2.5693,2.5693,2.5693,2.5693,2.5893,2.5893,2.5718,2.5903,2.5884,2.5693,2.5693,2.5693,2.5693,2.5693,2.5562,2.5352,2.543,2.5317,2.5153,2.5581,2.5899,2.6195,2.6473,2.6563,2.648,2.5945,2.5513,2.5043,2.4294,2.4132,2.4127,2.3649,2.3516,2.3552,2.3796,2.3679,2.3584,2.3806,2.3838,2.374,2.3555,2.3445,2.3337,2.313,2.3091,2.3091,2.3091,2.3091,2.3091,2.3091,2.3091,2.3091,2.3091,2.3091,2.2957,2.2537,2.2139,2.1562,2.0732,2.0439,2.0107,1.9678,1.9258,1.9014,1.9014,1.8848,1.875,1.875,1.875,1.8633,1.8361,1.8361,1.8235,1.7991,1.7991,1.7991,1.8455,1.9761,2.1094,2.186,2.4196,2.6402,2.6879,2.8913,3.0809,3.121,3.2365,3.3278,3.3128,3.3429,3.3633,3.3427,3.2861,3.2073,3.1032,2.8919,2.7012,2.5751,2.4678,2.4393,2.5317,2.5118,2.4916,2.4916,2.5303,2.5469,2.5287,2.5532,2.5562,2.5264,2.5542,2.5693,2.5693,2.5693,2.5693,2.5693,2.5693,2.5693,2.5693,2.5693,2.5693,2.5684,2.5581,2.5532,2.5513,2.5396,2.5254,2.5112,2.5269,2.5244,2.5024,2.4443,2.459,2.5072,2.4955,2.4916,2.4857,2.4521,2.4131,2.373,2.3396,2.3545,2.3789,2.3789,2.3877,2.4033,2.4313,2.4189,2.4043,2.4323,2.4277,2.4134,2.3984,2.3688,2.3435,2.3318,2.3201,2.3091,2.3091,2.3091,2.3091,2.3091,2.3091,2.3091,2.3091,2.3091,2.2957,2.2537,2.2236,2.1885,2.1435,2.1006,2.0615,2.0284,1.9766,1.9481,1.9481,1.9364,1.9305,1.9305,1.9305,1.9131,1.8801,1.8801,1.8576,1.8166,1.8166,1.8098,1.9459,2.0603,2.2123,2.4782,2.6753,2.8461,3.0073,3.1763,3.3002,3.3027,3.347,3.3709,3.3203,3.3115,3.291,3.2254,3.1648,3.0452,2.8157,2.7319,2.616,2.4132,2.3437,2.3152,2.3196,2.3945,2.441,2.441,2.4844,2.5273,2.5669,2.5684,2.5684,2.5689,2.5684,2.5693,2.5693,2.5693,2.5693,2.5693,2.5693,2.5693,2.5693,2.5693,2.5693,2.5689,2.5283,2.5112,2.5082,2.4629,2.4697,2.5053,2.4619,2.4707,2.4984,2.4144,2.4369,2.5033,2.458,2.441,2.441,2.4401,2.4131,2.3789,2.3769,2.3779,2.3789,2.3789,2.4082,2.4371,2.4391,2.4381,2.4371,2.4391,2.4727,2.4936,2.4492,2.4362,2.4258,2.3848,2.3406,2.3091,2.3091,2.3091,2.3091,2.3091,2.3091,2.3091,2.3091,2.3091,2.2957,2.2537,2.2479,2.2324,2.1904,2.1445,2.1191,2.1151,2.0362,1.9874,1.9874,1.9502,1.9305,1.9305,1.9305,1.9296,1.9286,1.9286,1.9043,1.8588,1.8588,1.8364,2.1492,2.3364,2.5376,2.7801,2.9616,3.1173,3.2491,3.3508,3.406,3.3696,3.2604,3.1662,3.1474,2.9996,2.8927,2.9377,2.8597,2.7675,2.6874,2.6169,2.5139,2.3595,2.3486,2.335,2.2762,2.321,2.3669,2.3975,2.4691,2.516,2.5283,2.5552,2.5693,2.5693,2.5693,2.5693,2.5693,2.5693,2.5693,2.5693,2.5693,2.5693,2.5693,2.5693,2.5552,2.5283,2.516,2.4926,2.4619,2.4473,2.4336,2.4281,2.4701,2.4613,2.4242,2.4209,2.4209,2.4222,2.4053,2.418,2.4352,2.4092,2.4092,2.415,2.3877,2.4212,2.4662,2.4662,2.476,2.4945,2.5191,2.5068,2.4922,2.5201,2.5176,2.5053,2.4906,2.4619,2.4352,2.4206,2.4069,2.3874,2.3613,2.3574,2.3445,2.3162,2.3091,2.3091,2.3091,2.3091,2.3042,2.2896,2.2908,2.2849,2.2713,2.2303,2.1942,2.168,2.1093,2.0635,2.0381,2.0224,2.0156,2.0156,2.0156,2.0009,1.9707,1.9424,1.9209,1.9062,1.8752,1.8693,2.3602,2.5649,2.765,3.0055,3.1599,3.2767,3.3696,3.4022,3.3821,3.2764,3.0976,2.9317,2.8443,2.6459,2.5181,2.5881,2.5345,2.4913,2.5122,2.4736,2.4163,2.3489,2.3518,2.3408,2.3008,2.3191,2.3486,2.3792,2.4613,2.516,2.5317,2.5562,2.5786,2.5942,2.5796,2.5693,2.5693,2.5693,2.5693,2.5693,2.5693,2.5693,2.5708,2.5542,2.5342,2.5072,2.4769,2.4453,2.418,2.4001,2.3874,2.387,2.4418,2.4388,2.4033,2.415,2.4023,2.3792,2.3613,2.3718,2.3893,2.362,2.3848,2.4141,2.3867,2.4408,2.5092,2.5092,2.5209,2.5371,2.564,2.5503,2.5381,2.565,2.5493,2.5303,2.5303,2.4961,2.4648,2.4648,2.4498,2.4336,2.4062,2.3887,2.3691,2.3386,2.322,2.3091,2.3091,2.3091,2.3091,2.3091,2.3091,2.3091,2.3091,2.2732,2.2402,2.2129,2.1542,2.1084,2.084,2.0693,2.0605,2.0605,2.0605,2.0449,2.0146,1.9892,1.9686,1.9502,1.921,1.9142,2.5716,2.7449,2.8963,3.1617,3.2717,3.3278,3.3771,3.3411,3.2374,3.0367,2.8622,2.6718,2.4329,2.2748,2.1896,2.2096,2.2185,2.2442,2.3038,2.3242,2.345,2.3779,2.3528,2.3469,2.3818,2.3851,2.3816,2.3796,2.4615,2.5317,2.5718,2.5767,2.5962,2.6431,2.5971,2.5747,2.5747,2.5703,2.5693,2.5693,2.5693,2.5693,2.5698,2.5273,2.5082,2.5014,2.4173,2.3779,2.3721,2.3288,2.3357,2.376,2.3779,2.4014,2.4284,2.3926,2.3779,2.3691,2.3259,2.3091,2.3101,2.312,2.3445,2.3851,2.387,2.4466,2.5121,2.5121,2.541,2.5693,2.5693,2.5693,2.5693,2.5693,2.5693,2.5693,2.5693,2.54,2.5121,2.5121,2.4746,2.443,2.443,2.4082,2.3789,2.3789,2.3396,2.3091,2.3091,2.3091,2.3091,2.3091,2.3091,2.3091,2.3091,2.2752,2.2518,2.2488,2.1708,2.124,2.119,2.0801,2.0605,2.0605,2.0605,2.0605,2.0605,2.0586,2.0351,1.9932,1.9903,1.9717,2.7521,2.9684,3.1537,3.3081,3.3583,3.3721,3.3872,3.2321,3.0309,2.8341,2.5117,2.2275,2.1057,2.0038,1.9745,2.0835,2.2046,2.3056,2.356,2.444,2.4849,2.4316,2.4723,2.499,2.4789,2.4322,2.3901,2.3608,2.4808,2.5728,2.6201,2.6523,2.6713,2.6846,2.6445,2.6221,2.6221,2.5874,2.5693,2.5693,2.5693,2.5693,2.5698,2.5273,2.4916,2.4551,2.4023,2.3603,2.3279,2.314,2.3159,2.3318,2.3662,2.3662,2.3464,2.3711,2.3584,2.3269,2.314,2.3091,2.3171,2.3516,2.3916,2.4316,2.4662,2.5127,2.5542,2.5542,2.562,2.5693,2.5693,2.5693,2.5693,2.5693,2.5693,2.5693,2.5693,2.562,2.5542,2.5542,2.5205,2.4926,2.4926,2.431,2.3789,2.3789,2.3396,2.3091,2.3091,2.3091,2.3091,2.3091,2.3091,2.3091,2.3091,2.3003,2.283,2.2529,2.2012,2.1552,2.121,2.0801,2.0605,2.0605,2.0605,2.0605,2.0605,2.0263,2.0195,2.041,2.0068,2.0029,2.8563,3.1034,3.2914,3.2761,3.3322,3.352,3.2031,3.0243,2.795,2.4747,2.1846,1.94,1.7839,1.7187,1.7317,1.867,2.0152,2.163,2.3037,2.3991,2.4421,2.4046,2.4449,2.4467,2.3768,2.35,2.3393,2.3376,2.4568,2.5119,2.4703,2.5549,2.6135,2.6279,2.5918,2.5914,2.6396,2.6143,2.5903,2.5693,2.5693,2.5693,2.5698,2.5273,2.4955,2.4668,2.4053,2.3652,2.3386,2.3169,2.3091,2.312,2.3386,2.3327,2.312,2.3386,2.3327,2.3091,2.3091,2.324,2.3445,2.3711,2.4072,2.4502,2.4965,2.5381,2.5693,2.5693,2.5693,2.5693,2.5693,2.5693,2.5693,2.5693,2.5693,2.5693,2.5693,2.5693,2.5693,2.5693,2.5513,2.5361,2.5361,2.4805,2.431,2.4092,2.3679,2.3337,2.312,2.3091,2.3091,2.3091,2.3091,2.3091,2.3091,2.3091,2.2994,2.2781,2.2217,2.1777,2.1513,2.0928,2.0605,2.0605,2.0605,2.0605,2.0605,2.0341,2.0341,2.0595,2.0332,2.0351,2.9154,3.1582,3.3128,3.1386,3.2041,3.2332,2.9258,2.7476,2.52,2.075,1.8859,1.7297,1.4972,1.4682,1.5234,1.6586,1.7906,1.966,2.2215,2.2986,2.3301,2.3415,2.3571,2.324,2.2097,2.2233,2.2535,2.296,2.3842,2.3875,2.2728,2.3928,2.488,2.5379,2.4879,2.5161,2.6396,2.626,2.6013,2.5693,2.5767,2.5767,2.5698,2.5273,2.5092,2.5043,2.4242,2.3877,2.3848,2.3445,2.3266,2.3279,2.3198,2.3179,2.3191,2.312,2.313,2.3169,2.311,2.3445,2.3877,2.3877,2.416,2.459,2.5043,2.543,2.5693,2.5693,2.5693,2.5693,2.5693,2.5693,2.5693,2.5693,2.5693,2.5693,2.5693,2.5693,2.5693,2.5693,2.5693,2.5693,2.5693,2.5312,2.4877,2.4449,2.4014,2.3564,2.314,2.3091,2.3091,2.3091,2.3091,2.3091,2.3091,2.3091,2.3091,2.3091,2.2402,2.1973,2.1973,2.1143,2.0674,2.0674,2.0635,2.0605,2.0605,2.0605,2.0605,2.0605,2.0605,2.0605,2.9728,3.0962,3.1364,3.0045,2.9395,2.8694,2.7119,2.4388,2.1447,1.8882,1.6501,1.4537,1.3432,1.4086,1.5346,1.7018,1.8633,2.0449,2.2672,2.3679,2.3905,2.3172,2.396,2.4035,2.2703,2.2076,2.1803,2.1863,2.2056,2.2577,2.3521,2.3834,2.4401,2.537,2.4147,2.4413,2.6371,2.5512,2.5297,2.5693,2.6079,2.6084,2.5698,2.5273,2.5092,2.5063,2.4531,2.4307,2.4284,2.4206,2.4176,2.4137,2.3818,2.3682,2.3633,2.3249,2.3347,2.3623,2.324,2.363,2.4307,2.4307,2.46,2.5063,2.5464,2.565,2.5693,2.5693,2.5693,2.5693,2.5693,2.5693,2.5693,2.5693,2.5693,2.5693,2.5693,2.5693,2.5693,2.5693,2.5693,2.5693,2.5693,2.5045,2.4479,2.4401,2.3728,2.3201,2.311,2.3091,2.3091,2.3091,2.3091,2.3091,2.3091,2.3091,2.3091,2.3091,2.2654,2.2402,2.2402,2.1552,2.1103,2.1103,2.0772,2.0605,2.0605,2.0605,2.0605,2.0605,2.0605,2.0605,2.8444,3.0075,3.1092,2.8704,2.7933,2.7086,2.4361,2.1891,1.9344,1.6416,1.4822,1.3731,1.3023,1.374,1.4863,1.6152,1.7405,1.9134,2.1746,2.2054,2.2071,2.2202,2.2421,2.2065,2.0826,2.0564,2.045,2.045,2.045,2.0759,2.1458,2.2238,2.2875,2.342,2.3483,2.3917,2.4726,2.4062,2.4102,2.4877,2.5183,2.5454,2.5693,2.5752,2.5635,2.5391,2.4951,2.4756,2.476,2.4512,2.4391,2.4352,2.3955,2.3926,2.4043,2.3357,2.3396,2.376,2.3532,2.3874,2.443,2.4678,2.4916,2.518,2.5581,2.5693,2.5693,2.5693,2.5693,2.5693,2.5693,2.5693,2.5693,2.5693,2.5693,2.5693,2.5693,2.5693,2.5693,2.5693,2.5693,2.5693,2.5693,2.5357,2.4918,2.4459,2.404,2.362,2.3149,2.3091,2.3091,2.3091,2.3091,2.3091,2.3091,2.3091,2.3091,2.3091,2.2723,2.2488,2.2488,2.1669,2.119,2.119,2.0791,2.0605,2.0605,2.0605,2.0605,2.0605,2.0605,2.0605,2.7071,2.8974,3.0388,2.7294,2.6417,2.5374,2.183,1.969,1.7573,1.4438,1.3696,1.3457,1.2992,1.3418,1.4172,1.523,1.5966,1.7506,2.0635,2.0338,2.0187,2.1238,2.0838,2.0071,1.9004,1.9192,1.9395,1.9395,1.9395,1.9395,1.9395,2.0508,2.128,2.1578,2.2428,2.2963,2.3193,2.27,2.3068,2.4242,2.4369,2.4762,2.5418,2.5975,2.5882,2.5255,2.5241,2.5239,2.5209,2.4844,2.4615,2.4512,2.4092,2.4072,2.4199,2.3503,2.3532,2.3906,2.3818,2.4189,2.4703,2.4896,2.5082,2.5283,2.561,2.5693,2.5693,2.5693,2.5693,2.5693,2.5693,2.5693,2.5693,2.5693,2.5693,2.5693,2.5693,2.5693,2.5693,2.5693,2.5693,2.5693,2.5693,2.564,2.5337,2.4658,2.4404,2.402,2.3337,2.3149,2.3091,2.3091,2.3091,2.3091,2.3091,2.3091,2.3091,2.3091,2.281,2.2625,2.2625,2.1893,2.1445,2.1357,2.0937,2.0684,2.0605,2.0605,2.0605,2.0605,2.0605,2.0605,2.6952,2.745,2.7573,2.5744,2.3833,2.195,2.0172,1.7682,1.5391,1.407,1.336,1.2978,1.2917,1.2952,1.3525,1.5132,1.5464,1.6728,2.0165,2.0164,2.0069,2.0786,2.0647,2.0071,1.9004,1.9192,1.9395,1.9395,1.9395,1.9395,1.9395,1.954,2.0227,2.1557,2.0422,2.0892,2.3193,2.2195,2.271,2.4732,2.4758,2.4628,2.4468,2.5362,2.5083,2.3939,2.5129,2.565,2.565,2.561,2.5381,2.4994,2.4531,2.415,2.386,2.376,2.3994,2.4284,2.3926,2.459,2.5464,2.4703,2.4996,2.5659,2.5698,2.5693,2.5693,2.5693,2.5693,2.5693,2.5693,2.5693,2.5693,2.5693,2.5693,2.5693,2.5693,2.5693,2.5693,2.5693,2.5693,2.5693,2.5693,2.54,2.5121,2.5043,2.4369,2.3818,2.374,2.3357,2.3091,2.3091,2.3091,2.3091,2.3091,2.3091,2.3091,2.3091,2.3062,2.3033,2.3033,2.2625,2.2217,2.1836,2.1376,2.0977,2.0605,2.0605,2.0605,2.0605,2.0605,2.0605,2.5072,2.5904,2.6468,2.5033,2.2893,2.0673,1.9026,1.677,1.4702,1.3501,1.3077,1.2905,1.2905,1.2905,1.3196,1.4111,1.4268,1.5013,1.7215,1.7018,1.7163,1.8481,1.8556,1.8559,1.8653,1.912,1.9395,1.9395,1.9395,1.9395,1.9395,1.9395,1.9678,2.0256,1.9707,1.9898,2.0913,2.0288,2.0812,2.2459,2.3475,2.3622,2.304,2.4572,2.4707,2.3741,2.4254,2.4947,2.5693,2.5693,2.5454,2.5053,2.459,2.4293,2.4141,2.3887,2.4053,2.4434,2.4545,2.4902,2.5322,2.522,2.5425,2.5693,2.5693,2.5693,2.5693,2.5693,2.5693,2.5693,2.5693,2.5913,2.6133,2.6133,2.6133,2.603,2.5767,2.5693,2.5693,2.5693,2.5693,2.5693,2.5693,2.5562,2.5381,2.5131,2.4551,2.4072,2.3828,2.3386,2.322,2.3496,2.3269,2.3091,2.3091,2.3091,2.3091,2.3091,2.3091,2.3091,2.3091,2.2713,2.241,2.2266,2.1846,2.1386,2.0967,2.0967,2.085,2.0605,2.0605,2.0605,2.3128,2.4259,2.5315,2.4267,2.21,1.9794,1.8184,1.6055,1.4134,1.3108,1.2905,1.2905,1.2905,1.2905,1.3069,1.3591,1.3678,1.429,1.6006,1.5402,1.5445,1.7293,1.7081,1.7173,1.813,1.8946,1.9395,1.9395,1.9395,1.9395,1.9395,1.9395,1.9395,1.9395,1.9395,1.9395,1.9395,1.9158,1.9736,2.1123,2.2155,2.2317,2.1747,2.3383,2.3752,2.3126,2.3534,2.4254,2.5143,2.5538,2.515,2.4326,2.4538,2.4453,2.4228,2.418,2.4355,2.4648,2.4984,2.518,2.5293,2.5478,2.561,2.5693,2.5693,2.5693,2.5693,2.5693,2.5693,2.5713,2.5874,2.6162,2.6387,2.6387,2.6387,2.6269,2.5806,2.5693,2.5747,2.5884,2.5796,2.5732,2.5884,2.5796,2.561,2.5312,2.4775,2.4355,2.4189,2.3682,2.3474,2.3935,2.3679,2.3445,2.3318,2.3169,2.3091,2.3091,2.3091,2.3091,2.3091,2.283,2.2615,2.2488,2.2217,2.1855,2.1405,2.1279,2.1054,2.0781,2.0664,2.0605,2.1441,2.25,2.3714,2.324,2.1191,1.8983,1.7702,1.5381,1.3398,1.2981,1.2905,1.2905,1.2905,1.2905,1.3154,1.3968,1.4091,1.5011,1.761,1.6367,1.5935,1.7953,1.6786,1.6282,1.7501,1.8699,1.9395,1.9395,1.9395,1.9395,1.9395,1.9395,1.9395,1.9395,1.9395,1.9395,1.9395,1.9395,2.0141,2.1607,2.1137,2.0865,2.0747,2.1703,2.1988,2.1803,2.3126,2.3716,2.3816,2.5152,2.4406,2.2603,2.4411,2.4564,2.3896,2.4769,2.5082,2.5082,2.5092,2.5361,2.564,2.5239,2.5371,2.5693,2.5693,2.5693,2.5693,2.5693,2.5693,2.5815,2.6269,2.6412,2.6387,2.6387,2.6387,2.6269,2.5806,2.5693,2.5845,2.6299,2.601,2.5854,2.6309,2.6001,2.5693,2.5684,2.4957,2.457,2.5024,2.4339,2.3945,2.4342,2.4381,2.4238,2.3818,2.3367,2.3091,2.3091,2.3091,2.3091,2.3091,2.3091,2.2918,2.2519,2.251,2.2305,2.1896,2.1425,2.119,2.1181,2.0791,2.0605,1.8078,1.8537,1.9054,1.9503,1.8108,1.6533,1.6133,1.4727,1.3389,1.2981,1.2905,1.2905,1.2905,1.2905,1.3154,1.3968,1.4371,1.4883,1.576,1.5566,1.5742,1.6849,1.7523,1.817,1.8772,1.9174,1.9395,1.9395,1.9395,1.9395,1.9395,1.9395,1.9301,1.9072,1.9065,1.8971,1.8799,1.8771,1.9112,1.9771,2.0431,2.0199,1.9222,2.0358,2.064,2.0333,2.1727,2.2843,2.3741,2.4146,2.4113,2.3733,2.3396,2.3272,2.3425,2.4307,2.4443,2.4349,2.5215,2.542,2.5303,2.5469,2.5601,2.5693,2.5693,2.5693,2.5693,2.5693,2.5693,2.5884,2.6631,2.6816,2.6816,2.6816,2.6816,2.6621,2.5874,2.5693,2.5732,2.5893,2.5806,2.5757,2.5893,2.5806,2.5693,2.5693,2.5234,2.4936,2.5072,2.457,2.4268,2.4381,2.4391,2.4342,2.4228,2.4069,2.3864,2.3603,2.3584,2.3425,2.311,2.3091,2.3033,2.2896,2.2918,2.2713,2.2314,2.2157,2.1963,2.168,2.1553,2.1485,1.5405,1.62,1.6824,1.7376,1.6449,1.5357,1.5215,1.4189,1.3193,1.2942,1.2905,1.2905,1.2905,1.2905,1.3154,1.3968,1.4488,1.4855,1.5023,1.5339,1.5705,1.6119,1.7512,1.8531,1.8831,1.9194,1.9395,1.9395,1.9395,1.9395,1.9395,1.9287,1.9065,1.8771,1.8978,1.9005,1.8853,1.8711,1.8744,1.8918,1.9562,1.9331,1.8344,1.9096,1.9482,1.9679,2.1092,2.1879,0.0,2.3285,2.3475,2.3092,2.2946,2.328,2.3858,2.3943,2.4217,2.454,2.4718,2.504,2.5371,2.562,2.5693,2.5693,2.5693,2.5693,2.5693,2.5693,2.5693,2.5913,2.6771,2.6986,2.7025,2.7217,2.7139,2.684,2.6313,2.5942,2.5806,2.6128,2.5908,2.5767,2.5932,2.5825,2.5693,2.5693,2.5361,2.5151,2.5317,2.4941,2.4727,2.4879,2.4889,2.4889,2.4889,2.4586,2.4238,2.3818,2.3789,2.3594,2.311,2.3091,2.3091,2.3091,2.3091,2.2986,2.2723,2.2566,2.2295,2.1905,2.1905,2.1905,0.0,1.5045,1.6297,1.6326,1.5757,1.5074,1.474,1.3743,0.0,1.2905,1.2905,1.2903,1.2944,1.2942,1.3225,1.4055,1.4619,1.5046,1.5336,1.5684,1.5901,1.5873,1.6947,1.7776,1.7996,1.8851,1.9395,1.9395,1.9395,1.9395,1.9395,1.9085,1.8804,1.8531,1.906,1.9321,1.9301,1.8978,1.8823,1.8856,1.8577,1.829,1.7995,1.7969,1.8536,1.9524,2.0939,2.0812,1.9808,2.2366,2.2467,2.1164,2.2842,2.4072,2.4783,2.3684,2.4273,2.5392,2.386,2.4345,2.5659,2.5659,2.5689,2.5684,2.5679,2.5689,2.5693,2.5693,2.5693,2.5913,2.6771,2.6992,2.708,2.7545,2.7285,2.6937,2.6898,2.6274,2.5952,2.6742,2.6254,2.5845,2.6269,2.5981,2.5693,2.5693,2.5381,2.5273,2.5659,2.5371,2.5264,2.562,2.5674,2.5698,2.5669,2.4908,2.4297,2.3929,2.3828,2.3603,2.3159,2.311,2.3091,2.3091,2.3091,2.3091,2.3091,2.2723,2.2353,2.2003,2.2003,2.2003,1.1535,0.0,1.2342,1.2719,1.2881,1.3025,0.0,1.3108,1.2905,1.2905,1.2905,1.2991,1.3301,1.3359,1.374,1.4908,1.5757,1.623,1.6144,1.6601,1.6829,1.654,1.7722,1.8544,1.8397,1.9007,1.9395,1.9395,1.9395,1.9395,1.9395,1.9085,1.8863,1.8824,1.8738,1.8591,1.8329,1.805,1.813,1.8584,1.805,1.7883,1.7982,1.7802,1.7834,1.8146,1.9498,1.9904,1.9653,2.029,2.074,2.1032,2.1469,2.2197,2.3046,2.306,2.377,2.4593,2.3849,2.4309,2.5248,2.5248,2.5459,2.565,2.5332,2.5469,2.5693,2.5693,2.5693,2.5913,2.6771,2.6777,2.6641,2.707,2.6846,2.6445,2.6089,2.5854,2.5767,2.5971,2.5854,2.5747,2.5854,2.5776,2.5693,2.5693,2.562,2.5591,2.5698,2.562,2.5488,2.5254,2.5503,2.5571,2.5278,2.5053,2.4896,2.4799,2.4173,2.374,2.3643,2.3298,2.3091,2.3091,2.3091,2.3091,2.3091,2.3003,2.2918,2.282,2.282,2.282,1.0862,1.1055,1.1329,1.1769,1.2197,1.2588,1.2844,1.2905,1.2905,1.2905,1.2905,1.2974,1.3174,1.3078,1.3427,1.4885,1.5281,1.5586,1.6094,1.6219,1.6471,1.7044,1.7936,1.8611,1.8893,1.9207,1.9395,1.9395,1.9267,1.9254,1.9388,1.8831,1.8556,1.8724,1.8303,1.813,1.8223,1.7922,1.7963,1.8283,1.7809,1.7669,1.7802,1.7662,1.7608,1.7661,1.9013,1.9246,1.8734,1.935,1.99,2.0358,2.0358,2.1437,2.2858,2.1681,2.2454,2.3939,2.2921,2.3785,2.5371,2.5371,2.5107,2.4743,2.4507,2.4602,2.479,2.479,2.5226,2.5708,2.5749,2.5597,2.5692,2.6752,2.6205,2.5578,2.6169,2.5991,2.5767,2.5971,2.5854,2.5693,2.5693,2.5693,2.5693,2.5693,2.5693,2.5693,2.5693,2.5693,2.562,2.54,2.5571,2.561,2.54,2.4608,2.4398,2.5068,2.4466,2.3799,2.3184,2.3111,2.3091,2.3091,2.3091,2.3091,2.3091,2.3091,2.2818,2.2262,2.2262,2.1974,1.0879,1.1301,1.1703,1.2096,1.2559,1.2905,1.2905,1.2905,1.2905,1.2905,1.2905,1.2888,1.2849,1.2749,1.3166,1.4609,1.4572,1.4793,1.6033,1.5694,1.5889,1.7428,1.7923,1.8417,1.9127,1.9274,1.9314,1.9267,1.8998,1.8965,1.9247,1.8449,1.8136,1.8417,1.7903,1.7856,1.8371,1.8076,1.7976,1.7989,1.7736,1.7588,1.7541,1.7588,1.7582,1.7594,1.879,1.8655,1.7687,1.8838,1.9298,1.9324,1.9531,2.1151,2.3066,2.0268,2.1144,2.3464,2.1842,2.3075,2.5372,2.5305,2.4562,2.3683,2.3619,2.3638,2.3608,2.3185,2.4196,2.5238,2.4482,2.4088,2.4354,2.6168,2.5372,2.4633,2.6152,2.6066,2.5825,2.6221,2.5962,2.5693,2.5693,2.5693,2.5693,2.5693,2.5693,2.5693,2.5693,2.5693,2.5693,2.5693,2.5504,2.5382,2.5382,2.398,2.3526,2.4517,2.4083,2.3285,2.2147,2.2421,2.2647,2.2691,2.2634,2.2618,2.2618,2.2574,2.2009,2.1025,2.1025,2.0576,1.1282,1.1557,1.1703,1.2096,1.2559,1.2905,1.2905,1.2905,1.2905,1.2905,1.2905,1.2828,1.2606,1.3576,1.4567,1.4971,1.5829,1.671,1.7485,1.7173,1.7058,1.7548,1.829,1.8616,1.8256,1.8669,1.8891,1.8672,1.8584,1.8577,1.8652,1.8229,1.8015,1.8089,1.7769,1.7648,1.7749,1.7702,1.7789,1.7989,1.7736,1.7481,1.728,1.7495,1.7474,1.728,1.773,1.7786,1.7608,1.7812,1.7917,1.8015,1.9169,2.059,2.182,2.0151,2.1306,2.35,2.2114,2.2665,2.3943,2.3539,2.3544,2.3628,2.3237,2.3388,2.3201,2.0871,2.2038,2.4055,2.4246,2.3224,2.2536,2.4294,2.4247,2.3866,2.4138,2.4983,2.5728,2.5796,2.5757,2.5693,2.5693,2.5693,2.5693,2.5693,2.5693,2.5693,2.5693,2.5693,2.5693,2.5693,2.4682,2.4023,2.4023,2.3761,2.3187,2.2272,2.1454,2.093,2.0722,2.0495,2.0513,2.0809,2.0545,2.0384,2.0384,2.0164,1.9966,1.9784,1.9784,2.0215,1.136,1.1606,1.1762,1.2412,1.2746,1.2842,1.2629,1.2575,1.264,1.2867,1.2891,1.2855,1.2734,1.3531,1.4329,1.4709,1.5825,1.6659,1.6749,1.6576,1.6692,1.7301,1.7742,1.805,1.8236,1.8531,1.8637,1.8504,1.8343,1.8323,1.8484,1.805,1.7842,1.7989,1.7742,1.7608,1.7608,1.7454,1.7528,1.7796,1.7515,1.7388,1.7401,1.722,1.7208,1.7408,1.7388,1.7468,1.7608,1.7608,1.7608,1.7661,1.8271,1.9369,2.0487,1.9834,2.0392,2.1405,2.0794,2.1473,2.2583,2.2361,2.1921,2.1449,2.1235,2.13,2.1075,1.9091,2.1016,2.3404,2.2095,2.117,2.0954,2.252,2.2181,2.1887,2.3384,2.4171,2.4609,2.4609,2.4609,2.4609,2.4609,2.4609,2.4873,2.5586,2.5913,2.5716,2.4745,2.5476,2.5425,2.371,2.3642,2.3409,2.2667,2.1912,2.1753,2.2374,2.0857,2.0103,2.0401,1.9763,1.9715,2.0385,2.0237,2.0179,2.0179,1.9865,1.9368,1.8746,1.8746,1.8598,1.1222,1.1517,1.1781,1.2541,1.2815,1.2827,1.2572,1.2511,1.2603,1.2968,1.2975,1.2902,1.2872,1.352,1.4209,1.4664,1.5861,1.6611,1.6196,1.6235,1.6602,1.7401,1.7488,1.7735,1.8323,1.8384,1.8357,1.8283,1.8036,1.8009,1.8291,1.7796,1.7589,1.7802,1.7535,1.7375,1.7375,1.7187,1.722,1.7501,1.7207,1.7153,1.7294,1.6954,1.6981,1.7301,1.728,1.7361,1.7508,1.7582,1.7608,1.7608,1.7608,1.8225,1.9169,1.9472,1.935,1.9048,1.9121,1.9951,2.101,2.1091,2.0395,1.9515,1.9515,1.9542,1.9324,1.797,2.0076,2.2265,2.0135,1.9369,1.9472,2.0888,2.0385,2.0187,2.2299,2.326,2.3744,2.3834,2.3755,2.3818,2.425,2.4051,2.4257,2.5499,2.6113,2.5754,2.392,2.4914,2.473,2.1988,2.2316,2.2316,2.1296,1.993,2.002,2.208,2.0522,1.9575,1.9747,1.8994,1.8941,1.9731,1.9677,1.9655,1.9655,1.9302,1.8675,1.7758,1.7758,1.7459,1.083,1.1271,1.1702,1.2147,1.2578,1.2943,1.3098,1.3133,1.3204,1.3413,1.3204,1.2947,1.2825,1.4065,1.5164,1.5394,1.6764,1.7628,1.7171,1.7535,1.7982,1.835,1.8418,1.831,1.8069,1.8056,1.7929,1.7669,1.7629,1.7648,1.7649,1.7381,1.7246,1.7266,1.6946,1.6767,1.6767,1.6747,1.6913,1.7226,1.6881,1.6607,1.6411,1.6938,1.6866,1.6438,1.7234,1.7434,1.7253,1.7495,1.7608,1.7608,1.7608,1.7661,1.7891,1.9143,1.8651,1.7421,1.7672,1.8254,1.8965,1.9275,1.9305,1.9229,1.9229,1.9388,1.9324,1.797,1.8708,1.9852,1.9653,1.8689,1.8068,1.942,1.9679,1.9653,1.9852,2.1912,2.3816,2.4177,2.396,2.4241,2.5927,2.512,2.4594,2.5537,2.6113,2.5754,2.392,2.3818,2.3336,2.1853,2.0615,1.986,1.9757,1.8532,1.8342,1.977,1.9463,1.8789,1.7842,1.7514,1.7468,1.7797,1.7558,1.744,1.744,1.7084,1.6891,1.6798,1.6798,1.8039,1.1144,1.1281,1.1445,1.2401,1.2268,1.207,1.2687,1.296,1.3106,1.3238,1.3585,1.3911,1.4093,1.4328,1.4716,1.5332,1.6396,1.7085,1.6916,1.7228,1.7462,1.7388,1.7382,1.7335,1.7195,1.7189,1.7135,1.7048,1.7041,1.7041,1.7041,1.6934,1.6899,1.6899,1.6767,1.6707,1.6707,1.6526,1.6518,1.665,1.6518,1.6498,1.6533,1.6393,1.6406,1.6553,1.6725,1.6832,1.6906,1.6994,1.7041,1.7054,1.7267,1.7448,1.7661,1.8173,1.7973,1.7434,1.7361,1.7521,1.7757,1.7662,1.7659,1.7669,1.789,1.803,1.8034,1.7712,1.797,1.8349,1.8349,1.797,1.7733,1.8251,1.8349,1.8584,1.942,2.1303,2.2869,2.304,2.3057,2.3609,2.5256,2.4302,2.4042,2.6191,2.6904,2.6154,2.3219,2.3801,2.3134,1.9535,1.8681,1.851,1.888,1.8115,1.7893,1.8562,1.8356,1.8029,1.7628,1.7501,1.7495,1.7608,1.7501,1.7448,1.7441,1.7153,1.7006,1.7032,1.7872,1.8669,1.0905,1.1065,1.1217,1.1876,1.1884,1.1881,1.2445,1.2785,1.3049,1.3356,1.3935,1.4454,1.4627,1.4496,1.4541,1.5162,1.5999,1.6567,1.6567,1.6846,1.6959,1.6734,1.6707,1.6707,1.6707,1.6707,1.6707,1.6707,1.6707,1.6707,1.6707,1.662,1.6567,1.6567,1.6473,1.6426,1.6426,1.6233,1.6132,1.6132,1.6132,1.6239,1.642,1.6112,1.6139,1.6426,1.6413,1.6473,1.6573,1.6667,1.676,1.6879,1.6993,1.7214,1.7461,1.7341,1.7334,1.7288,1.7239,1.7079,1.6879,1.674,1.6647,1.6632,1.6839,1.7052,1.7239,1.7414,1.7535,1.7608,1.7608,1.7608,1.7608,1.7608,1.7608,1.7865,1.8895,2.0768,2.2356,2.2588,2.2684,2.32,2.4734,2.385,2.3604,2.5644,2.6824,2.6182,2.2569,2.3178,2.2349,1.8174,1.7642,1.7789,1.831,1.7969,1.7776,1.7869,1.7796,1.7689,1.7615,1.7608,1.7608,1.7608,1.7608,1.7608,1.7608,1.7408,1.734,1.7359,1.8694,1.9449,0.9906,1.053,1.1025,1.0365,1.1455,1.2651,1.2534,1.2711,1.3127,1.3946,1.4251,1.4343,1.4149,1.4537,1.4938,1.4994,1.5728,1.6297,1.6297,1.652,1.67,1.67,1.67,1.67,1.67,1.67,1.67,1.67,1.67,1.67,1.67,1.6451,1.6297,1.6297,1.5961,1.5808,1.5808,1.5808,1.5808,1.5808,1.5808,1.5808,1.5815,1.6132,1.6106,1.5835,1.6422,1.6533,1.6317,1.658,1.6899,1.7166,1.682,1.6913,1.7159,1.6846,1.6707,1.6747,1.7092,1.6811,1.6344,1.6607,1.6506,1.6297,1.6297,1.673,1.7199,1.7199,1.7388,1.7608,1.7608,1.7608,1.7608,1.7608,1.7608,1.7669,1.7949,2.0268,2.2505,2.3253,2.2996,2.3182,2.4743,2.41,2.3465,2.3681,2.5582,2.5723,2.2156,2.1676,2.0723,1.8279,1.7769,1.7716,1.7975,1.7995,1.7889,1.7635,1.7849,1.7876,1.7622,1.7608,1.7608,1.7608,1.7608,1.7608,1.7608,1.7615,1.7615,1.7661,1.8968,2.0367,1.0392,1.0241,1.0226,1.0824,1.1101,1.1457,1.2299,1.2711,1.3173,1.4189,1.4434,1.4512,1.4695,1.5011,1.5202,1.5024,1.5728,1.6223,1.5992,1.6213,1.6326,1.6088,1.6061,1.6061,1.6061,1.6061,1.6061,1.6061,1.6061,1.6061,1.6061,1.5981,1.5941,1.5941,1.5848,1.5808,1.5808,1.5808,1.5808,1.5808,1.5808,1.5808,1.5808,1.5895,1.5888,1.5815,1.5988,1.6015,1.5941,1.6028,1.6266,1.6571,1.666,1.676,1.6854,1.6999,1.6913,1.6687,1.6598,1.6444,1.6277,1.6132,1.6008,1.5999,1.6237,1.6565,1.6906,1.7139,1.7388,1.7608,1.7608,1.7608,1.7608,1.7608,1.7608,1.7609,1.7702,1.9539,2.1558,2.2811,2.2437,2.2755,2.5334,2.4364,2.373,2.5165,2.6319,2.5836,2.2552,2.0178,1.871,1.8386,1.8063,1.8169,1.8918,1.8376,1.8069,1.8217,1.7903,1.7675,1.7615,1.7608,1.7608,1.7608,1.7608,1.7608,1.7608,1.7776,1.8261,1.902,1.9665,2.1084,0.9908,0.9859,0.9997,1.0529,1.1016,1.1607,1.2554,1.3168,1.3818,1.4809,1.4856,1.4823,1.5231,1.5287,1.5267,1.5297,1.5752,1.6032,1.5828,1.5961,1.6032,1.5828,1.5808,1.5808,1.5808,1.5808,1.5808,1.5808,1.5808,1.5808,1.5808,1.5808,1.5808,1.5808,1.5808,1.5808,1.5808,1.5808,1.5808,1.5808,1.5808,1.5808,1.5808,1.5808,1.5808,1.5808,1.5808,1.5808,1.5808,1.5808,1.6005,1.6304,1.6333,1.6426,1.654,1.6625,1.6587,1.6506,1.6357,1.6297,1.627,1.6059,1.5901,1.5861,1.621,1.6417,1.6618,1.6919,1.7207,1.7434,1.7434,1.7521,1.7608,1.7608,1.7608,1.7642,1.7742,1.9318,2.1179,2.2796,2.2296,2.2278,2.4452,2.3463,2.283,2.4138,2.465,2.424,2.2454,1.9523,1.7842,1.8451,1.8189,1.8276,1.8993,1.8531,1.8269,1.8477,1.8036,1.7822,1.7936,1.7735,1.7642,1.7762,1.7769,1.7769,1.7769,1.8042,1.842,1.8819,1.9715,2.0797,0.8891,0.9456,1.013,0.9812,1.1136,1.2667,1.3209,1.3927,1.4721,1.5521,1.5351,1.5227,1.5708,1.5398,1.524,1.5721,1.5808,1.5808,1.5808,1.5808,1.5808,1.5808,1.5808,1.5808,1.5808,1.5808,1.5808,1.5808,1.5808,1.5808,1.5808,1.5808,1.5808,1.5808,1.5808,1.5808,1.5808,1.5808,1.5808,1.5808,1.5808,1.5808,1.5808,1.5808,1.5808,1.5808,1.5808,1.5808,1.5808,1.5808,1.5985,1.6237,1.5941,1.6019,1.623,1.5959,1.6025,1.6257,1.6257,1.6257,1.6257,1.6257,1.6052,1.5855,1.6152,1.629,1.6391,1.6627,1.6966,1.7239,1.7239,1.7408,1.7608,1.7608,1.7608,1.7662,1.7916,1.9304,2.1023,2.2825,2.2311,2.1826,2.261,2.19,2.1391,2.1808,2.1802,2.1841,2.2052,1.9478,1.7862,1.839,1.8217,1.819,1.8504,1.8504,1.8504,1.8524,1.8223,1.8183,1.8477,1.7936,1.7769,1.8056,1.8063,1.8063,1.8063,1.8357,1.8272,1.7859,1.9261,1.9923,0.9272,0.9265,0.9527,0.9923,1.1384,1.3002,1.3989,1.4367,1.4554,1.4741,1.5228,1.5655,1.5781,1.5708,1.5661,1.5781,1.5808,1.5808,1.5808,1.5808,1.5808,1.5808,1.5808,1.5808,1.5808,1.5808,1.5808,1.5808,1.5808,1.5808,1.5808,1.5808,1.5808,1.5808,1.5808,1.5808,1.5808,1.5808,1.5808,1.5808,1.5808,1.5808,1.5808,1.5808,1.5808,1.5808,1.5808,1.5808,1.5808,1.5808,1.5841,1.5939,1.6112,1.6072,1.5921,1.6112,1.6072,1.5901,1.5901,1.5901,1.5901,1.5901,1.5855,1.5815,1.5881,1.6246,1.6627,1.6687,1.7081,1.7515,1.7515,1.7561,1.7608,1.7608,1.7608,1.7628,1.7669,1.8367,1.9443,2.0968,2.1461,2.1564,2.149,2.1961,2.2557,2.3183,2.2647,2.2091,2.1825,1.9518,1.7969,1.8103,1.829,1.851,1.8776,1.8617,1.8591,1.879,1.8557,1.8424,1.849,1.8116,1.8063,1.839,1.8397,1.8397,1.8397,1.8464,1.8857,1.9555,1.8796,2.0028,0.8985,0.9001,0.9451,1.0472,1.1768,1.3058,1.4075,1.4422,1.4541,1.4703,1.5204,1.5641,1.5781,1.5808,1.5808,1.5808,1.5808,1.5808,1.5808,1.5808,1.5808,1.5808,1.5808,1.5808,1.5808,1.5808,1.5808,1.5808,1.5808,1.5808,1.5808,1.5675,1.5601,1.5601,1.5601,1.5601,1.5601,1.5735,1.5808,1.5808,1.5668,1.5601,1.5601,1.5741,1.5808,1.5808,1.5808,1.5808,1.5808,1.5808,1.5808,1.5821,1.5999,1.5941,1.5821,1.6005,1.5941,1.5808,1.5808,1.5808,1.5808,1.5808,1.5808,1.5828,1.5999,1.6159,1.6288,1.646,1.6745,1.6979,1.6979,1.7193,1.7401,1.7401,1.7508,1.7608,1.7608,1.8063,1.894,2.0416,2.1193,2.1457,2.0991,2.1094,2.1552,2.2602,2.2333,2.1983,2.1898,2.02,1.875,1.807,1.8409,1.8704,1.8718,1.8704,1.8824,1.9118,1.8731,1.8617,1.8926,1.8596,1.8509,1.8698,1.9396,1.9396,1.8698,1.9396,1.951,1.9092,1.8333,1.9331,0.8607,0.8871,0.9624,1.1059,1.2051,1.2931,1.3761,1.4141,1.4427,1.4772,1.5106,1.5398,1.5608,1.5655,1.5655,1.5655,1.5655,1.5655,1.5655,1.5701,1.5728,1.5728,1.5775,1.5808,1.5808,1.5808,1.5808,1.5808,1.5808,1.5781,1.5735,1.5524,1.5378,1.5324,1.5317,1.5317,1.5317,1.5558,1.5655,1.5655,1.5438,1.5351,1.5404,1.5621,1.5761,1.5808,1.5808,1.5808,1.5808,1.5808,1.5808,1.5808,1.5808,1.5808,1.5808,1.5808,1.5808,1.5808,1.5808,1.5808,1.5808,1.5808,1.5808,1.5848,1.6119,1.6059,1.5935,1.623,1.633,1.6371,1.6371,1.6772,1.7199,1.7199,1.7394,1.7622,1.7649,1.8096,1.8878,2.015,2.0803,2.112,2.1085,2.0291,2.0153,2.1507,2.1702,2.1784,2.2003,2.0947,1.9616,1.8151,1.8543,1.8796,1.8584,1.8756,1.9052,1.9381,1.894,1.8886,1.9374,1.9132,1.8998,1.8998,2.0167,2.0195,1.8998,2.0145,1.9985,1.8537,1.8225,1.8948,0.8833,0.9178,0.9913,1.1106,1.1897,1.2532,1.318,1.3534,1.3827,1.4142,1.4658,1.5053,1.5093,1.5099,1.5099,1.5099,1.5099,1.5099,1.5099,1.532,1.5451,1.5451,1.5655,1.5808,1.5808,1.5808,1.5808,1.5808,1.5808,1.5695,1.5471,1.5418,1.5284,1.5053,1.5046,1.5046,1.5046,1.5086,1.5099,1.5099,1.5059,1.518,1.5398,1.5438,1.5591,1.5808,1.5808,1.5808,1.5808,1.5808,1.5808,1.5808,1.5808,1.5808,1.5808,1.5808,1.5808,1.5808,1.5808,1.5808,1.5808,1.5808,1.5808,1.5815,1.5855,1.6039,1.6244,1.6284,1.6478,1.6647,1.6647,1.6926,1.7199,1.7199,1.7394,1.7655,1.7896,1.825,1.862,1.9058,1.9201,1.9962,2.2226,2.1171,2.0402,2.1523,2.1702,2.1718,2.1742,2.1001,1.9829,1.8178,1.8543,1.8883,1.8843,1.8876,1.9052,1.9381,1.9321,1.9314,1.9395,1.9361,1.9334,1.9334,1.953,1.953,1.9334,1.9238,1.9752,2.0724,1.9168,2.0532,0.8837,0.9105,0.9618,1.0465,1.1239,1.1946,1.2565,1.3047,1.342,1.3567,1.3935,1.4376,1.4892,1.5008,1.5008,1.5008,1.5008,1.5008,1.5008,1.5233,1.5337,1.5193,1.5558,1.5741,1.5581,1.5708,1.5808,1.5808,1.5655,1.5531,1.5404,1.5084,1.4843,1.4716,1.4716,1.4716,1.4716,1.4899,1.4899,1.4716,1.4905,1.5053,1.518,1.5317,1.5558,1.5808,1.5808,1.5808,1.5808,1.5808,1.5808,1.5808,1.5808,1.5808,1.5808,1.5808,1.5808,1.5808,1.5808,1.5808,1.5808,1.5808,1.5808,1.5808,1.5808,1.5895,1.6025,1.6025,1.6088,1.6195,1.6195,1.656,1.6926,1.6926,1.7274,1.7709,1.819,1.8397,1.9112,2.1231,2.0814,2.0785,2.2836,2.1522,2.0359,2.0747,2.1323,2.1423,2.0615,2.1029,2.0525,1.8239,1.8543,1.8896,1.8896,1.9078,1.9225,1.9388,1.9395,1.9395,1.9395,1.9395,1.9395,1.9395,2.0199,2.0234,1.9395,1.9891,2.0061,1.99,1.9804,2.1175,0.8791,0.8951,0.9244,0.9845,1.0539,1.1232,1.1837,1.2438,1.2893,1.2966,1.3193,1.362,1.4404,1.4658,1.4765,1.4765,1.4765,1.4765,1.4765,1.499,1.5097,1.4899,1.5297,1.5524,1.5327,1.5484,1.5611,1.5611,1.5404,1.5257,1.5177,1.4734,1.4467,1.4387,1.4387,1.4387,1.4387,1.4651,1.4651,1.4387,1.4658,1.4839,1.5015,1.5213,1.5484,1.5808,1.5808,1.5808,1.5808,1.5808,1.5808,1.5808,1.5808,1.5808,1.5808,1.5808,1.5808,1.5808,1.5808,1.5808,1.5808,1.5808,1.5808,1.5808,1.5808,1.5808,1.5808,1.5808,1.5861,1.5939,1.5939,1.638,1.6846,1.6846,1.7208,1.7776,1.8357,1.8611,1.9745,2.3138,2.2413,2.1652,2.3042,2.1737,2.0556,2.0646,2.1302,2.1562,2.0877,2.1548,2.1207,1.8881,1.8806,1.9093,1.9545,1.9462,1.9562,1.9953,1.962,1.9395,1.9395,1.9758,1.9786,1.9395,2.123,2.1259,1.9395,2.0628,2.0674,1.9602,2.051,2.1884,0.8791,0.8804,0.8971,0.9573,0.9947,1.0325,1.0929,1.1534,1.2035,1.2291,1.2604,1.2938,1.324,1.3761,1.4156,1.4156,1.4156,1.4156,1.4156,1.4382,1.4541,1.4521,1.4839,1.5048,1.5013,1.5019,1.5033,1.5033,1.5019,1.4885,1.4561,1.4514,1.4374,1.4122,1.4129,1.4129,1.4129,1.4143,1.4143,1.4129,1.4143,1.4444,1.5008,1.4999,1.532,1.5808,1.5808,1.5808,1.5808,1.5808,1.5808,1.5808,1.5808,1.5808,1.5808,1.5808,1.5808,1.5808,1.5808,1.5808,1.5808,1.5808,1.5808,1.5808,1.5808,1.5808,1.5808,1.5808,1.6032,1.6277,1.6277,1.6712,1.7179,1.7179,1.7388,1.7776,1.8357,1.896,2.0221,2.3207,2.2573,2.1859,2.2782,2.1946,2.1378,2.2084,2.2118,2.2568,2.3877,2.292,2.1663,2.05,1.9494,1.9587,2.1314,2.0192,2.0011,2.1394,2.017,1.9395,1.9395,2.073,2.0838,1.9424,2.2209,2.2266,1.9395,2.0852,2.1527,2.1471,2.1512,2.3115,0.8791,0.8791,0.8891,0.9285,0.9619,0.9947,1.0325,1.0758,1.1142,1.142,1.1862,1.229,1.2572,1.312,1.3587,1.3754,1.378,1.3847,1.4062,1.4335,1.4427,1.4262,1.4691,1.4912,1.4696,1.4872,1.5008,1.5008,1.4805,1.4629,1.4507,1.4141,1.3887,1.3787,1.36,1.3614,1.378,1.3988,1.4109,1.4088,1.4275,1.4476,1.4689,1.507,1.5351,1.5541,1.5728,1.5808,1.5808,1.5808,1.5808,1.5808,1.5808,1.5808,1.5808,1.5808,1.5808,1.5808,1.5808,1.5808,1.5808,1.5808,1.5808,1.5808,1.5808,1.5808,1.5848,1.6059,1.6217,1.6344,1.6506,1.6872,1.7246,1.7408,1.7662,1.7962,1.8404,1.8804,2.0025,2.3195,2.2617,2.1943,2.3042,2.1931,2.0657,1.9954,2.099,2.1532,2.0685,2.1468,2.1415,1.9661,1.9127,1.9266,2.012,1.97,1.962,2.0141,1.97,1.9395,1.9395,2.0809,2.1358,2.0809,2.3746,2.3335,1.9395,2.0895,2.1116,2.0227,2.2125,2.3599,0.8791,0.8791,0.8838,0.9018,0.9231,0.9466,0.9738,1.0053,1.0363,1.0641,1.1179,1.1654,1.1824,1.2253,1.2786,1.336,1.348,1.3547,1.3768,1.3955,1.402,1.3948,1.4282,1.4482,1.4382,1.4578,1.4651,1.4551,1.4314,1.4201,1.4201,1.372,1.348,1.348,1.3293,1.3287,1.3453,1.3694,1.3841,1.3941,1.4114,1.4307,1.4514,1.4923,1.5211,1.5398,1.5498,1.5628,1.5808,1.5808,1.5808,1.5808,1.5808,1.5808,1.5808,1.5808,1.5808,1.5808,1.5808,1.5808,1.5808,1.5808,1.5808,1.5808,1.5808,1.5808,1.5848,1.6072,1.629,1.644,1.6533,1.6879,1.7273,1.7541,1.7742,1.7949,1.8249,1.8623,1.9864,2.3171,2.3011,2.2532,2.314,2.2399,2.1162,1.9505,2.0944,2.1703,2.0249,2.1374,2.1588,1.9766,1.9166,1.943,2.0766,1.9953,1.9815,2.0816,1.996,1.9395,1.9395,2.1448,2.226,2.1614,2.4716,2.427,2.0148,2.2145,2.2089,2.0206,2.3187,2.4917,0.0,0.0,0.0,0.8791,0.8791,0.8865,0.9124,0.9438,0.9754,1.0012,1.0555,1.0955,1.0962,1.1192,1.1773,1.2933,1.3166,1.3186,1.3206,1.3193,1.3293,1.3553,1.3586,1.372,1.4035,1.4062,1.3941,1.3613,1.3586,1.3586,1.3586,1.3333,1.3173,1.3167,1.3173,1.32,1.32,1.3206,1.3333,1.36,1.36,1.3906,1.4487,1.4494,1.483,1.5357,1.5106,1.5307,1.5781,1.5788,1.5795,1.5808,1.5808,1.5808,1.5808,1.5808,1.5808,1.5808,1.5808,1.5808,1.5808,1.5808,1.5808,1.5808,1.5808,1.5808,1.5808,1.5815,1.6228,1.6633,1.6391,1.6777,1.7286,1.7541,1.7608,1.7669,1.7949,1.8504,1.9899,2.3155,2.373,2.3516,2.2998,2.3299,2.2969,2.0996,2.2118,2.3187,2.322,2.2907,2.2253,2.1042,1.9724,2.021,2.3462,2.1074,2.063,2.3543,2.1016,1.9395,1.9395,2.2684,2.3605,2.1714,2.5047,2.5121,2.1701,2.4644,2.4525,2.1671,2.4674,2.7093,0.8791,0.0,0.0,0.0,0.0,0.0,0.8898,0.8978,0.9132,0.9397,0.9765,1.0122,1.0305,1.0775,1.1223,1.155,1.2138,1.2705,1.3146,1.3193,1.322,1.33,1.3307,1.334,1.3447,1.3454,1.342,1.332,1.3307,1.3307,1.3307,1.3059,1.2791,1.2559,1.2785,1.2911,1.2911,1.3093,1.3333,1.36,1.36,1.38,1.4215,1.4401,1.4587,1.477,1.4926,1.5079,1.524,1.5431,1.5615,1.5808,1.5808,1.5808,1.5808,1.5808,1.5808,1.5808,1.5808,1.5808,1.5808,1.5808,1.5808,1.5808,1.5808,1.5808,1.5848,1.6086,1.629,1.6498,1.6871,1.7207,1.7508,1.7588,1.7608,1.7669,1.7949,1.9158,2.0873,2.3067,2.1936,2.1089,2.2631,2.1282,2.013,2.0636,2.1759,2.2825,2.3547,2.3313,2.2649,2.1519,2.013,2.005,2.2053,2.0479,2.0206,2.2089,2.0429,1.9395,1.9395,2.2684,2.4232,2.3707,2.7072,2.7217,2.4,2.4626,2.3796,2.1671,2.4674,2.6944,0.0,0.0,0.8791,0.8791,0.0,0.0,0.8791,0.8791,0.8838,0.8998,0.9278,0.9538,0.969,1.0134,1.0488,1.0608,1.1179,1.1784,1.236,1.2572,1.2699,1.2819,1.2939,1.3086,1.32,1.3193,1.316,1.3046,1.3039,1.2959,1.2839,1.2817,1.265,1.2311,1.249,1.2596,1.2596,1.2758,1.3027,1.342,1.342,1.366,1.4116,1.4262,1.4381,1.4501,1.4598,1.4758,1.4992,1.501,1.5248,1.5628,1.5628,1.5695,1.5808,1.5808,1.5808,1.5808,1.5808,1.5808,1.5808,1.5808,1.5808,1.5808,1.5808,1.5808,1.5841,1.6039,1.6203,1.6464,1.7173,1.7394,1.7454,1.7582,1.7608,1.7629,1.7789,1.9208,2.1025,2.3023,2.223,2.1626,2.2882,2.1258,2.0059,2.0811,2.2061,2.3139,2.3711,2.3585,2.2982,2.1734,2.0285,2.0263,2.2343,2.0594,2.0292,2.2399,2.0657,1.9522,1.9401,2.2983,2.4824,2.4517,2.6763,2.7009,2.5147,2.5435,2.4996,2.3955,2.6195,2.7826,0.0,0.0,0.0,0.8791,0.8818,0.0,0.8804,0.8818,0.8831,0.8798,0.8984,0.915,0.915,0.9418,0.9719,0.9965,1.0283,1.0697,1.1272,1.1637,1.1935,1.2171,1.2457,1.2744,1.2986,1.2993,1.2899,1.2656,1.2636,1.2504,1.2218,1.247,1.2529,1.2265,1.2258,1.2271,1.2305,1.2305,1.2605,1.3193,1.3193,1.352,1.4109,1.4055,1.4195,1.4434,1.4162,1.4377,1.4872,1.4583,1.4836,1.5398,1.5398,1.5548,1.5808,1.5808,1.5808,1.5808,1.5808,1.5808,1.5808,1.5808,1.5808,1.5808,1.5808,1.5808,1.5808,1.5808,1.6046,1.6484,1.7301,1.7347,1.7273,1.7541,1.7608,1.7608,1.7608,1.893,2.0693,2.2668,2.3266,2.3405,2.334,2.2173,2.123,2.1193,2.2645,2.3836,2.4044,2.3905,2.3291,2.1975,2.0371,2.0601,2.3543,2.1296,2.0902,2.3692,2.1503,1.992,1.9455,2.3408,2.5273,2.4584,2.5457,2.5884,2.5817,2.651,2.7063,2.747,2.8458,2.915,0.8791,0.8791,0.8791,0.8791,0.8958,0.0,0.8844,0.8958,0.9064,0.8838,0.8838,0.8878,0.8878,0.9104,0.9317,0.9371,0.9659,1.0156,1.0962,1.1312,1.1513,1.1573,1.1633,1.1686,1.1753,1.1759,1.1733,1.1673,1.1666,1.1639,1.1586,1.1633,1.177,1.1969,1.1986,1.2082,1.2298,1.2305,1.2605,1.3193,1.3193,1.352,1.4082,1.382,1.3867,1.4155,1.3834,1.3907,1.4277,1.4216,1.4656,1.5398,1.5398,1.5548,1.5808,1.5808,1.5808,1.5808,1.5808,1.5808,1.5808,1.5808,1.5808,1.5808,1.5808,1.5808,1.5808,1.5808,1.6046,1.6391,1.6774,1.704,1.7273,1.7541,1.7608,1.7608,1.7608,1.901,2.0397,2.0818,2.1029,2.1507,2.265,2.0771,1.9556,2.0931,2.2466,2.3993,2.5445,2.4571,2.3682,2.3403,2.0988,2.0601,2.3543,2.2476,2.2379,2.4089,2.2889,2.1425,1.9785,2.3436,2.5351,2.4978,2.6878,2.7845,2.7845,2.6165,2.6805,2.9574,2.9111,2.915,0.8791,0.8791,0.8791,0.8791,0.8905,0.0,0.0,0.8905,0.8998,0.8998,0.8898,0.8838,0.8985,0.8998,0.8998,0.8998,0.9258,0.9598,1.0045,1.0479,1.0752,1.0752,1.0902,1.0995,1.0995,1.0995,1.1056,1.1196,1.1326,1.1406,1.1406,1.1406,1.1546,1.1893,1.1906,1.2029,1.2298,1.2305,1.2605,1.3206,1.3053,1.3307,1.384,1.3687,1.3686,1.3847,1.3847,1.3948,1.4109,1.4109,1.4522,1.5186,1.5017,1.5294,1.5788,1.5641,1.5681,1.5808,1.5808,1.5808,1.5808,1.5808,1.5808,1.5808,1.5808,1.5808,1.5835,1.6012,1.6159,1.6397,1.6839,1.7066,1.7273,1.7541,1.7608,1.7608,1.7608,1.8957,2.02,2.02,2.0255,2.06,2.154,1.9928,1.9098,2.0881,2.2438,2.3781,2.4832,2.4267,2.3515,2.2786,2.0845,2.0516,2.2705,2.2618,2.2707,2.335,2.3094,2.204,2.0087,2.3691,2.607,2.6721,2.7825,2.8388,2.8388,2.7207,2.7561,2.9301,2.9476,2.9678,0.8791,0.8791,0.8791,0.8791,0.8838,0.8865,0.0,0.0,0.0,0.9091,0.8958,0.8865,0.9084,0.8951,0.8791,0.8731,0.8951,0.9111,0.9051,0.9518,0.9892,1.0005,1.0263,1.0425,1.0425,1.0425,1.0546,1.0802,1.1026,1.1179,1.1239,1.1246,1.1396,1.1725,1.1775,1.1942,1.2218,1.2271,1.2579,1.312,1.2904,1.3052,1.352,1.352,1.3547,1.3613,1.3834,1.3981,1.4082,1.4021,1.437,1.4879,1.4616,1.5034,1.5768,1.5504,1.5578,1.5808,1.5808,1.5808,1.5808,1.5808,1.5808,1.5808,1.5808,1.5808,1.5855,1.6119,1.625,1.6417,1.6953,1.7159,1.7273,1.7541,1.7608,1.7608,1.7608,1.865,1.963,1.9696,1.9659,1.9839,2.0539,1.942,1.8954,2.0527,2.2281,2.339,2.3382,2.3627,2.3235,2.1756,2.0473,2.0479,2.2318,2.2907,2.3255,2.3503,2.361,2.2778,2.0831,2.4067,2.6854,2.8842,2.8881,2.8881,2.8881,2.8881,2.8881,2.8902,2.9805,3.0244,0.8791,0.8791,0.8791,0.8791,0.8978,0.9098,0.8851,0.0,0.9098,0.8885,0.0,0.8804,0.8838,0.0,0.0,0.8489,0.8664,0.8764,0.8523,0.8751,0.9152,0.9687,0.9781,0.9794,0.9794,0.9794,0.9921,1.0179,1.0232,1.0381,1.0673,1.0687,1.0827,1.1082,1.1326,1.1617,1.1935,1.2171,1.2484,1.2857,1.2804,1.2965,1.324,1.324,1.338,1.3593,1.3387,1.3607,1.4089,1.378,1.402,1.4547,1.4514,1.5034,1.5768,1.5504,1.5578,1.5808,1.5808,1.5808,1.5808,1.5808,1.5808,1.5808,1.5808,1.5808,1.5815,1.5848,1.6072,1.6371,1.6673,1.6979,1.7273,1.7541,1.7608,1.7608,1.7608,1.7741,1.7947,1.8198,1.8056,1.8461,2.0205,1.9163,1.8311,1.9057,2.1579,2.3006,2.1994,2.2983,2.3235,2.1756,2.0313,2.0736,2.3942,2.4581,2.5511,2.71,2.6239,2.4801,2.2854,2.4635,2.7201,3.0548,3.0606,3.0606,3.0606,3.0606,3.0606,3.0597,3.0324,3.042,0.8791,0.8791,0.8791,0.8791,0.8885,0.8931,0.8824,0.8885,0.8978,0.9024,0.0,0.0,0.0,0.0,0.0,0.0,0.8731,0.8764,0.8657,0.8731,0.8898,0.9145,0.9178,0.9178,0.9178,0.9311,0.9458,0.957,0.9905,1.0158,1.0294,1.0483,1.0727,1.0982,1.1259,1.1553,1.1899,1.2176,1.247,1.2803,1.261,1.2664,1.2965,1.2965,1.3026,1.3153,1.334,1.358,1.3814,1.386,1.4127,1.4481,1.4335,1.4803,1.5545,1.5273,1.5438,1.5808,1.5808,1.5808,1.5808,1.5808,1.5808,1.5808,1.5808,1.5808,1.5841,1.6039,1.6203,1.6404,1.6872,1.708,1.7273,1.7541,1.7608,1.7608,1.7608,1.8364,1.8849,1.8151,1.8704,1.9223,1.9079,1.8469,1.8163,1.8611,2.0635,2.1694,2.0465,2.1622,2.1955,2.0479,1.9908,2.0684,2.3249,2.4638,2.5788,2.6696,2.6295,2.5637,2.4832,2.6363,2.8373,3.085,3.0889,3.0889,3.0889,3.0889,3.0889,3.0889,3.0693,3.0703,0.8275,0.8385,0.8494,0.8494,0.8646,0.8791,0.8791,0.8791,0.8858,0.9051,0.8945,0.0,0.0,0.0,0.8784,0.8704,0.0,0.8778,0.8697,0.8758,0.8791,0.8791,0.8791,0.8791,0.8791,0.8971,0.9124,0.919,0.9698,1.0018,1.0098,1.0416,1.0687,1.0885,1.1219,1.1513,1.1768,1.2118,1.243,1.2656,1.2423,1.2437,1.2663,1.2769,1.2803,1.283,1.33,1.3533,1.362,1.3854,1.4142,1.4382,1.4168,1.4598,1.5273,1.5066,1.5284,1.5695,1.5775,1.5808,1.5808,1.5808,1.5808,1.5808,1.5808,1.5808,1.5848,1.6092,1.629,1.6518,1.6946,1.7199,1.7347,1.7555,1.7608,1.7608,1.7608,1.8557,1.9131,1.8185,1.8978,1.9428,1.8212,1.8089,1.8216,1.8457,2.0036,2.073,1.955,2.0702,2.1031,1.9562,1.9582,2.0501,2.2528,2.4391,2.5608,2.5982,2.6401,2.647,2.6006,2.7563,2.9187,3.0859,3.0889,3.0889,3.0889,3.0889,3.0889,3.0889,3.0889,3.0889,0.6965,0.7337,0.7737,0.7737,0.8275,0.8791,0.8791,0.8791,0.8798,0.8804,0.8798,0.8798,0.8804,0.8798,0.8717,0.0,0.8637,0.0,0.0,0.8631,0.8791,0.8791,0.8791,0.8791,0.8791,0.8818,0.8925,0.9177,0.9526,0.982,1.0085,1.0416,1.0593,1.0606,1.1129,1.1412,1.1426,1.1993,1.2305,1.2318,1.2305,1.2305,1.2325,1.265,1.2803,1.2823,1.3086,1.3367,1.36,1.3613,1.3814,1.4102,1.4088,1.4471,1.4999,1.4992,1.518,1.5451,1.5708,1.5808,1.5808,1.5808,1.5808,1.5808,1.5808,1.5808,1.5808,1.5815,1.6228,1.6693,1.6714,1.7141,1.7595,1.7608,1.7608,1.7608,1.7608,1.7641,1.7735,1.7962,1.805,1.8056,1.8022,1.8263,1.8477,1.849,2.0001,2.0695,1.955,2.0702,2.1031,1.9562,1.9401,2.0302,2.2513,2.4197,2.5364,2.5965,2.7473,2.7623,2.6067,2.7563,2.9187,3.0859,3.0889,3.0889,3.0889,3.0889,3.0889,3.0889,3.0889,3.0889,0.7732,0.8023,0.8293,0.8879,0.9038,0.9064,0.9064,0.8931,0.8791,0.8791,0.8791,0.8791,0.8791,0.8791,0.8778,0.0,0.8744,0.8771,0.0,0.8744,0.8791,0.8791,0.8791,0.8791,0.8791,0.8791,0.8831,0.8931,0.9211,0.9505,0.9813,1.0107,1.037,1.0586,1.1122,1.1406,1.1406,1.1993,1.2305,1.2305,1.2305,1.2305,1.2305,1.2423,1.2596,1.281,1.2898,1.3186,1.36,1.36,1.3794,1.4109,1.4109,1.423,1.4451,1.4845,1.5271,1.5675,1.5775,1.5808,1.5808,1.5808,1.5808,1.5808,1.5808,1.5941,1.6166,1.6353,1.6693,1.7073,1.726,1.7461,1.7608,1.7608,1.7608,1.7608,1.7608,1.8304,1.8729,1.8117,1.891,1.9362,1.8474,1.8744,1.8966,1.8551,1.9343,1.9836,1.9439,1.9844,1.9953,1.9453,1.9395,2.0289,2.2513,2.5527,2.6926,2.6051,2.8545,2.8822,2.6098,2.8605,3.0333,3.0889,3.0889,3.0889,3.0889,3.0889,3.0889,3.0889,3.0889,3.0889,0.7073,0.7619,0.8063,0.8325,0.8652,0.8888,0.8759,0.86,0.8469,0.842,0.8619,0.8725,0.8454,0.8619,0.8791,0.0,0.0,0.8791,0.0,0.8791,0.8791,0.8791,0.8791,0.8791,0.8791,0.8791,0.8791,0.8791,0.9158,0.9465,0.9687,1.0075,1.0376,1.0586,1.1122,1.1406,1.1406,1.1993,1.2305,1.2305,1.2305,1.2305,1.2305,1.2305,1.2423,1.263,1.2756,1.3046,1.3467,1.3467,1.3707,1.4096,1.3968,1.4055,1.4302,1.4805,1.5331,1.5808,1.5808,1.5808,1.5808,1.5808,1.5808,1.5808,1.5808,1.6039,1.6317,1.6373,1.6785,1.7219,1.7274,1.7454,1.7608,1.7608,1.7608,1.7608,1.7608,1.8271,1.8702,1.8117,1.8876,1.9363,1.8636,1.8891,1.9078,1.8698,1.9058,1.9395,1.9395,1.9395,1.9395,1.9395,1.9395,2.0289,2.2513,2.567,2.6871,2.5261,2.8218,2.8792,2.6098,2.8584,3.0371,3.1113,3.0967,3.0967,3.1113,3.0967,3.0889,3.0889,3.0889,3.0889]},{"header":{"parameterUnit":"m.s-1","parameterCategory":1,"la1":30.6,"la2":29.2853,"lo1":-89.7004,"lo2":-87.6739,"dy":0.0162,"dx":0.0183,"nx":112,"ny":82,"refTime":"2023-09-21T00:00:00:Z","depth":0,"parameterNumber":3,"parameterNumberName":"V-component_of_WINDS"},"data":[0.0,0.0,0.0,0.0,0.0,0.0,0.0,0.0,0.0,0.0,0.0,0.0,0.0,0.0,0.0,0.0,0.0,0.0,0.0,0.0,0.0,0.0,0.0,0.0,0.0,0.0,0.0,0.0,0.0,0.0,0.0,0.0,0.0,0.0,0.0,0.0,0.0,0.0,0.0,0.0,0.0,0.0,0.0,0.0,0.0,0.0,0.0,0.0,0.0,0.0,0.0,0.0,0.0,0.0,0.0,0.0,0.0,0.0,0.0,0.0,0.0,0.0,0.0,0.0,0.0,0.0,0.0,0.0,0.0,0.0,0.0,0.0,0.0,0.0,0.0,0.0,0.0,0.0,0.0,0.0,0.0,0.0,0.0,0.0,0.0,0.0,0.0,0.0,0.0,0.0,1.966,2.2188,2.6734,2.9368,2.8801,2.8994,2.7345,2.3107,0.0,0.0,0.0,0.0,0.0,0.0,0.0,0.0,0.0,0.0,0.0,0.0,0.0,0.0,0.0,0.0,0.0,0.0,0.0,0.0,0.0,0.0,0.0,0.0,0.0,0.0,0.0,0.0,0.0,0.0,0.0,0.0,0.0,0.0,0.0,0.0,0.0,0.0,0.0,0.0,0.0,0.0,0.0,0.0,0.0,0.0,0.0,0.0,0.0,0.0,0.0,0.0,0.0,0.0,0.0,0.0,0.0,0.0,0.0,0.0,0.0,0.0,0.0,0.0,0.0,0.0,0.0,0.0,0.0,0.0,0.0,0.0,0.0,0.0,0.0,0.0,0.0,0.0,0.0,0.0,0.0,0.0,0.0,0.0,0.0,0.0,0.0,0.0,0.0,0.0,0.0,0.0,0.0,0.0,0.0,0.0,0.0,0.0,0.0,0.0,0.0,0.0,0.0,0.0,2.0543,2.5342,2.8096,2.9563,2.9458,2.7976,2.603,2.361,0.0,0.0,0.0,0.0,0.0,0.0,0.0,0.0,0.0,0.0,0.0,0.0,0.0,0.0,0.0,0.0,0.0,0.0,0.0,0.0,0.0,0.0,0.0,0.0,0.0,0.0,0.0,0.0,0.0,0.0,0.0,0.0,0.0,0.0,0.0,0.0,0.0,0.0,0.0,0.0,0.0,0.0,0.0,0.0,0.0,0.0,0.0,0.0,0.0,0.0,0.0,0.0,0.0,0.0,0.0,0.0,0.0,0.0,0.0,0.0,0.0,0.0,0.0,0.0,0.0,0.0,0.0,0.0,0.0,0.0,0.0,0.0,0.0,0.0,0.0,0.0,0.0,0.0,0.0,0.0,0.0,0.0,0.0,0.0,0.0,0.0,0.0,0.0,0.0,0.0,0.0,0.0,0.0,0.0,0.0,0.0,0.0,0.0,0.0,0.0,0.0,0.0,0.0,2.0249,2.2333,2.6195,2.8081,2.9069,2.9069,2.7557,2.5746,2.3729,2.2951,0.0,0.0,0.0,0.0,0.0,0.0,0.0,0.0,0.0,0.0,0.0,0.0,0.0,0.0,0.0,0.0,0.0,0.0,0.0,0.0,0.0,0.0,0.0,0.0,0.0,0.0,0.0,0.0,0.0,0.0,0.0,0.0,0.0,0.0,0.0,0.0,0.0,0.0,0.0,0.0,0.0,0.0,0.0,0.0,0.0,0.0,0.0,0.0,0.0,0.0,0.0,0.0,0.0,0.0,0.0,0.0,0.0,0.0,0.0,0.0,0.0,0.0,0.0,0.0,0.0,0.0,0.0,0.0,0.0,0.0,0.0,0.0,0.0,0.0,0.0,0.0,0.0,0.0,0.0,0.0,0.0,0.0,0.0,0.0,0.0,0.0,0.0,0.0,0.0,0.0,0.0,0.0,0.0,0.0,0.0,0.0,0.0,0.0,0.0,0.0,0.0,0.0,2.2303,2.386,2.6345,2.7799,2.8607,2.8607,2.723,2.557,2.3714,2.2263,0.0,0.0,0.0,0.0,0.0,0.0,0.0,0.0,0.0,0.0,0.0,0.0,0.0,0.0,0.0,0.0,0.0,0.0,0.0,0.0,0.0,0.0,0.0,0.0,0.0,0.0,0.0,0.0,0.0,0.0,0.0,0.0,0.0,0.0,0.0,0.0,0.0,0.0,0.0,0.0,0.0,0.0,0.0,0.0,0.0,0.0,0.0,0.0,0.0,0.0,0.0,0.0,0.0,0.0,0.0,0.0,0.0,0.0,0.0,0.0,0.0,0.0,0.0,0.0,0.0,0.0,0.0,0.0,0.0,0.0,0.0,0.0,0.0,0.0,0.0,0.0,0.0,0.0,0.0,0.0,0.0,0.0,0.0,0.0,0.0,0.0,0.0,0.0,0.0,0.0,0.0,0.0,0.0,0.0,0.0,0.0,0.0,0.0,0.0,0.0,0.0,0.0,2.2388,2.4313,2.639,2.7799,2.8607,2.8607,2.6811,2.5076,2.3684,2.1819,0.0,0.0,0.0,0.0,0.0,0.0,0.0,0.0,0.0,0.0,0.0,0.0,0.0,0.0,0.0,0.0,0.0,0.0,0.0,0.0,0.0,0.0,0.0,0.0,0.0,0.0,0.0,0.0,0.0,0.0,0.0,0.0,0.0,0.0,0.0,0.0,0.0,0.0,0.0,0.0,0.0,0.0,0.0,0.0,0.0,0.0,0.0,0.0,0.0,0.0,0.0,0.0,0.0,0.0,0.0,0.0,0.0,0.0,0.0,0.0,0.0,0.0,0.0,0.0,0.0,0.0,0.0,0.0,0.0,0.0,0.0,0.0,0.0,0.0,0.0,0.0,0.0,0.0,0.0,0.0,0.0,0.0,0.0,0.0,0.0,0.0,0.0,0.0,0.0,0.0,0.0,0.0,0.0,0.0,0.0,0.0,0.0,0.0,0.0,0.0,0.0,0.0,2.2333,2.3785,2.5764,2.6797,2.735,2.735,2.5887,2.4421,2.3112,0.0,0.0,0.0,0.0,0.0,0.0,0.0,0.0,0.0,0.0,0.0,0.0,0.0,0.0,0.0,0.0,0.0,0.0,0.0,0.0,0.0,0.0,0.0,0.0,0.0,0.0,0.0,0.0,0.0,0.0,0.0,0.0,0.0,0.0,0.0,0.0,0.0,0.0,0.0,0.0,0.0,0.0,0.0,0.0,0.0,0.0,0.0,0.0,0.0,0.0,0.0,0.0,0.0,0.0,0.0,0.0,0.0,0.0,0.0,0.0,0.0,0.0,0.0,0.0,0.0,0.0,0.0,0.0,0.0,0.0,0.0,0.0,0.0,0.0,0.0,0.0,0.0,0.0,0.0,0.0,0.0,0.0,0.0,0.0,0.0,0.0,0.0,0.0,0.0,0.0,0.0,0.0,0.0,0.0,0.0,0.0,0.0,0.0,0.0,0.0,0.0,0.0,2.1525,2.2298,2.3366,2.5109,2.5872,2.6273,2.6273,2.487,2.3625,2.2748,0.0,0.0,0.0,0.0,0.0,0.0,0.0,0.0,0.0,0.0,0.0,0.0,0.0,0.0,0.0,0.0,0.0,0.0,0.0,0.0,0.0,0.0,0.0,0.0,0.0,0.0,0.0,0.0,0.0,0.0,0.0,0.0,0.0,0.0,0.0,0.0,0.0,0.0,0.0,0.0,0.0,0.0,0.0,0.0,0.0,0.0,0.0,0.0,0.0,0.0,0.0,0.0,0.0,0.0,0.0,0.0,0.0,0.0,0.0,0.0,0.0,0.0,0.0,0.0,0.0,0.0,0.0,0.0,0.0,0.0,0.0,0.0,0.0,0.0,0.0,0.0,0.0,0.0,0.0,0.0,0.0,0.0,0.0,0.0,0.0,0.0,0.0,0.0,0.0,0.0,0.0,0.0,0.0,0.0,0.0,0.0,0.0,0.0,0.0,0.0,0.0,0.0,2.1525,2.2283,2.3186,2.447,2.5199,2.5588,2.5573,2.3815,2.2688,0.0,0.0,0.0,0.0,0.0,0.0,0.0,0.0,0.0,0.0,0.0,0.0,0.0,0.0,0.0,0.0,0.0,0.0,0.0,0.0,0.0,0.0,0.0,0.0,0.0,0.0,0.0,0.0,0.0,0.0,0.0,0.0,0.0,0.0,0.0,0.0,0.0,0.0,0.0,0.0,0.0,0.0,0.0,0.0,0.0,0.0,0.0,0.0,0.0,0.0,0.0,0.0,0.0,0.0,0.0,0.0,0.0,0.0,0.0,0.0,0.0,0.0,0.0,0.0,0.0,0.0,0.0,0.0,0.0,0.0,0.0,0.0,0.0,0.0,0.0,0.0,0.0,0.0,0.0,0.0,0.0,0.0,0.0,0.0,0.0,0.0,0.0,0.0,0.0,0.0,0.0,0.0,0.0,0.0,0.0,0.0,0.0,0.0,0.0,0.0,0.0,0.0,0.0,2.1525,2.1869,2.2667,2.4399,2.4784,2.4706,2.4238,2.3261,2.2298,2.135,0.0,0.0,0.0,0.0,0.0,0.0,0.0,0.0,0.0,0.0,0.0,0.0,0.0,0.0,0.0,0.0,0.0,0.0,0.0,0.0,0.0,0.0,0.0,0.0,0.0,0.0,0.0,0.0,0.0,0.0,0.0,0.0,0.0,0.0,0.0,0.0,0.0,0.0,0.0,0.0,0.0,0.0,0.0,0.0,0.0,0.0,0.0,0.0,0.0,0.0,0.0,0.0,0.0,0.0,0.0,0.0,0.0,0.0,0.0,0.0,0.0,0.0,0.0,0.0,0.0,0.0,0.0,0.0,0.0,0.0,0.0,0.0,0.0,0.0,0.0,0.0,0.0,0.0,0.0,0.0,0.0,0.0,0.0,0.0,0.0,0.0,0.0,0.0,0.0,0.0,0.0,0.0,0.0,0.0,0.0,0.0,0.0,0.0,0.0,0.0,0.0,0.0,2.1525,2.1695,2.2338,2.4022,2.4201,2.4033,2.3625,2.2797,2.1959,2.1146,0.0,0.0,0.0,0.0,0.0,0.0,0.0,0.0,0.0,0.0,0.0,0.0,0.0,0.0,0.0,0.0,0.0,0.0,0.0,0.0,0.0,0.0,0.0,0.0,0.0,0.0,0.0,0.0,0.0,0.0,0.0,0.0,0.0,0.0,0.0,0.0,0.0,0.0,0.0,0.0,0.0,0.0,0.0,0.0,0.0,0.0,0.0,0.0,0.0,0.0,0.0,0.0,0.0,0.0,0.0,0.0,0.0,0.0,0.0,0.0,0.0,0.0,0.0,0.0,0.0,0.0,0.0,0.0,0.0,0.0,0.0,0.0,0.0,0.0,0.0,0.0,0.0,0.0,0.0,0.0,0.0,0.0,0.0,0.0,0.0,0.0,0.0,0.0,0.0,0.0,0.0,0.0,0.0,0.0,0.0,0.0,0.0,0.0,0.0,0.0,0.0,0.0,2.1615,2.1794,2.2278,2.3565,2.3684,2.364,2.3531,2.2398,2.1665,2.1605,0.0,0.0,0.0,0.0,0.0,0.0,0.0,0.0,0.0,0.0,0.0,0.0,0.0,0.0,0.0,0.0,0.0,0.0,0.0,0.0,0.0,0.0,0.0,0.0,0.0,0.0,0.0,0.0,0.0,0.0,0.0,0.0,0.0,0.0,0.0,0.0,0.0,0.0,0.0,0.0,0.0,0.0,0.0,0.0,0.0,0.0,0.0,0.0,0.0,0.0,0.0,0.0,0.0,0.0,0.0,0.0,0.0,0.0,0.0,0.0,1.7946,1.7256,0.0,0.0,0.0,0.0,0.0,0.0,0.0,0.0,0.0,0.0,0.0,0.0,0.0,0.0,0.0,0.0,0.0,0.0,0.0,0.0,0.0,0.0,0.0,0.0,0.0,0.0,0.0,0.0,0.0,0.0,0.0,0.0,0.0,0.0,0.0,0.0,0.0,0.0,0.0,0.0,2.2254,2.2493,2.2977,2.4246,2.4395,2.3973,2.2987,2.2154,2.147,2.0952,2.0154,0.0,0.0,0.0,0.0,0.0,0.0,0.0,0.0,0.0,0.0,0.0,0.0,0.0,0.0,0.0,0.0,0.0,0.0,0.0,0.0,0.0,0.0,0.0,0.0,0.0,0.0,0.0,0.0,0.0,0.0,0.0,0.0,0.0,0.0,0.0,0.0,0.0,0.0,0.0,0.0,0.0,0.0,0.0,0.0,0.0,0.0,0.0,0.0,0.0,0.0,0.0,0.0,0.0,0.0,0.0,0.0,0.0,0.0,0.0,2.0583,1.9255,0.0,0.0,0.0,0.0,0.0,0.0,0.0,0.0,0.0,0.0,0.0,0.0,0.0,0.0,0.0,0.0,0.0,0.0,0.0,0.0,0.0,0.0,0.0,0.0,0.0,0.0,0.0,0.0,0.0,0.0,0.0,0.0,0.0,0.0,0.0,0.0,0.0,0.0,0.0,0.0,2.2478,2.2957,2.3625,2.4945,2.4784,2.4335,2.367,2.2737,2.1889,2.1221,2.0557,0.0,0.0,0.0,0.0,0.0,0.0,0.0,0.0,0.0,0.0,0.0,0.0,0.0,0.0,0.0,0.0,0.0,0.0,0.0,0.0,0.0,0.0,0.0,0.0,0.0,0.0,0.0,0.0,0.0,0.0,0.0,0.0,0.0,0.0,0.0,0.0,0.0,0.0,0.0,0.0,0.0,0.0,0.0,0.0,0.0,0.0,0.0,0.0,0.0,0.0,0.0,0.0,0.0,2.3822,2.4931,2.5478,2.6268,2.6867,2.7112,2.4187,2.2465,2.1673,2.0991,0.0,0.0,0.0,0.0,0.0,0.0,0.0,0.0,0.0,0.0,0.0,0.0,0.0,0.0,0.0,0.0,0.0,0.0,0.0,0.0,0.0,0.0,2.2667,2.386,2.4118,2.3714,2.2223,0.0,0.0,0.0,0.0,0.0,0.0,0.0,0.0,0.0,0.0,0.0,2.2673,2.3385,2.4298,2.5618,2.5173,2.4724,2.4608,2.343,2.2463,2.1914,2.1131,2.0757,0.0,0.0,0.0,0.0,0.0,0.0,0.0,0.0,0.0,0.0,0.0,0.0,0.0,0.0,0.0,0.0,0.0,0.0,0.0,0.0,0.0,0.0,0.0,0.0,0.0,0.0,0.0,0.0,0.0,0.0,0.0,0.0,1.6669,1.7136,0.0,0.0,0.0,0.0,0.0,0.0,0.0,0.0,0.0,0.0,0.0,0.0,0.0,1.9085,2.1284,2.2524,2.2803,2.2136,2.5517,2.7181,2.7288,2.8554,2.9172,2.9257,2.9879,0.0,2.4871,2.3655,0.0,0.0,0.0,0.0,0.0,0.0,0.0,0.0,0.0,0.0,0.0,0.0,0.0,0.0,0.0,0.0,0.0,0.0,0.0,0.0,0.0,0.0,2.5259,2.6019,2.621,2.6285,2.6626,2.4938,2.3355,2.3355,2.2992,2.2673,0.0,0.0,0.0,0.0,0.0,0.0,2.3236,2.4062,2.4978,2.6318,2.5869,2.5232,2.4649,2.343,2.2658,2.2568,2.1395,2.0967,2.1545,2.1012,0.0,0.0,0.0,0.0,0.0,0.0,0.0,0.0,0.0,0.0,0.0,0.0,0.0,0.0,0.0,0.0,0.0,0.0,0.0,0.0,0.0,0.0,0.0,0.0,0.0,0.0,0.0,0.0,0.0,1.705,1.7303,1.6903,1.7205,1.7411,0.0,0.0,0.0,0.0,0.0,0.0,0.0,0.0,0.0,2.3385,2.2703,2.3518,2.6026,2.8865,2.8947,2.6343,2.8684,3.019,3.0969,3.23,3.2925,3.2951,3.3515,3.2763,3.0919,2.7715,2.542,2.3804,0.0,0.0,0.0,0.0,2.349,2.4863,2.4653,2.5028,2.554,2.5345,0.0,0.0,0.0,0.0,0.0,0.0,0.0,2.4421,2.5551,2.6557,2.7649,2.9028,2.9357,2.9536,3.0208,2.8846,2.7036,2.557,2.5383,2.5087,2.3969,2.2966,0.0,0.0,0.0,2.2876,2.4406,2.527,2.6093,2.7048,2.6876,2.6263,2.5249,2.4624,2.3817,2.2779,2.2399,2.2241,2.2264,2.2227,2.2231,0.0,0.0,0.0,0.0,0.0,0.0,0.0,0.0,0.0,0.0,0.0,0.0,0.0,0.0,0.0,0.0,0.0,0.0,0.0,0.0,0.0,0.0,0.0,0.0,0.0,0.0,0.0,0.0,1.7795,1.8228,1.6863,1.8325,1.9053,0.0,0.0,0.0,0.0,0.0,0.0,2.274,2.5062,2.6426,2.6551,2.6595,2.7903,3.0566,3.4516,3.4679,3.113,3.207,3.323,3.4531,3.5897,3.6305,3.5978,3.6101,3.6036,3.5506,3.114,2.8278,2.6542,2.5693,2.5472,2.5606,2.5438,2.6306,2.7632,2.7797,2.8291,2.8755,2.8068,2.7844,2.7395,2.4953,0.0,0.0,0.0,0.0,2.6488,2.8158,2.9099,3.0044,3.1839,3.2273,3.2407,3.2901,3.2228,3.0746,2.8111,2.7737,2.7333,2.5663,2.4672,0.0,2.4214,2.43,2.4878,2.6289,2.6976,2.76,2.8271,2.798,2.7275,2.6186,2.5731,2.4841,2.3289,2.3204,2.3132,2.2938,2.3122,2.3122,2.2927,0.0,0.0,0.0,0.0,0.0,0.0,0.0,0.0,0.0,0.0,0.0,0.0,0.0,0.0,0.0,0.0,0.0,0.0,0.0,0.0,0.0,0.0,0.0,0.0,0.0,0.0,0.0,0.0,0.0,1.7479,2.0512,0.0,0.0,0.0,0.0,2.437,2.5135,2.6057,2.7213,2.8026,2.8998,3.0197,2.9682,3.067,3.3277,3.7231,3.7863,3.5201,3.5268,3.598,3.7245,3.8593,3.8505,3.7322,3.7784,3.7491,3.6463,3.2841,3.0583,2.9264,2.7959,2.7842,2.8323,2.7677,2.8665,3.0133,2.8966,2.8994,2.9743,3.0883,3.1256,3.0883,2.8893,2.8755,0.0,0.0,2.9235,3.0358,3.1107,3.1795,3.2662,3.4024,3.4338,3.4353,3.4383,3.4354,3.35,3.0821,2.9355,2.8321,2.7585,0.0,2.5708,2.6341,2.6444,2.7163,2.9144,2.9378,2.9609,3.0279,2.9145,2.8095,2.7453,2.6231,2.5219,2.456,2.3387,2.2978,2.3535,2.3023,2.2993,2.3535,2.355,0.0,0.0,0.0,0.0,0.0,0.0,0.0,0.0,0.0,0.0,0.0,0.0,0.0,0.0,0.0,0.0,0.0,0.0,0.0,0.0,0.0,0.0,0.0,0.0,0.0,0.0,0.0,0.0,2.1683,2.4221,0.0,2.4521,2.5043,2.5776,2.6542,2.7973,2.9196,3.0061,3.1973,3.3258,3.3698,3.3517,3.4239,3.5998,3.8253,3.8928,3.8004,3.7137,3.6953,3.7407,3.7884,3.8323,3.8672,3.8269,3.7916,3.7521,3.5943,3.4038,3.2033,3.1106,3.0896,3.1076,3.0836,3.1734,3.3006,3.2557,3.2542,3.2691,3.2273,3.157,3.0732,3.0043,2.9983,3.0223,3.0418,3.1106,3.2033,3.314,3.3604,3.4024,3.4921,3.513,3.513,3.513,3.513,3.4861,3.3903,3.2349,3.0819,2.9707,2.9128,2.8865,2.9022,2.9111,2.9571,3.062,3.0802,3.0936,3.1181,3.0687,2.9908,2.8871,2.7826,2.68,2.5764,2.5153,2.4764,2.4637,2.4417,2.4248,2.4126,2.3773,2.349,0.0,0.0,0.0,0.0,0.0,0.0,0.0,0.0,0.0,0.0,0.0,0.0,0.0,0.0,0.0,0.0,0.0,0.0,0.0,0.0,0.0,0.0,0.0,0.0,0.0,2.3038,2.5067,2.5015,2.7754,2.916,2.7904,2.8768,2.9547,2.9894,3.1329,3.2512,3.3243,3.4688,3.5697,3.6119,3.5719,3.6114,3.7387,3.8739,3.9249,3.8956,3.8424,3.806,3.7867,3.8648,3.9305,3.9823,3.9484,3.9033,3.8507,3.7965,3.6582,3.4756,3.4098,3.3978,3.4097,3.3664,3.4352,3.5461,3.5251,3.5027,3.4652,3.3544,3.2736,3.2153,3.1913,3.2003,3.2287,3.2721,3.317,3.3724,3.4622,3.4832,3.4952,3.5385,3.5685,3.5863,3.5863,3.6085,3.6274,3.6274,3.4635,3.2974,3.2133,3.1791,3.1787,3.2182,3.2105,3.2289,3.3117,3.2847,3.2578,3.2578,3.2051,3.1284,3.0222,2.9171,2.801,2.6709,2.6302,2.5837,2.5237,2.5037,2.4872,2.4746,2.4433,2.4163,2.3928,0.0,0.0,0.0,0.0,0.0,0.0,0.0,0.0,0.0,0.0,0.0,0.0,0.0,0.0,0.0,0.0,0.0,0.0,0.0,0.0,0.0,0.0,0.0,2.2322,2.5547,2.7769,2.7285,3.1013,3.266,3.0178,3.2762,3.4578,3.4578,3.5205,3.5962,3.6841,3.6084,3.6179,3.7422,3.6271,3.6239,3.7531,3.8832,3.9039,3.8195,3.9227,3.9374,3.8801,4.1023,4.1543,4.0687,4.1467,4.088,3.9346,3.8721,3.8063,3.7387,3.6746,3.6866,3.7255,3.5998,3.6327,3.7315,3.6701,3.6073,3.5429,3.4742,3.4982,3.5385,3.4727,3.4981,3.5504,3.5504,3.5504,3.5504,3.5504,3.5521,3.5537,3.5504,3.6086,3.6615,3.6615,3.7234,3.7807,3.7807,3.6058,3.4651,3.4772,3.4258,3.4324,3.5745,3.531,0.0,3.6624,3.5498,3.4567,3.4567,3.3258,3.2139,3.1549,3.0189,2.88,2.7478,2.6762,2.6055,2.5355,2.4789,2.4818,2.5453,2.5587,2.5335,2.4657,0.0,0.0,0.0,0.0,0.0,0.0,0.0,0.0,0.0,0.0,0.0,0.0,0.0,0.0,0.0,0.0,0.0,0.0,0.0,0.0,0.0,2.4053,2.567,2.5532,2.8808,3.1501,3.2344,3.4731,3.6037,3.5353,3.608,3.6596,3.6596,3.7225,3.7995,3.8864,3.8551,3.85,3.8836,3.8504,3.9108,4.0721,4.1101,4.0844,4.0001,4.028,3.9994,3.9259,4.036,4.0446,3.9816,4.1,4.0718,3.9421,3.9738,3.9469,3.8688,3.7122,3.6866,3.7298,3.6507,3.6716,3.7315,3.6701,3.6389,3.6103,3.5429,3.5355,3.5474,3.528,3.5355,3.5504,3.5504,3.5504,3.5504,3.5504,3.5894,3.6149,3.5635,3.6508,3.7323,3.6737,3.7234,3.7807,3.7807,3.7313,3.6905,3.6949,3.6839,3.6887,3.7292,3.7155,3.6979,3.6823,3.644,3.6169,3.6169,3.4804,3.3837,3.3669,3.1826,3.0294,2.9385,2.866,2.8178,2.7961,2.7449,2.7062,2.684,2.6889,2.6599,0.0,0.0,0.0,0.0,0.0,0.0,0.0,0.0,0.0,0.0,0.0,0.0,0.0,0.0,0.0,0.0,0.0,0.0,0.0,0.0,0.0,0.0,2.752,2.9479,3.032,3.2109,3.4023,3.591,3.712,3.7823,3.7823,3.8078,3.8279,3.8358,3.8449,3.9001,4.0219,4.0268,4.034,4.0479,4.0495,4.107,4.2306,4.2333,4.1964,4.1247,4.1609,4.1511,4.106,4.2153,4.2182,4.1496,4.231,4.1992,4.0913,4.1021,4.0836,4.0243,0.0,0.0,0.0,0.0,3.7584,3.7342,3.7,3.6701,3.6389,3.5714,3.5504,3.5504,3.5504,3.5504,3.5554,3.5879,3.5959,3.5959,3.5959,3.6538,3.6904,3.6149,3.7145,3.8133,3.7656,3.8203,3.8764,3.8764,3.8764,0.0,3.8753,3.8508,3.8434,3.8765,3.8565,3.8091,3.7359,3.6987,3.6665,3.6332,3.5227,3.4381,3.4066,3.2588,0.0,0.0,0.0,2.9222,2.8699,2.8637,0.0,0.0,0.0,2.7928,2.7291,2.7928,0.0,0.0,2.6451,2.6474,0.0,0.0,0.0,0.0,0.0,0.0,0.0,0.0,0.0,0.0,0.0,0.0,0.0,0.0,0.0,0.0,3.1249,3.3529,3.5549,3.5311,3.579,3.8108,3.8484,3.8549,3.864,3.9196,3.9659,3.9954,3.9348,3.9672,4.1263,4.1479,0.0,0.0,0.0,4.2382,4.2992,4.3007,4.2718,4.2157,4.3006,4.3343,4.3202,4.4799,4.4977,4.406,4.427,4.3797,4.2861,4.2317,4.2013,4.1629,3.896,3.8601,3.9576,3.9544,3.8787,3.7736,3.7484,0.0,0.0,3.5744,3.5504,3.5521,3.5603,3.5619,3.5782,3.6523,3.6753,3.6753,3.6753,3.7322,3.7733,3.6919,3.7916,3.9002,3.8921,3.9529,4.0096,4.0096,4.0096,4.0096,4.0096,3.9503,3.9276,3.9978,3.9542,3.8865,3.8125,3.7461,3.675,3.5938,3.5199,0.0,3.37,3.2892,3.1826,3.0446,3.0267,2.9724,2.8601,2.9112,2.8917,2.784,2.9006,2.9274,2.8619,2.9274,2.9563,2.9469,2.827,2.8317,0.0,0.0,0.0,0.0,0.0,0.0,0.0,0.0,0.0,0.0,0.0,0.0,0.0,0.0,0.0,3.1322,3.3557,3.5609,3.7554,3.7736,3.7841,3.835,3.8886,3.9488,4.018,4.0372,4.0763,4.15,4.1421,4.1789,4.2808,4.2249,4.2586,4.406,4.3143,4.316,4.4237,4.4252,4.3852,4.3047,4.3822,0.0,4.2301,4.3751,4.3703,4.251,4.3587,4.3361,4.2237,4.2637,4.2173,4.1197,4.1134,4.0926,4.0671,4.0506,4.0279,3.9809,3.8006,3.733,3.7045,3.5893,3.5504,3.5619,3.6212,3.6384,0.0,3.7353,3.7573,3.7573,3.7573,3.8133,3.8497,3.7762,3.8748,3.9688,3.9046,3.9529,4.0096,4.0096,4.0096,4.0096,4.0096,3.9965,3.9927,4.007,3.9977,3.9609,3.887,3.8662,3.829,3.7538,3.6801,3.6028,3.5239,3.3954,3.2814,3.1928,3.1319,3.0881,3.0634,3.0732,3.0693,3.0462,3.0717,3.0544,2.9932,3.0544,3.059,3.0113,2.9374,2.915,0.0,0.0,0.0,0.0,0.0,0.0,0.0,0.0,0.0,0.0,0.0,2.5859,2.7368,0.0,3.248,3.5053,3.6866,3.8287,3.926,3.9776,3.9763,3.8984,3.9582,4.0222,4.0656,4.1097,4.1723,4.2583,4.232,4.2475,4.3306,4.2938,4.31,4.3975,4.3812,4.3979,4.4591,4.4609,4.4384,4.3962,4.4313,4.4088,4.3321,4.4016,4.3981,4.3338,4.4017,4.3918,4.3338,4.3653,4.342,4.2823,4.3171,4.236,4.1038,4.1258,4.1362,4.1139,3.9694,3.8972,3.849,3.7514,3.694,3.6723,3.7085,3.7189,3.7352,3.8133,3.8344,3.8344,3.8344,3.8924,3.9319,3.8525,3.9252,3.9995,3.9597,3.9808,4.0096,4.0096,4.0096,4.0096,4.0096,4.0096,4.0096,4.0096,4.0096,3.9842,3.9102,3.9,3.8594,3.7466,3.7021,3.6327,3.5148,3.3694,3.2537,3.1792,3.1403,3.12,3.12,3.12,3.12,3.12,3.12,3.1055,3.074,3.1055,3.1045,3.074,3.0445,3.0293,0.0,0.0,0.0,0.0,0.0,0.0,0.0,2.3248,2.4774,2.5864,2.7819,2.9909,3.19,3.4023,3.6179,3.8424,3.9694,4.0452,4.0639,4.114,4.1051,3.9846,4.0441,4.095,4.0992,4.1757,4.2549,4.3272,4.2901,4.2944,4.3598,4.3626,4.3626,4.3626,4.4262,4.4615,4.4615,4.4615,4.4615,4.4615,4.4736,4.4736,4.4615,4.4736,4.4736,4.4615,4.4615,4.4615,4.4615,4.4615,4.4615,4.4567,4.4432,4.3186,4.1533,4.2058,4.2252,4.2124,4.1292,4.062,3.9996,3.9321,3.8602,3.8043,3.8201,3.8134,3.8177,3.8924,3.9126,3.9126,3.9126,3.961,3.994,3.9289,3.9741,4.0269,4.013,4.0214,4.0269,4.013,4.0096,4.0096,4.0096,4.0096,4.0096,4.0096,4.0096,3.9893,3.9288,3.922,3.8696,3.7359,3.7088,3.6327,3.4635,3.34,3.2401,3.1664,3.1478,3.142,3.142,3.1285,3.12,3.12,3.12,3.12,3.12,3.12,3.12,3.12,3.12,3.12,1.9254,1.9412,2.0279,2.1945,2.2947,2.4379,0.0,2.9119,2.9877,3.059,3.281,3.4706,3.5009,3.7118,3.9137,4.0038,4.0307,4.0676,4.1443,4.1133,4.0787,4.0752,4.1406,4.19,4.2025,4.2716,4.3221,4.3378,4.3971,4.4364,4.4465,4.4465,4.4465,4.4465,4.455,4.4615,4.4615,4.4615,4.4615,4.4601,4.5263,4.5229,4.4632,4.528,4.5227,4.4615,4.4615,4.4615,4.4615,4.4615,4.4615,4.453,4.3795,4.3377,4.3124,4.3145,4.3154,4.2949,4.1494,4.094,4.078,4.0088,3.9382,3.8909,3.9631,3.9339,3.8935,3.9744,3.9982,3.9982,3.9982,4.0033,4.007,3.9995,4.0527,4.0899,4.0235,4.0608,4.0882,4.0231,4.0096,4.0096,4.0096,4.0096,4.0096,4.0096,4.0096,4.0079,3.9994,3.9977,3.966,3.8848,3.8159,3.6891,3.4686,3.4347,3.3941,3.3203,3.2537,3.2175,3.2175,3.1556,3.12,3.12,3.12,3.12,3.12,3.12,3.12,3.12,3.12,3.12,2.0635,2.164,2.291,2.3688,2.581,2.8121,2.9748,3.1824,3.3604,3.4277,3.6191,3.7761,3.7761,3.8973,4.0083,4.0352,4.1143,4.1725,4.1701,4.1938,4.1817,4.1056,4.1676,4.2005,4.155,4.2629,4.3376,4.3395,4.4161,4.4398,4.3927,4.4347,4.4381,4.3927,4.4364,4.4615,4.4615,4.4615,4.4615,4.4615,4.4905,4.4905,4.4601,4.4922,4.4888,4.4615,4.4615,4.4615,4.4615,4.4615,4.433,4.391,4.4045,4.3795,4.3348,4.2892,4.2997,4.3275,4.2624,4.2406,4.2274,4.1572,4.0829,4.0224,4.0134,4.0163,4.0303,4.0653,4.073,4.0844,4.1267,4.1064,4.0849,4.1284,4.1288,4.1119,4.0798,4.0658,4.0472,4.0163,4.0096,4.0096,4.0096,4.0096,4.0096,4.0096,4.0096,4.0096,4.0096,4.0096,3.9812,3.9085,3.8345,3.7347,3.5955,3.5402,3.4827,3.4083,3.3355,3.2933,3.2933,3.2645,3.2476,3.2476,3.2476,3.2273,3.1843,3.1843,3.1623,3.12,3.12,3.12,2.1994,2.3524,2.5083,2.5995,2.8803,3.1465,3.2033,3.4457,3.6716,3.7195,3.8571,3.9616,3.9436,3.9795,4.0261,4.0686,4.1543,4.213,4.2081,4.2524,4.24,4.121,4.1429,4.1462,4.0812,4.2168,4.3102,4.3102,4.3826,4.4113,4.3744,4.4279,4.433,4.3758,4.4296,4.4615,4.4615,4.4615,4.4615,4.4615,4.4615,4.4615,4.4615,4.4615,4.4615,4.4598,4.4364,4.4279,4.4245,4.4042,4.3741,4.344,4.3822,4.3724,4.3288,4.2337,4.2591,4.3372,4.3169,4.3102,4.3,4.2472,4.1796,4.1102,4.0574,4.0781,4.1204,4.1204,4.1356,4.1627,4.2164,4.1897,4.1644,4.2181,4.2049,4.1749,4.1542,4.1081,4.0641,4.0438,4.0235,4.0096,4.0096,4.0096,4.0096,4.0096,4.0096,4.0096,4.0096,4.0096,3.9812,3.9085,3.8514,3.7905,3.7173,3.6383,3.5707,3.5176,3.4235,3.37,3.37,3.3497,3.3396,3.3396,3.3396,3.3136,3.2605,3.2605,3.2215,3.1505,3.1505,3.1386,2.3191,2.4526,2.6336,2.9535,3.1884,3.3918,3.588,3.7853,3.9287,3.9316,3.9888,4.0172,3.9526,3.9421,3.9922,4.1423,4.1152,4.1295,4.2845,4.2574,4.1967,4.1276,4.0595,4.0151,4.0126,4.1474,4.2333,4.2333,4.3031,4.3775,4.4516,4.4598,4.4598,4.455,4.4598,4.4615,4.4615,4.4615,4.4615,4.4615,4.4615,4.4615,4.4615,4.4615,4.4615,4.455,4.3792,4.344,4.3389,4.2658,4.2777,4.3338,4.2642,4.2794,4.322,4.1766,4.2155,4.3304,4.2574,4.2333,4.2333,4.2317,4.1796,4.1204,4.117,4.1187,4.1204,4.1204,4.1711,4.2266,4.23,4.2283,4.2266,4.23,4.2828,4.3135,4.2422,4.2249,4.2016,4.1305,4.0591,4.0096,4.0096,4.0096,4.0096,4.0096,4.0096,4.0096,4.0096,4.0096,3.9812,3.9085,3.8983,3.8667,3.7939,3.719,3.675,3.6728,3.5312,3.4466,3.4466,3.3778,3.3396,3.3396,3.3396,3.3379,3.3362,3.3362,3.2983,3.2276,3.2276,3.1887,2.5641,2.7844,3.0209,3.3095,3.5295,3.715,3.8721,3.9933,4.0591,4.0157,3.8856,3.7734,3.7509,3.6755,3.6611,3.8069,3.977,4.1078,4.163,4.2444,4.236,4.0662,4.0679,4.0443,3.9474,4.0252,4.1048,4.1525,4.2713,4.3524,4.3792,4.4313,4.4615,4.4615,4.4615,4.4615,4.4615,4.4615,4.4615,4.4615,4.4615,4.4615,4.4615,4.4615,4.4313,4.3792,4.3524,4.3118,4.2642,4.2388,4.2151,4.2002,4.273,4.2577,4.1935,4.1931,4.1931,4.1901,4.166,4.188,4.2232,4.1728,4.1728,4.183,4.1356,4.1884,4.2662,4.2662,4.2831,4.3152,4.3687,4.342,4.3166,4.3704,4.3606,4.3338,4.3085,4.2642,4.2232,4.1978,4.1741,4.1403,4.0899,4.0832,4.0658,4.0168,4.0096,4.0096,4.0096,4.0096,4.0011,3.9757,3.9728,3.9626,3.9389,3.8679,3.8053,3.755,3.6581,3.5785,3.5256,3.4985,3.4867,3.4867,3.4867,3.4613,3.4134,3.3643,3.3271,3.3017,3.252,3.2418,2.8128,3.0567,3.2916,3.5818,3.7659,3.905,4.0157,4.0546,4.0486,3.979,3.7745,3.5922,3.5399,3.398,3.3531,3.554,3.7443,3.9152,4.0497,4.1577,4.18,4.0633,4.0684,4.0544,3.9851,4.0218,4.0679,4.1157,4.2577,4.3524,4.3795,4.433,4.4719,4.499,4.4736,4.4615,4.4615,4.4615,4.4615,4.4615,4.4615,4.4615,4.4584,4.4296,4.3893,4.3372,4.2848,4.2354,4.188,4.1623,4.1403,4.1292,4.2239,4.2188,4.1627,4.183,4.161,4.1157,4.0899,4.1132,4.1437,4.0963,4.1305,4.1813,4.1339,4.2222,4.3406,4.3406,4.3609,4.3944,4.4465,4.4228,4.3961,4.4482,4.4212,4.3826,4.3826,4.3234,4.2692,4.2692,4.2486,4.2151,4.1677,4.1373,4.1035,4.0557,4.0269,4.0096,4.0096,4.0096,4.0096,4.0096,4.0096,4.0096,4.0096,3.9423,3.8802,3.8328,3.7359,3.6564,3.605,3.5752,3.56,3.56,3.56,3.5374,3.4895,3.441,3.4055,3.3778,3.3315,3.3197,3.0613,3.2677,3.4517,3.7721,3.899,3.9616,4.0247,3.9861,3.9098,3.8262,3.6429,3.4545,3.3142,3.1274,3.0947,3.3904,3.4614,3.6046,3.9653,4.0257,4.0565,4.1187,4.07,4.0599,4.1255,4.1416,4.1459,4.1425,4.2689,4.3795,4.4601,4.4685,4.5024,4.5722,4.5041,4.4651,4.4651,4.4632,4.4615,4.4615,4.4615,4.4615,4.4567,4.3775,4.3389,4.3271,4.1816,4.1187,4.1085,4.0388,4.0506,4.1153,4.1187,4.1593,4.2113,4.1441,4.1187,4.1035,4.0337,4.0096,4.0113,4.0146,4.0658,4.1258,4.1292,4.2324,4.3457,4.3457,4.4012,4.4615,4.4615,4.4615,4.4615,4.4615,4.4615,4.4615,4.4615,4.3995,4.3457,4.3457,4.2861,4.2367,4.2367,4.1711,4.1204,4.1204,4.0574,4.0096,4.0096,4.0096,4.0096,4.0096,4.0096,4.0096,4.0096,3.9457,3.9051,3.9,3.7647,3.6834,3.6795,3.6028,3.56,3.56,3.56,3.56,3.56,3.5566,3.5205,3.4567,3.4516,3.415,3.3201,3.5416,3.7584,3.9424,4.0023,4.0187,4.0367,3.9471,3.7933,3.563,3.277,3.024,2.8784,2.9053,3.026,3.2626,3.6197,3.919,4.0704,4.2384,4.3095,4.2117,4.2875,4.3284,4.2882,4.4333,4.507,4.4518,4.4354,4.4618,4.5382,4.594,4.6327,4.6498,4.5805,4.5415,4.5415,4.4871,4.4615,4.4615,4.4615,4.4615,4.4567,4.3775,4.3102,4.2523,4.161,4.0882,4.0371,4.018,4.0214,4.0438,4.0984,4.0984,4.0692,4.1068,4.0849,4.0354,4.018,4.0096,4.0185,4.073,4.1424,4.2117,4.2662,4.3521,4.4296,4.4296,4.4432,4.4615,4.4615,4.4615,4.4615,4.4615,4.4615,4.4615,4.4615,4.4432,4.4296,4.4296,4.3656,4.3118,4.3118,4.2053,4.1204,4.1204,4.0574,4.0096,4.0096,4.0096,4.0096,4.0096,4.0096,4.0096,4.0096,3.9943,3.9592,3.9022,3.8125,3.7376,3.6829,3.6028,3.56,3.56,3.56,3.56,3.56,3.5053,3.4979,3.5306,3.4759,3.4692,3.5828,3.7773,3.9487,4.0322,4.0468,3.9948,3.8215,3.6729,3.4942,3.207,2.9489,2.745,2.651,2.7076,2.8398,3.0616,3.4168,3.7511,3.9901,4.1606,4.289,4.366,4.4508,4.5121,4.5295,4.675,4.7632,4.7532,4.6573,4.6323,4.7076,4.7178,4.7392,4.7715,4.6999,4.6331,4.572,4.528,4.4922,4.4615,4.4615,4.4615,4.4567,4.3775,4.3169,4.2726,4.166,4.0967,4.0557,4.0231,4.0096,4.0146,4.0557,4.0455,4.0146,4.0557,4.0455,4.0096,4.0096,4.0303,4.0658,4.1068,4.1694,4.2439,4.3186,4.3961,4.4615,4.4615,4.4615,4.4615,4.4615,4.4615,4.4615,4.4615,4.4615,4.4615,4.4615,4.4615,4.4615,4.4615,4.4245,4.3927,4.3927,4.2963,4.2053,4.1728,4.1064,4.0472,4.0146,4.0096,4.0096,4.0096,4.0096,4.0096,4.0096,4.0096,3.9926,3.9508,3.8481,3.7719,3.7308,3.6203,3.56,3.56,3.56,3.56,3.56,3.5188,3.5188,3.5583,3.5171,3.5205,3.8166,3.9616,4.0501,4.0811,4.0598,3.931,3.5415,3.3442,3.154,2.8331,2.6684,2.5674,2.5228,2.5398,2.6387,2.8764,3.1092,3.4138,3.8526,3.9863,4.1661,4.5039,4.5705,4.6422,4.7795,4.8786,4.9593,5.0236,4.9086,4.8614,4.916,4.8588,4.8437,4.8882,4.8371,4.732,4.572,4.5888,4.5513,4.4615,4.4685,4.4685,4.4567,4.3775,4.3406,4.3321,4.1935,4.1356,4.1305,4.0658,4.04,4.0371,4.0282,4.0248,4.0218,4.0146,4.0163,4.0231,4.013,4.0658,4.1356,4.1356,4.1847,4.2591,4.3321,4.4045,4.4615,4.4615,4.4615,4.4615,4.4615,4.4615,4.4615,4.4615,4.4615,4.4615,4.4615,4.4615,4.4615,4.4615,4.4615,4.4615,4.4615,4.3842,4.3034,4.2401,4.1593,4.0815,4.018,4.0096,4.0096,4.0096,4.0096,4.0096,4.0096,4.0096,4.0096,4.0096,3.8802,3.8058,3.8058,3.6575,3.5763,3.5763,3.565,3.56,3.56,3.56,3.56,3.56,3.56,3.56,3.9227,4.0078,4.0828,4.1592,4.0832,3.8999,3.5542,3.3414,3.088,2.638,2.5078,2.4373,2.3119,2.4366,2.6547,2.9439,3.2273,3.5464,3.9368,4.1064,4.2576,4.4394,4.6274,4.7749,4.8548,5.0396,5.1598,5.1742,5.1491,5.1158,5.073,5.0606,5.003,4.8931,4.9372,4.8368,4.5734,4.6865,4.6471,4.4615,4.5227,4.5179,4.4567,4.3775,4.3406,4.3355,4.2489,4.21,4.2113,4.1978,4.1927,4.186,4.1255,4.1018,4.0933,4.032,4.0489,4.0916,4.0303,4.098,4.21,4.21,4.2608,4.3355,4.4161,4.4482,4.4615,4.4615,4.4615,4.4615,4.4615,4.4615,4.4615,4.4615,4.4615,4.4615,4.4615,4.4615,4.4615,4.4615,4.4615,4.4615,4.4615,4.3433,4.2452,4.2317,4.1149,4.0235,4.013,4.0096,4.0096,4.0096,4.0096,4.0096,4.0096,4.0096,4.0096,4.0096,3.9288,3.8802,3.8802,3.7376,3.6598,3.6598,3.5932,3.56,3.56,3.56,3.56,3.56,3.56,3.56,4.0669,4.1111,4.1354,4.1961,4.0643,3.8017,3.353,3.0975,2.8344,2.4053,2.3071,2.2852,2.2386,2.3799,2.5744,2.7977,3.0185,3.3224,3.776,3.9583,4.1729,4.5083,4.7472,4.9269,5.0355,5.1789,5.2673,5.2673,5.2673,5.2531,5.2207,5.1838,5.1303,5.0584,5.0576,4.9723,4.7945,4.8194,4.7431,4.5699,4.6021,4.5626,4.4615,4.4604,4.4401,4.3978,4.3217,4.2878,4.2831,4.2455,4.23,4.2232,4.1491,4.1441,4.1644,4.0506,4.0574,4.1153,4.0811,4.1403,4.2367,4.2743,4.3102,4.3558,4.4364,4.4615,4.4615,4.4615,4.4615,4.4615,4.4615,4.4615,4.4615,4.4615,4.4615,4.4615,4.4615,4.4615,4.4615,4.4615,4.4615,4.4615,4.4615,4.3975,4.3213,4.2418,4.169,4.0963,4.0197,4.0096,4.0096,4.0096,4.0096,4.0096,4.0096,4.0096,4.0096,4.0096,3.9406,3.9,3.9,3.7579,3.6795,3.6795,3.6011,3.56,3.56,3.56,3.56,3.56,3.56,3.56,4.1735,4.2108,4.2115,4.2382,4.0436,3.7093,3.1874,2.8818,2.6053,2.2366,2.1681,2.1853,2.2223,2.3241,2.4609,2.6412,2.7723,3.0398,3.5785,3.7851,4.0655,4.5675,4.8357,5.0388,5.1862,5.2729,5.3196,5.3196,5.3196,5.3196,5.3196,5.2651,5.2259,5.2094,5.1734,5.105,5.0021,4.9668,4.8635,4.6942,4.6876,4.6205,4.5041,4.5332,4.5227,4.4752,4.3996,4.366,4.3609,4.3031,4.2689,4.2455,4.1728,4.1694,4.1914,4.076,4.0811,4.1407,4.1255,4.1897,4.2841,4.3068,4.3389,4.3792,4.4415,4.4615,4.4615,4.4615,4.4615,4.4615,4.4615,4.4615,4.4615,4.4615,4.4615,4.4615,4.4615,4.4615,4.4615,4.4615,4.4615,4.4615,4.4615,4.4465,4.3941,4.2709,4.2269,4.1657,4.0472,4.0197,4.0096,4.0096,4.0096,4.0096,4.0096,4.0096,4.0096,4.0096,3.9559,3.9237,3.9237,3.7968,3.719,3.7038,3.6265,3.578,3.56,3.56,3.56,3.56,3.56,3.56,4.1602,4.2676,4.3177,4.3272,4.0613,3.6848,3.2558,2.9068,2.5774,2.2299,2.1935,2.2254,2.2289,2.2405,2.3427,2.6243,2.6818,2.8975,3.4884,3.7478,4.0473,4.4959,4.8057,5.0388,5.1862,5.2729,5.3196,5.3196,5.3196,5.3196,5.3196,5.3143,5.278,5.2124,5.2684,5.2037,5.0021,5.1197,5.0414,4.77,4.7686,4.7248,4.6383,4.523,4.4961,4.5381,4.4756,4.4482,4.4482,4.4415,4.3961,4.3237,4.2489,4.183,4.1275,4.1153,4.1559,4.2113,4.1441,4.2591,4.4161,4.2841,4.3349,4.4499,4.4567,4.4615,4.4615,4.4615,4.4615,4.4615,4.4615,4.4615,4.4615,4.4615,4.4615,4.4615,4.4615,4.4615,4.4615,4.4615,4.4615,4.4615,4.4615,4.3995,4.3457,4.3321,4.2155,4.1255,4.1119,4.0506,4.0096,4.0096,4.0096,4.0096,4.0096,4.0096,4.0096,4.0096,4.0045,3.9994,3.9994,3.9237,3.8481,3.7821,3.7071,3.6332,3.56,3.56,3.56,3.56,3.56,3.56,4.0665,4.1759,4.2051,4.2604,3.9601,3.5628,3.2179,2.8612,2.5273,2.258,2.2173,2.2296,2.2296,2.2296,2.2827,2.4441,2.4712,2.6401,3.1257,3.381,3.7123,4.2376,4.6071,4.8985,5.1075,5.2443,5.3196,5.3196,5.3196,5.3196,5.3196,5.3196,5.3071,5.2769,5.306,5.278,5.1923,5.2003,5.1269,4.9713,4.9285,4.8433,4.7239,4.6704,4.6102,4.5485,4.5258,4.4947,4.4615,4.4615,4.4144,4.3338,4.2591,4.213,4.1813,4.1373,4.166,4.232,4.2459,4.3132,4.3859,4.3738,4.4093,4.4615,4.4615,4.4615,4.4615,4.4615,4.4615,4.4615,4.4615,4.4939,4.5263,4.5263,4.5263,4.5142,4.4685,4.4615,4.4615,4.4615,4.4615,4.4615,4.4615,4.433,4.3961,4.3474,4.2523,4.1694,4.1271,4.0557,4.0269,4.0696,4.0354,4.0096,4.0096,4.0096,4.0096,4.0096,4.0096,4.0096,4.0096,3.9389,3.8865,3.8565,3.7838,3.7088,3.6315,3.6315,3.6067,3.56,3.56,3.56,3.8875,4.0474,4.1158,4.1559,3.8278,3.4241,3.1495,2.7807,2.4451,2.2675,2.2296,2.2296,2.2296,2.2296,2.2608,2.3569,2.3722,2.5194,2.9402,3.1798,3.5049,4.0251,4.3924,4.7104,4.9811,5.1966,5.3196,5.3196,5.3196,5.3196,5.3196,5.3196,5.3196,5.3196,5.3196,5.3196,5.3196,5.2637,5.2006,5.1311,5.0575,4.9541,4.8277,4.7876,4.6995,4.5757,4.5571,4.5258,4.4838,4.4682,4.4116,4.3326,4.2824,4.2354,4.1965,4.188,4.2185,4.2692,4.322,4.3558,4.3809,4.413,4.4415,4.4615,4.4615,4.4615,4.4615,4.4615,4.4615,4.4649,4.4871,4.5314,4.5703,4.5703,4.5703,4.55,4.4753,4.4615,4.4651,4.4888,4.4736,4.4682,4.4888,4.4736,4.4415,4.3842,4.2912,4.2185,4.1897,4.1018,4.0709,4.1457,4.1064,4.0658,4.0438,4.0231,4.0096,4.0096,4.0096,4.0096,4.0096,3.9592,3.922,3.9,3.8481,3.7855,3.7122,3.6902,3.6513,3.5949,3.5701,3.56,3.6128,3.8971,4.1022,4.0303,3.675,3.2838,3.0623,2.664,2.3207,2.2455,2.2296,2.2296,2.2296,2.2296,2.2784,2.4254,2.4498,2.6065,3.054,3.2738,3.5322,3.9167,4.1941,4.4809,4.8003,5.1287,5.3196,5.3196,5.3196,5.3196,5.3196,5.3196,5.3196,5.3196,5.3196,5.3196,5.3196,5.3196,5.2813,5.2083,5.1347,5.0529,4.9627,4.8318,4.7221,4.6359,4.5757,4.5498,4.5446,4.4855,4.4086,4.3304,4.3367,4.2493,4.139,4.2848,4.3389,4.3389,4.3406,4.3927,4.4465,4.366,4.3944,4.4615,4.4615,4.4615,4.4615,4.4615,4.4615,4.477,4.55,4.5689,4.5703,4.5703,4.5703,4.55,4.4753,4.4615,4.4821,4.5551,4.5108,4.4838,4.5568,4.5091,4.4615,4.4598,4.3281,4.2557,4.3288,4.2104,4.1474,4.2215,4.2283,4.1982,4.1255,4.0523,4.0096,4.0096,4.0096,4.0096,4.0096,4.0096,3.9745,3.9005,3.8988,3.8633,3.7877,3.7156,3.6795,3.6778,3.5966,3.56,3.0538,3.2148,3.3044,3.3823,3.1403,2.8636,2.7943,2.5507,2.319,2.2455,2.2296,2.2296,2.2296,2.2296,2.2784,2.4254,2.4923,2.6205,2.8913,3.1914,3.5408,3.9634,4.5575,4.9921,5.1489,5.259,5.3196,5.3196,5.3196,5.3196,5.3196,5.3196,5.2939,5.2399,5.238,5.2123,5.1563,5.1573,5.1718,5.2014,5.0728,5.0231,5.0404,4.8921,4.7826,4.7044,4.6395,4.5878,4.5485,4.5294,4.418,4.265,4.3147,4.2146,4.0625,4.21,4.2337,4.2121,4.3673,4.4028,4.3826,4.4113,4.4398,4.4615,4.4615,4.4615,4.4615,4.4615,4.4615,4.4888,4.6126,4.6447,4.6447,4.6447,4.6447,4.6109,4.4871,4.4615,4.4682,4.4905,4.4753,4.4668,4.4905,4.4753,4.4615,4.4615,4.3707,4.3135,4.3372,4.2557,4.2033,4.2283,4.23,4.2215,4.1965,4.1741,4.1386,4.0882,4.0849,4.0625,4.013,4.0096,3.9994,3.9757,3.9745,3.9389,3.865,3.8425,3.8041,3.755,3.7285,3.7166,2.6152,2.813,2.9213,3.0134,2.8527,2.6632,2.6353,2.4577,2.2852,2.2388,2.2296,2.2296,2.2296,2.2296,2.2784,2.4254,2.5126,2.6356,2.8555,3.198,3.6065,4.0987,4.6916,5.0912,5.1738,5.2645,5.3196,5.3196,5.3196,5.3196,5.3196,5.2902,5.238,5.1573,5.2142,5.2215,5.1709,5.1408,5.1499,5.1977,5.0713,5.0195,5.0315,4.9344,4.8372,4.7363,4.6687,4.6324,0.0,4.5699,4.4677,4.3487,4.3962,4.2988,4.148,4.2644,4.2804,4.2665,4.4024,4.4201,4.3944,4.4432,4.4615,4.4615,4.4615,4.4615,4.4615,4.4615,4.4615,4.4939,4.6428,4.68,4.6868,4.7141,4.7005,4.6546,4.5633,4.499,4.4753,4.5311,4.4987,4.4685,4.4973,4.4787,4.4615,4.4615,4.3927,4.3507,4.3795,4.32,4.2828,4.3146,4.3163,4.3163,4.3163,4.2638,4.1982,4.1255,4.1204,4.0865,4.013,4.0096,4.0096,4.0096,4.0096,3.9863,3.9406,3.9136,3.8616,3.7893,3.7893,3.7893,0.0,2.6158,2.8299,2.835,2.7326,2.6141,2.5499,2.3774,0.0,2.2296,2.2296,2.232,2.2364,2.2388,2.2878,2.4406,2.5321,2.6764,2.9383,3.3114,3.7575,4.3025,4.6562,4.8838,4.9527,5.1793,5.3196,5.3196,5.3196,5.3196,5.3196,5.2435,5.1665,5.0912,5.2278,5.2994,5.2939,5.2142,5.1803,5.1895,5.1041,5.0251,4.961,4.9537,4.8764,4.7428,4.6756,4.6813,4.731,4.6112,4.5497,4.5321,4.5441,4.4624,4.3471,4.4079,4.4359,4.4427,4.4406,4.4432,4.4499,4.4499,4.455,4.4598,4.4533,4.455,4.4615,4.4615,4.4615,4.4939,4.6428,4.6752,4.6904,4.765,4.7259,4.6716,4.6648,4.5565,4.5007,4.6377,4.5531,4.4821,4.55,4.5058,4.4615,4.4615,4.3961,4.3775,4.4499,4.3944,4.3758,4.4432,4.4581,4.4567,4.4516,4.3196,4.2083,4.1394,4.1271,4.0882,4.0214,4.013,4.0096,4.0096,4.0096,4.0096,4.0096,3.9406,3.8717,3.8063,3.8063,3.8063,1.9681,0.0,2.1404,2.1975,2.231,2.2588,0.0,2.2675,2.2296,2.2296,2.2296,2.2472,2.3038,2.3139,2.3799,2.5854,2.7326,2.8944,3.1054,3.6907,4.205,4.4985,4.8774,5.0949,5.0545,5.2131,5.3196,5.3196,5.3196,5.3196,5.3196,5.2435,5.1914,5.172,5.1481,5.1077,5.0445,4.9591,4.9811,5.1059,4.9591,4.9132,4.9574,4.8912,4.8422,4.8055,4.7438,4.7248,4.7374,4.7084,4.631,4.5297,4.5329,4.4519,4.3401,4.4122,4.3722,4.3084,4.4677,4.454,4.3676,4.3676,4.4096,4.4482,4.3876,4.4113,4.4615,4.4615,4.4615,4.4939,4.6428,4.638,4.6143,4.6887,4.6498,4.5805,4.5244,4.4838,4.4685,4.5041,4.4838,4.4651,4.4838,4.4702,4.4615,4.4615,4.4432,4.4381,4.4567,4.4432,4.4147,4.3741,4.4228,4.4347,4.3727,4.3338,4.3068,4.2899,4.1816,4.1119,4.095,4.0405,4.0096,4.0096,4.0096,4.0096,4.0096,3.9943,3.9745,3.9576,3.9576,3.9576,1.8649,1.9147,1.9598,2.0359,2.1126,2.1803,2.2219,2.2296,2.2296,2.2296,2.2296,2.2415,2.2818,2.3322,2.4223,2.5912,2.8107,3.0923,3.4712,3.9157,4.326,4.659,4.9279,5.1132,5.182,5.2682,5.3196,5.3196,5.2847,5.281,5.3177,5.1738,5.1069,5.1444,5.0288,4.9811,5.0151,4.9325,4.9352,5.0233,4.893,4.8545,4.8995,4.8526,4.8296,4.8277,4.7656,4.7562,4.7787,4.752,4.6953,4.6266,4.6266,4.5452,4.4381,4.5011,4.4609,4.3919,4.4985,4.4734,4.3944,4.3944,4.4432,4.4926,4.4498,4.4669,4.5012,4.5012,4.4814,4.4922,4.6334,4.6418,4.6231,4.6687,4.6436,4.6026,4.5671,4.5074,4.4685,4.5041,4.4838,4.4615,4.4615,4.4615,4.4615,4.4615,4.4615,4.4615,4.4615,4.4615,4.4432,4.3995,4.4347,4.4415,4.3995,4.3884,4.3733,4.342,4.2324,4.1851,4.215,4.0849,4.0096,4.0096,4.0096,4.0096,4.0096,4.0096,4.0229,4.0473,4.0473,4.063,1.8843,1.9524,2.0194,2.1004,2.1752,2.2296,2.2296,2.2296,2.2296,2.2296,2.2296,2.2351,2.2509,2.3481,2.4632,2.5822,2.9028,3.3372,3.9128,4.1152,4.358,4.7801,4.9242,5.06,5.2462,5.2865,5.2976,5.2847,5.2197,5.2105,5.2792,5.0775,4.9913,5.06,4.9104,4.8975,5.0388,4.9747,4.9472,4.9592,4.8728,4.8241,4.8113,4.8241,4.8223,4.8094,4.7702,4.7818,4.8267,4.7746,4.7541,4.753,4.7446,4.6682,4.57,4.6199,4.5998,4.5497,4.541,4.5104,4.4731,4.4612,4.5003,4.5494,4.5373,4.5407,4.5533,4.5749,4.5267,4.5008,4.6287,4.6582,4.6597,4.6726,4.6608,4.6451,4.6578,4.5549,4.4787,4.5415,4.5024,4.4615,4.4615,4.4615,4.4615,4.4615,4.4615,4.4615,4.4615,4.4615,4.4615,4.4615,4.4679,4.4748,4.4748,4.4629,4.4363,4.389,4.3058,4.283,4.3407,4.1565,4.0594,4.0726,4.0624,4.0543,4.0543,4.0412,4.0589,4.1041,4.1041,4.1268,1.9467,1.9917,2.0194,2.1004,2.1752,2.2296,2.2296,2.2296,2.2296,2.2296,2.2296,2.2588,2.3492,2.4587,2.5912,2.7608,3.259,3.7863,4.2606,4.4957,4.6709,4.8131,5.0251,5.1234,5.0243,5.1381,5.1903,5.1214,5.1059,5.1041,5.1159,5.017,4.9665,4.9784,4.882,4.8406,4.8682,4.8553,4.8875,4.9592,4.8728,4.7948,4.7314,4.7984,4.7929,4.7314,4.7898,4.821,4.8296,4.8201,4.8162,4.8104,4.7593,4.6932,4.633,4.6973,4.6482,4.5567,4.6039,4.5835,4.5269,4.4621,4.4927,4.539,4.4757,4.4987,4.5719,4.6808,4.6269,4.5541,4.639,4.6517,4.6463,4.6607,4.6147,4.5663,4.5696,4.5128,4.4618,4.4736,4.4668,4.4615,4.4615,4.4615,4.4615,4.4615,4.4615,4.4615,4.4615,4.4615,4.4615,4.4615,4.5048,4.5359,4.5359,4.5343,4.5507,4.5919,4.4665,4.3942,4.4062,4.3089,4.2886,4.3567,4.2892,4.2557,4.2557,4.1862,4.1567,4.1653,4.1653,4.1446,1.9602,2.0002,2.0295,2.1498,2.205,2.2468,2.3079,2.322,2.334,2.3728,2.3804,2.3956,2.4462,2.6556,2.9583,3.3878,3.7055,4.0095,4.3278,4.4556,4.5782,4.7452,4.8663,4.9591,5.0188,5.0912,5.1206,5.0839,5.0398,5.0343,5.0784,4.9591,4.9105,4.9592,4.8746,4.8296,4.8296,4.7874,4.8076,4.8893,4.8039,4.7691,4.7728,4.7232,4.7278,4.7746,4.7691,4.7911,4.8296,4.8296,4.8296,4.8277,4.7987,4.7491,4.6977,4.7299,4.7039,4.6566,4.6842,4.6513,4.5919,4.5593,4.5958,4.646,4.6128,4.627,4.6716,4.7625,4.6721,4.5748,4.6783,4.6995,4.6856,4.6558,4.6504,4.6341,4.5648,4.528,4.5089,4.5089,4.5089,4.5089,4.5089,4.5089,4.4988,4.4654,4.4939,4.5165,4.5103,4.5143,4.5284,4.5546,4.5537,4.5635,4.5965,4.6329,4.6188,4.5369,4.57,4.5418,4.4254,4.4585,4.4607,4.4219,4.3835,4.3647,4.3647,4.2845,4.2622,4.2921,4.2921,4.2708,1.9389,1.9873,2.0329,2.1694,2.2168,2.2701,2.4216,2.4555,2.4903,2.6118,2.6202,2.602,2.5817,2.8585,3.2775,3.8514,4.0459,4.1969,4.405,4.4681,4.569,4.7728,4.7966,4.8645,5.0343,5.0508,5.0435,5.0233,4.9637,4.9564,5.0168,4.881,4.8324,4.8995,4.8177,4.7737,4.7737,4.714,4.7232,4.8003,4.7195,4.7049,4.7434,4.6581,4.6654,4.7452,4.7397,4.7617,4.8021,4.8223,4.8296,4.8296,4.8296,4.8025,4.7593,4.7449,4.7372,4.7368,4.7549,4.6931,4.6102,4.628,4.6697,4.7114,4.7114,4.7251,4.753,4.8142,4.7154,4.6161,4.715,4.7491,4.7449,4.6778,4.7021,4.7128,4.6166,4.5711,4.555,4.5723,4.5632,4.5511,4.5548,4.5654,4.55,4.4726,4.5229,4.5637,4.5524,4.5589,4.5845,4.6358,4.6136,4.6136,4.6594,4.7237,4.688,4.5208,4.6364,4.6539,4.5212,4.5998,4.6083,4.5176,4.4986,4.4868,4.4868,4.4063,4.3929,4.4371,4.4371,4.4112,1.8758,1.9473,2.0217,2.1065,2.1786,2.2994,2.5637,2.6232,2.696,2.956,2.9526,2.8742,2.7939,3.0292,3.3613,3.7511,4.1297,4.4465,4.6543,4.8177,4.949,5.0417,5.0517,5.0306,4.9729,4.9692,4.9344,4.8545,4.8434,4.8406,4.8489,4.7672,4.7223,4.7278,4.648,4.6067,4.6067,4.6012,4.6388,4.7168,4.6379,4.5626,4.5012,4.6379,4.626,4.5085,4.7269,4.7819,4.7241,4.7984,4.8296,4.8296,4.8296,4.8277,4.8172,4.7604,4.7274,4.7221,4.7982,4.6863,4.5227,4.5966,4.625,4.6281,4.6281,4.6807,4.753,4.8142,4.7797,4.727,4.7374,4.7826,4.8085,4.747,4.7363,4.7374,4.727,4.6329,4.5689,4.6382,4.5966,4.5531,4.5651,4.6145,4.6073,4.4794,4.5229,4.5637,4.5524,4.5511,4.5738,4.6336,4.6921,4.7288,4.7331,4.7887,4.7939,4.7219,4.6628,4.6799,4.796,4.7395,4.7349,4.7998,4.7274,4.688,4.688,4.6075,4.5709,4.5764,4.5764,4.5143,1.9253,2.0299,2.1189,2.1752,2.2742,2.4274,2.6862,2.7833,2.8842,3.1045,3.2446,3.3326,3.3504,3.5077,3.7299,4.0203,4.3204,4.547,4.6241,4.7333,4.7976,4.7774,4.7755,4.7627,4.7324,4.7306,4.7159,4.6838,4.6819,4.6819,4.6819,4.6526,4.6351,4.6351,4.6067,4.5902,4.5902,4.5406,4.5305,4.559,4.5305,4.525,4.5424,4.5039,4.5076,4.548,4.5874,4.6168,4.637,4.6691,4.6819,4.6856,4.7361,4.7856,4.8277,4.8045,4.7912,4.7819,4.7617,4.7017,4.626,4.6087,4.6004,4.6105,4.6606,4.6971,4.7366,4.8092,4.8142,4.7957,4.7957,4.8142,4.823,4.8015,4.7957,4.7866,4.747,4.7085,4.6888,4.7174,4.7405,4.7416,4.7004,4.7504,4.7505,4.6175,4.6599,4.7002,4.6825,4.6839,4.7041,4.7528,4.7808,4.8377,4.9427,4.8776,4.8421,4.8754,4.7975,4.7744,4.8268,4.8003,4.7984,4.8296,4.8003,4.7856,4.7838,4.7049,4.6645,4.6636,4.6257,4.5562,1.9547,2.0728,2.175,2.2132,2.345,2.5406,2.8324,2.9624,3.0977,3.3637,3.4983,3.6058,3.7251,3.7825,3.8957,4.1517,4.3956,4.5516,4.5516,4.6205,4.6516,4.5975,4.5902,4.5902,4.5902,4.5902,4.5902,4.5902,4.5902,4.5902,4.5902,4.5663,4.5516,4.5516,4.5259,4.5131,4.5131,4.4599,4.4323,4.4323,4.4323,4.4617,4.5112,4.4268,4.4342,4.5131,4.5094,4.5259,4.5535,4.5792,4.6049,4.6296,4.6608,4.7214,4.7893,4.7645,4.7544,4.7498,4.7204,4.6764,4.6296,4.5993,4.5736,4.5617,4.6186,4.6691,4.7204,4.7764,4.8095,4.8296,4.8296,4.8296,4.8296,4.8296,4.8296,4.8264,4.8122,4.7834,4.7739,4.8235,4.8578,4.8572,4.7831,4.8496,4.8529,4.6682,4.7051,4.7478,4.725,4.7259,4.7656,4.8608,4.8471,4.8875,5.0306,4.937,4.8838,4.9178,4.8893,4.86,4.8315,4.8296,4.8296,4.8296,4.8296,4.8296,4.8296,4.7746,4.748,4.7452,4.6858,4.6168,1.9416,2.0501,2.1695,2.204,2.3684,2.6229,3.0028,3.156,3.3433,3.7802,3.7124,3.6355,3.8352,3.7747,3.7863,4.0643,4.314,4.47,4.47,4.5388,4.5883,4.5883,4.5883,4.5883,4.5883,4.5883,4.5883,4.5883,4.5883,4.5883,4.5883,4.5122,4.47,4.47,4.3928,4.3506,4.3506,4.3506,4.3506,4.3506,4.3506,4.3506,4.3524,4.4323,4.425,4.3579,4.5195,4.5424,4.4755,4.5553,4.6351,4.7003,4.6214,4.6388,4.6984,4.6205,4.5902,4.6012,4.6801,4.603,4.4828,4.5626,4.5351,4.47,4.47,4.581,4.7094,4.7094,4.7691,4.8296,4.8296,4.8296,4.8296,4.8296,4.8296,4.8545,4.9399,4.8557,4.8058,4.9584,4.9316,4.8602,4.7848,4.8938,4.8921,4.5979,4.627,4.6705,4.6451,4.6419,4.7236,4.9382,4.882,4.8673,4.9555,4.961,4.9233,4.837,4.9123,4.9197,4.8333,4.8296,4.8296,4.8296,4.8296,4.8296,4.8296,4.8315,4.8315,4.8277,4.7695,4.7051,2.0176,2.1623,2.324,2.3614,2.5799,2.8401,3.0441,3.156,3.3604,3.8525,3.9059,3.9009,4.017,4.0553,4.0795,4.1069,4.314,4.4498,4.3938,4.4544,4.4856,4.4277,4.4204,4.4204,4.4204,4.4204,4.4204,4.4204,4.4204,4.4204,4.4204,4.3983,4.3873,4.3873,4.3616,4.3506,4.3506,4.3506,4.3506,4.3506,4.3506,4.3506,4.3506,4.3745,4.3726,4.3524,4.4002,4.4075,4.3873,4.4112,4.469,4.5452,4.5773,4.6049,4.6305,4.6627,4.6388,4.5847,4.5526,4.5104,4.4645,4.4323,4.4057,4.3956,4.4535,4.5434,4.637,4.6929,4.7691,4.8296,4.8296,4.8296,4.8296,4.8296,4.8296,4.8379,4.8636,4.8897,4.9067,4.9057,5.0173,5.0736,4.9521,4.9679,4.9682,4.8795,4.7603,4.6911,4.7215,4.7535,4.8425,5.0258,4.9711,5.0004,5.1977,5.0573,4.9729,5.005,4.9187,4.8563,4.8315,4.8296,4.8296,4.8296,4.8296,4.8296,4.8296,4.8921,4.868,4.7674,4.8067,4.7354,2.083,2.2506,2.4398,2.5108,2.7526,3.0336,3.2545,3.4193,3.6412,4.0482,4.0818,4.0726,4.1846,4.1929,4.1874,4.2029,4.3277,4.4048,4.3561,4.3928,4.4048,4.3561,4.3506,4.3506,4.3506,4.3506,4.3506,4.3506,4.3506,4.3506,4.3506,4.3506,4.3506,4.3506,4.3506,4.3506,4.3506,4.3506,4.3506,4.3506,4.3506,4.3506,4.3506,4.3506,4.3506,4.3506,4.3506,4.3506,4.3506,4.3506,4.3975,4.4718,4.4874,4.5131,4.5443,4.5599,4.5571,4.5351,4.4865,4.47,4.4626,4.4121,4.3763,4.3653,4.4461,4.503,4.5581,4.6406,4.7195,4.7819,4.7819,4.8058,4.8296,4.8296,4.8296,4.8388,4.8746,4.9278,4.9593,4.9237,5.0747,5.1544,4.9788,4.996,4.9952,4.8745,4.7478,4.6877,4.7542,4.8019,4.8939,5.0608,5.0059,5.0298,5.2095,5.0912,5.028,5.0765,4.9554,4.8967,4.9279,4.8645,4.8471,4.8802,4.882,4.882,4.882,4.9656,4.9267,4.7775,4.8341,4.7758,2.1432,2.3185,2.523,2.642,2.901,3.2208,3.5805,3.8329,4.0514,4.2717,4.2176,4.1764,4.3231,4.2304,4.1801,4.3267,4.3506,4.3506,4.3506,4.3506,4.3506,4.3506,4.3506,4.3506,4.3506,4.3506,4.3506,4.3506,4.3506,4.3506,4.3506,4.3506,4.3506,4.3506,4.3506,4.3506,4.3506,4.3506,4.3506,4.3506,4.3506,4.3506,4.3506,4.3506,4.3506,4.3506,4.3506,4.3506,4.3506,4.3506,4.392,4.4535,4.3873,4.4011,4.4516,4.3846,4.403,4.459,4.459,4.459,4.459,4.459,4.4103,4.3635,4.4378,4.4681,4.4957,4.5681,4.6535,4.7204,4.7204,4.7746,4.8296,4.8296,4.8296,4.8526,4.9307,4.964,4.9829,4.9868,5.1082,5.1419,4.9258,4.9919,4.9714,4.6767,4.6424,4.6773,4.7493,4.8058,4.8994,5.0527,5.005,4.9976,5.0839,5.0839,5.0839,5.0894,5.0151,5.0041,5.0765,4.9279,4.882,4.9692,4.9711,4.9711,4.9711,5.0435,4.9946,4.8329,4.8587,4.8172,2.2247,2.3787,2.5651,2.717,3.0858,3.5007,3.8369,3.9541,4.0055,4.0569,4.1909,4.3084,4.3433,4.3231,4.3102,4.3433,4.3506,4.3506,4.3506,4.3506,4.3506,4.3506,4.3506,4.3506,4.3506,4.3506,4.3506,4.3506,4.3506,4.3506,4.3506,4.3506,4.3506,4.3506,4.3506,4.3506,4.3506,4.3506,4.3506,4.3506,4.3506,4.3506,4.3506,4.3506,4.3506,4.3506,4.3506,4.3506,4.3506,4.3506,4.3598,4.3791,4.4268,4.4158,4.3818,4.4268,4.4158,4.3763,4.3763,4.3763,4.3763,4.3763,4.3635,4.3524,4.3708,4.4635,4.5681,4.5847,4.6929,4.8039,4.8039,4.8168,4.8296,4.8296,4.8296,4.8351,4.8545,4.962,5.0403,4.9852,5.1022,5.1741,5.0628,4.9764,4.8443,4.6057,4.6627,4.7173,4.6737,4.8232,4.9454,4.9821,5.0251,5.0857,5.1675,5.1151,5.1077,5.1712,5.0986,5.0618,5.0802,4.9858,4.9711,5.0527,5.0545,5.0545,5.0545,5.0729,5.002,4.8554,4.9125,4.8128,2.2701,2.4075,2.6054,2.882,3.2277,3.5756,3.867,3.9625,4.0018,4.0396,4.1772,4.3047,4.3433,4.3506,4.3506,4.3506,4.3506,4.3506,4.3506,4.3506,4.3506,4.3506,4.3506,4.3506,4.3506,4.3506,4.3506,4.3506,4.3506,4.3506,4.3506,4.3139,4.2937,4.2937,4.2937,4.2937,4.2937,4.3304,4.3506,4.3506,4.3121,4.2937,4.2937,4.3322,4.3506,4.3506,4.3506,4.3506,4.3506,4.3506,4.3506,4.3543,4.3956,4.3873,4.3543,4.3975,4.3873,4.3506,4.3506,4.3506,4.3506,4.3506,4.3506,4.3561,4.3956,4.4397,4.4828,4.5223,4.5929,4.6571,4.6571,4.7159,4.7728,4.7728,4.8021,4.8296,4.8296,4.9627,5.0574,4.9827,5.1007,5.1722,5.052,4.9098,4.7636,4.6149,4.6561,4.7008,4.7027,4.8246,4.9247,4.9562,5.0665,5.1389,5.1426,5.1389,5.172,5.2527,5.1463,5.1151,5.1911,5.1179,5.0941,5.1371,5.1028,5.1028,5.1371,5.1028,5.0252,4.9094,4.9445,4.8454,2.3097,2.4373,2.6531,3.0436,3.3109,3.5408,3.7745,3.8917,3.9706,4.0516,4.1434,4.2304,4.2955,4.3084,4.3084,4.3084,4.3084,4.3084,4.3084,4.3212,4.3286,4.3286,4.3414,4.3506,4.3506,4.3506,4.3506,4.3506,4.3506,4.3433,4.3304,4.2653,4.2249,4.2103,4.2084,4.2084,4.2084,4.2745,4.3084,4.3084,4.2415,4.2176,4.2323,4.2992,4.3378,4.3506,4.3506,4.3506,4.3506,4.3506,4.3506,4.3506,4.3506,4.3506,4.3506,4.3506,4.3506,4.3506,4.3506,4.3506,4.3506,4.3506,4.3506,4.3616,4.4287,4.4121,4.3855,4.4516,4.4792,4.4902,4.4902,4.6003,4.7094,4.7094,4.7709,4.8333,4.8489,4.9719,5.0659,5.0188,5.1167,5.1544,4.9824,4.8463,4.7334,4.6519,4.6407,4.6649,4.7387,4.8247,4.9013,4.9533,5.1032,5.173,5.1059,5.162,5.2344,5.3159,5.1948,5.1801,5.3141,5.2564,5.2197,5.2197,5.161,5.1599,5.2197,5.1471,5.0653,4.9828,4.9818,4.8961,2.3784,2.5217,2.7236,3.0564,3.2687,3.4431,3.6211,3.7246,3.8054,3.8854,4.0204,4.1287,4.1397,4.1415,4.1415,4.1415,4.1415,4.1415,4.1415,4.2021,4.2451,4.2451,4.3084,4.3506,4.3506,4.3506,4.3506,4.3506,4.3506,4.3194,4.2506,4.2359,4.1992,4.1287,4.1268,4.1268,4.1268,4.1379,4.1415,4.1415,4.1305,4.1635,4.2304,4.2415,4.2837,4.3506,4.3506,4.3506,4.3506,4.3506,4.3506,4.3506,4.3506,4.3506,4.3506,4.3506,4.3506,4.3506,4.3506,4.3506,4.3506,4.3506,4.3506,4.3524,4.3635,4.4066,4.4553,4.4663,4.5195,4.5736,4.5736,4.6425,4.7094,4.7094,4.7709,4.8508,4.9252,5.0141,5.0984,5.1572,5.1873,5.1333,4.9197,4.8618,4.7992,4.6619,4.6407,4.6442,4.656,4.8372,4.9622,4.9606,5.1032,5.1969,5.1858,5.195,5.2344,5.3159,5.2994,5.2976,5.3196,5.3104,5.3031,5.3031,5.2938,5.2938,5.3031,5.2234,5.1456,5.0735,5.0676,4.9568,2.4074,2.5057,2.6471,2.8802,3.0931,3.2877,3.4523,3.5906,3.6934,3.7276,3.8285,3.9496,4.0846,4.1095,4.1095,4.1095,4.1095,4.1095,4.1095,4.1782,4.2139,4.1672,4.2745,4.3322,4.2882,4.3231,4.3506,4.3506,4.3084,4.2671,4.2323,4.1442,4.0781,4.0432,4.0432,4.0432,4.0432,4.0865,4.0865,4.0432,4.0883,4.1287,4.1635,4.2084,4.2745,4.3506,4.3506,4.3506,4.3506,4.3506,4.3506,4.3506,4.3506,4.3506,4.3506,4.3506,4.3506,4.3506,4.3506,4.3506,4.3506,4.3506,4.3506,4.3506,4.3506,4.3745,4.403,4.403,4.4277,4.4571,4.4571,4.5498,4.6425,4.6425,4.7379,4.8655,4.9976,5.0545,5.0947,5.1414,5.1436,5.0963,4.9605,4.8912,4.8328,4.7716,4.6925,4.6536,4.6921,4.7934,4.8873,4.9521,5.1032,5.2005,5.2005,5.2417,5.2821,5.3177,5.3196,5.3196,5.3196,5.3196,5.3196,5.3196,5.2791,5.2798,5.3196,5.1988,5.142,5.1504,5.0598,4.9509,2.4194,2.4635,2.5485,2.7095,2.9004,3.0913,3.2522,3.4174,3.5422,3.5624,3.631,3.7485,3.9507,4.0204,4.0498,4.0498,4.0498,4.0498,4.0498,4.1185,4.1479,4.0865,4.2029,4.2653,4.2039,4.2543,4.2892,4.2892,4.2323,4.1919,4.1699,4.0551,3.9816,3.9596,3.9596,3.9596,3.9596,4.0186,4.0186,3.9596,4.0204,4.07,4.1113,4.1727,4.2543,4.3506,4.3506,4.3506,4.3506,4.3506,4.3506,4.3506,4.3506,4.3506,4.3506,4.3506,4.3506,4.3506,4.3506,4.3506,4.3506,4.3506,4.3506,4.3506,4.3506,4.3506,4.3506,4.3506,4.3653,4.3791,4.3791,4.5002,4.6205,4.6205,4.7278,4.8755,5.0435,5.1132,5.1354,5.1142,5.1165,5.0856,4.9768,4.9329,4.8945,4.8419,4.7428,4.6838,4.7168,4.7488,4.8197,4.951,5.1061,5.2017,5.2015,5.2755,5.3114,5.2926,5.3092,5.3196,5.3196,5.302,5.3009,5.3196,5.23,5.2289,5.3196,5.1869,5.1493,5.1994,5.0843,4.9883,2.4194,2.4231,2.4649,2.6258,2.7328,2.8417,3.0026,3.1635,3.3011,3.377,3.4571,3.5426,3.6376,3.7808,3.8828,3.8828,3.8828,3.8828,3.8828,3.9515,4.0018,3.9963,4.07,4.1205,4.1177,4.1195,4.1232,4.1232,4.1195,4.0828,4.0073,3.9945,3.9559,3.8799,3.8755,3.8755,3.8755,3.8791,3.8791,3.8755,3.8791,3.9617,4.1095,4.114,4.2021,4.3506,4.3506,4.3506,4.3506,4.3506,4.3506,4.3506,4.3506,4.3506,4.3506,4.3506,4.3506,4.3506,4.3506,4.3506,4.3506,4.3506,4.3506,4.3506,4.3506,4.3506,4.3506,4.3506,4.4048,4.4645,4.4645,4.5838,4.7039,4.7039,4.7691,4.8755,5.0435,5.2003,5.2678,5.1368,5.1607,5.1341,4.9135,4.9877,5.006,4.7973,4.7635,4.738,4.6734,4.7254,4.8229,4.9645,5.1116,5.2041,5.2098,5.2773,5.2904,5.2213,5.2802,5.3196,5.3196,5.2543,5.2479,5.3185,5.185,5.1825,5.3196,5.2431,5.2052,5.2075,5.2016,5.1238,2.4194,2.4194,2.447,2.5553,2.6429,2.7328,2.8417,2.9506,3.0509,3.1323,3.2534,3.3708,3.4541,3.6046,3.7331,3.7852,3.7925,3.8109,3.8634,3.9386,3.9706,3.9184,4.0296,4.0901,4.0377,4.0791,4.1095,4.1095,4.0608,4.0194,3.9926,3.8917,3.8219,3.7944,3.743,3.7404,3.7925,3.8432,3.8699,3.8707,3.9221,3.9772,4.0359,4.1405,4.2176,4.2772,4.3286,4.3506,4.3506,4.3506,4.3506,4.3506,4.3506,4.3506,4.3506,4.3506,4.3506,4.3506,4.3506,4.3506,4.3506,4.3506,4.3506,4.3506,4.3506,4.3506,4.3616,4.4121,4.448,4.4828,4.5351,4.6278,4.7223,4.7746,4.8526,4.9435,5.0563,5.1665,5.2167,5.1266,5.163,5.1539,4.9768,4.9841,5.0024,4.9699,4.8058,4.7453,4.9102,4.8359,4.8596,5.0968,5.1671,5.2223,5.2758,5.3042,5.3092,5.2813,5.3042,5.3196,5.3196,5.249,5.2206,5.249,5.1143,5.1353,5.3196,5.2456,5.2347,5.278,5.1886,5.1189,2.4194,2.4194,2.4323,2.486,2.5406,2.6007,2.6801,2.7622,2.8424,2.9237,3.0662,3.1965,3.2485,3.3722,3.519,3.6831,3.7099,3.7283,3.7826,3.834,3.8586,3.8322,3.9239,3.979,3.9515,3.9984,4.0186,3.9911,3.9394,3.9082,3.9082,3.7823,3.7099,3.7099,3.6585,3.6567,3.7088,3.7624,3.8028,3.8303,3.8843,3.9376,3.9945,4.1001,4.1791,4.2304,4.258,4.301,4.3506,4.3506,4.3506,4.3506,4.3506,4.3506,4.3506,4.3506,4.3506,4.3506,4.3506,4.3506,4.3506,4.3506,4.3506,4.3506,4.3506,4.3506,4.3616,4.4158,4.4681,4.5168,4.5424,4.6296,4.7296,4.8113,4.8746,4.9399,5.0225,5.1253,5.1832,5.1213,5.1456,5.1284,4.9766,4.9869,5.0236,5.04,4.8822,4.8318,5.0275,4.9083,4.8989,5.1409,5.1865,5.2142,5.2466,5.2926,5.2999,5.2509,5.2944,5.3196,5.3196,5.2507,5.2125,5.2101,5.1028,5.1242,5.2831,5.1856,5.188,5.2809,5.1399,5.0735,0.0,0.0,0.0,2.4194,2.4194,2.4396,2.5196,2.5975,2.6754,2.7554,2.8998,3.0099,3.0118,3.0803,3.24,3.5594,3.6174,3.6229,3.6285,3.631,3.6585,3.7364,3.7456,3.776,3.856,3.8634,3.8303,3.7529,3.7456,3.7456,3.7456,3.6696,3.6255,3.6237,3.6255,3.6266,3.6266,3.6285,3.6696,3.7492,3.7492,3.8337,3.9871,3.989,4.0744,4.2194,4.1434,4.1984,4.3433,4.3451,4.3469,4.3506,4.3506,4.3506,4.3506,4.3506,4.3506,4.3506,4.3506,4.3506,4.3506,4.3506,4.3506,4.3506,4.3506,4.3506,4.3506,4.3524,4.4663,4.57,4.4957,4.5938,4.7333,4.8113,4.8296,4.8545,4.9399,5.0839,5.1755,5.1177,5.1107,5.0647,4.897,5.0037,5.0768,4.984,4.9823,4.9938,5.0009,4.9336,4.9399,5.0879,5.1634,5.1803,5.1187,5.2406,5.2624,5.1215,5.2429,5.3196,5.3196,5.256,5.2174,5.2101,5.1497,5.1505,5.2149,5.0738,5.0774,5.2077,5.0658,5.0029,2.4194,0.0,0.0,0.0,0.0,0.0,2.4488,2.4708,2.5089,2.5907,2.6875,2.7763,2.8362,2.9604,3.0834,3.1733,3.3348,3.4908,3.6119,3.631,3.6384,3.6604,3.6622,3.6714,3.6945,3.6964,3.6872,3.6659,3.6622,3.6622,3.6622,3.5819,3.5085,3.4504,3.5066,3.5353,3.5353,3.5973,3.6696,3.7492,3.7492,3.8043,3.9056,3.9633,4.0147,4.0579,4.0938,4.136,4.1801,4.2396,4.2974,4.3506,4.3506,4.3506,4.3506,4.3506,4.3506,4.3506,4.3506,4.3506,4.3506,4.3506,4.3506,4.3506,4.3506,4.3506,4.3616,4.4195,4.4681,4.525,4.6195,4.7195,4.8021,4.8241,4.8296,4.8545,4.9399,4.999,5.0315,5.0252,5.1521,5.1789,4.9162,4.991,5.0617,4.9821,4.8871,4.8879,5.0568,5.0138,5.0206,5.1633,5.2441,5.2576,5.1874,5.2662,5.2809,5.188,5.2702,5.3196,5.3196,5.256,5.2188,5.2171,5.1524,5.18,5.3046,5.2068,5.1765,5.2077,5.0658,4.9755,0.0,0.0,2.4194,2.4194,0.0,0.0,2.4194,2.4194,2.4323,2.4805,2.5535,2.625,2.6715,2.7842,2.8815,2.9145,3.0662,3.2375,3.4015,3.4541,3.489,3.522,3.555,3.5892,3.6266,3.631,3.6156,3.5782,3.5764,3.5605,3.5275,3.5096,3.4637,3.3825,3.4259,3.4491,3.4491,3.4993,3.5851,3.6997,3.6997,3.7595,3.8718,3.9184,3.9578,3.9908,4.0039,4.0479,4.1122,4.124,4.1964,4.301,4.301,4.3194,4.3506,4.3506,4.3506,4.3506,4.3506,4.3506,4.3506,4.3506,4.3506,4.3506,4.3506,4.3506,4.3598,4.4066,4.4443,4.5159,4.7104,4.7709,4.7874,4.8223,4.8296,4.8434,4.8958,4.9154,4.9382,4.9799,5.1203,5.1651,4.9563,5.0386,5.1086,5.0319,4.9549,4.9551,5.0922,5.0722,5.087,5.1987,5.2758,5.2787,5.1771,5.2617,5.2776,5.1747,5.2949,5.3544,5.3214,5.3175,5.2859,5.2205,5.2454,5.3008,5.3851,5.2807,5.2259,5.2186,5.0725,5.0006,0.0,0.0,0.0,2.4194,2.4268,0.0,2.4231,2.4268,2.4305,2.4213,2.4768,2.5269,2.5269,2.592,2.6704,2.7425,2.8203,2.9341,3.1023,3.1971,3.2736,3.344,3.4167,3.4894,3.5679,3.5759,3.544,3.4656,3.4601,3.4296,3.3568,3.4204,3.4307,3.3697,3.3678,3.3715,3.3807,3.3807,3.4633,3.631,3.631,3.7147,3.8699,3.8615,3.9001,3.9724,3.8909,3.9433,4.0791,4.0065,4.0763,4.2304,4.2304,4.279,4.3506,4.3506,4.3506,4.3506,4.3506,4.3506,4.3506,4.3506,4.3506,4.3506,4.3506,4.3506,4.3506,4.3506,4.4085,4.5214,4.7452,4.7581,4.7296,4.8113,4.8296,4.8296,4.8296,4.8444,4.8823,4.9597,5.0396,5.0698,4.991,5.0993,5.1731,5.1007,5.0935,5.0971,5.0981,5.1047,5.133,5.1928,5.2725,5.2635,5.1215,5.2379,5.2643,5.1318,5.3222,5.4085,5.3361,5.4077,5.3814,5.2347,5.3749,5.4497,5.4508,5.3172,5.2475,5.2351,5.0816,5.049,2.4194,2.4194,2.4194,2.4194,2.4695,0.0,2.4341,2.4695,2.4989,2.4323,2.4323,2.4433,2.4433,2.5099,2.5686,2.5833,2.6539,2.7855,3.0118,3.1133,3.1684,3.1849,3.2015,3.2161,3.2345,3.2363,3.229,3.2125,3.2106,3.2033,3.1886,3.2015,3.2339,3.2828,3.2821,3.314,3.3788,3.3807,3.4633,3.631,3.631,3.7147,3.8689,3.8036,3.8164,3.8891,3.8072,3.8274,3.9158,3.8993,4.0267,4.2304,4.2304,4.279,4.3506,4.3506,4.3506,4.3506,4.3506,4.3506,4.3506,4.3506,4.3506,4.3506,4.3506,4.3506,4.3506,4.3506,4.4085,4.4957,4.6085,4.6737,4.7296,4.8113,4.8296,4.8296,4.8296,4.8413,4.8566,4.8749,4.9466,4.9834,4.9132,5.0146,5.1029,5.0925,5.0459,5.0162,5.0209,5.073,5.1151,5.1279,5.244,5.2635,5.1215,5.2394,5.2881,5.2103,5.3598,5.4389,5.4176,5.4384,5.4058,5.3111,5.4057,5.4576,5.4576,5.3647,5.2892,5.2272,5.0805,5.049,2.4194,2.4194,2.4194,2.4194,2.4507,0.0,0.0,2.4507,2.4805,2.4805,2.4488,2.4323,2.4727,2.4805,2.4805,2.4805,2.5479,2.6416,2.7646,2.8839,2.9591,2.9591,2.9953,3.021,3.021,3.021,3.0375,3.076,3.117,3.139,3.139,3.139,3.1776,3.2564,3.2601,3.2993,3.3788,3.3807,3.4633,3.6285,3.5862,3.6498,3.8091,3.7669,3.7731,3.8109,3.8109,3.8322,3.8699,3.8699,3.99,4.1654,4.1258,4.2093,4.3451,4.3047,4.3157,4.3506,4.3506,4.3506,4.3506,4.3506,4.3506,4.3506,4.3506,4.3506,4.3579,4.3993,4.4397,4.4975,4.6186,4.681,4.7296,4.8113,4.8296,4.8296,4.8296,4.8434,4.8543,4.8543,4.8901,4.9201,4.9245,5.0108,5.0827,5.0882,5.0322,5.0069,5.0494,5.0876,5.1228,5.1556,5.2917,5.336,5.2295,5.3204,5.3739,5.3463,5.4488,5.507,5.5001,5.5061,5.4733,5.3961,5.4389,5.4605,5.4605,5.4199,5.3801,5.3408,5.1901,5.1403,2.4194,2.4194,2.4194,2.4194,2.4323,2.4396,0.0,0.0,0.0,2.5062,2.4653,2.4396,2.5044,2.4635,2.4153,2.3988,2.4635,2.5117,2.4952,2.6195,2.7223,2.7535,2.8148,2.8546,2.8546,2.8546,2.8877,2.9677,3.0344,3.0766,3.0931,3.095,3.1311,3.2106,3.2295,3.2754,3.3568,3.3715,3.4559,3.6046,3.5334,3.58,3.7272,3.7272,3.7345,3.7529,3.801,3.8414,3.8689,3.8524,3.9415,4.081,4.0157,4.1377,4.3396,4.2598,4.28,4.3506,4.3506,4.3506,4.3506,4.3506,4.3506,4.3506,4.3506,4.3506,4.3635,4.4287,4.4571,4.503,4.6498,4.6984,4.7296,4.8113,4.8296,4.8296,4.8296,4.8427,4.8586,4.8749,4.8659,4.8797,4.9586,5.0182,5.0694,5.1047,5.0413,5.0231,5.116,5.1176,5.1355,5.2042,5.3334,5.3876,5.314,5.3803,5.4291,5.4376,5.5202,5.5677,5.5622,5.5515,5.5136,5.4388,5.4389,5.4389,5.4389,5.4389,5.4389,5.4356,5.2949,5.2384,2.4194,2.4194,2.4194,2.4194,2.475,2.5081,2.436,0.0,2.5081,2.4451,0.0,2.4231,2.4323,0.0,0.0,2.3244,2.3804,2.408,2.3377,2.4043,2.5144,2.657,2.6827,2.6864,2.6864,2.6864,2.7213,2.8013,2.816,2.8521,2.9225,2.9262,2.9647,3.0448,3.117,3.1916,3.2736,3.344,3.4241,3.5144,3.5059,3.55,3.6439,3.6439,3.6824,3.7474,3.6842,3.7386,3.8644,3.7925,3.8586,4.0037,3.9945,4.1377,4.3396,4.2598,4.28,4.3506,4.3506,4.3506,4.3506,4.3506,4.3506,4.3506,4.3506,4.3506,4.3524,4.3616,4.4158,4.4902,4.581,4.6571,4.7296,4.8113,4.8296,4.8296,4.8296,4.8331,4.8567,4.9328,4.886,4.8646,4.9618,4.9758,5.0223,5.1655,5.076,5.0408,5.1814,5.1469,5.1355,5.2042,5.2831,5.3065,5.2385,5.3016,5.3485,5.3619,5.4934,5.5705,5.5688,5.5009,5.4333,5.3651,5.3618,5.3618,5.3618,5.3618,5.3618,5.3601,5.2722,5.2689,2.4194,2.4194,2.4194,2.4194,2.4451,2.4622,2.4286,2.4451,2.475,2.4879,0.0,0.0,0.0,0.0,0.0,0.0,2.3988,2.408,2.3744,2.3988,2.4447,2.5126,2.5217,2.5217,2.5217,2.5626,2.603,2.6384,2.726,2.7958,2.8282,2.8754,2.9372,3.0173,3.0987,3.1794,3.2583,3.3396,3.4204,3.4997,3.4527,3.4736,3.5562,3.5562,3.5727,3.6075,3.6714,3.7375,3.8017,3.8146,3.888,3.9853,3.9386,4.0671,4.2708,4.1892,4.2415,4.3506,4.3506,4.3506,4.3506,4.3506,4.3506,4.3506,4.3506,4.3506,4.3598,4.4066,4.4443,4.4993,4.6278,4.6847,4.7296,4.8113,4.8296,4.8296,4.8296,4.839,4.8706,4.945,4.9368,4.9273,4.9622,4.9645,4.9986,5.1132,5.0835,5.1029,5.2542,5.2119,5.1958,5.2662,5.3423,5.3797,5.355,5.3829,5.4218,5.4735,5.5362,5.5691,5.5691,5.4961,5.4216,5.3501,5.3501,5.3501,5.3501,5.3501,5.3501,5.3501,5.3162,5.3179,2.4685,2.4483,2.428,2.428,2.4247,2.4194,2.4194,2.4194,2.4378,2.4952,2.4617,0.0,0.0,0.0,2.4135,2.3914,0.0,2.4116,2.3896,2.4061,2.4194,2.4194,2.4194,2.4194,2.4194,2.4732,2.5154,2.5379,2.6691,2.7572,2.7792,2.857,2.9262,2.9855,3.0876,3.1684,3.2277,3.3293,3.4094,3.4656,3.4075,3.4112,3.4674,3.4906,3.4997,3.5071,3.6541,3.7309,3.7547,3.8127,3.8854,3.9515,3.8927,4.0039,4.1892,4.1323,4.1992,4.3194,4.3414,4.3506,4.3506,4.3506,4.3506,4.3506,4.3506,4.3506,4.3616,4.4213,4.4681,4.5305,4.648,4.7094,4.7581,4.815,4.8296,4.8296,4.8296,4.8421,4.8722,4.9458,4.9682,4.9718,4.9615,4.9784,5.0133,5.071,5.0864,5.147,5.2993,5.2554,5.2381,5.3114,5.371,5.4201,5.4471,5.4305,5.4606,5.5639,5.5506,5.5495,5.5692,5.4982,5.4248,5.3517,5.3501,5.3501,5.3501,5.3501,5.3501,5.3501,5.3501,5.3501,2.5937,2.5224,2.4491,2.4491,2.4334,2.4194,2.4194,2.4194,2.4213,2.4231,2.4213,2.4213,2.4231,2.4213,2.3951,0.0,2.3689,0.0,0.0,2.3712,2.4194,2.4194,2.4194,2.4194,2.4194,2.4226,2.4562,2.5343,2.6172,2.6979,2.7756,2.857,2.9005,2.9042,3.0577,3.1409,3.1445,3.3006,3.3807,3.3844,3.3807,3.3807,3.3862,3.4637,3.4997,3.5052,3.5954,3.6787,3.7492,3.7529,3.8017,3.8744,3.8707,3.969,4.114,4.1122,4.1635,4.2451,4.3231,4.3506,4.3506,4.3506,4.3506,4.3506,4.3506,4.3506,4.3506,4.3524,4.4663,4.5865,4.592,4.7095,4.826,4.8296,4.8296,4.8296,4.8296,4.8305,4.8562,4.9435,4.9591,4.9609,4.9601,5.0261,5.0765,5.0802,5.0857,5.1464,5.2993,5.2554,5.2381,5.3114,5.3214,5.3588,5.4434,5.3793,5.4008,5.5603,5.5027,5.4952,5.5663,5.4982,5.4248,5.3517,5.3501,5.3501,5.3501,5.3501,5.3501,5.3501,5.3501,5.3501,2.6635,2.6344,2.6056,2.5924,2.5434,2.4989,2.4989,2.458,2.4194,2.4194,2.4194,2.4194,2.4194,2.4194,2.4116,0.0,2.4025,2.4098,0.0,2.4025,2.4194,2.4194,2.4194,2.4194,2.4194,2.4194,2.4305,2.458,2.5351,2.6159,2.6961,2.7769,2.8442,2.8987,3.0558,3.139,3.139,3.3006,3.3807,3.3807,3.3807,3.3807,3.3807,3.4075,3.4491,3.5016,3.5316,3.6229,3.7492,3.7492,3.7962,3.8699,3.8699,3.903,3.9635,4.0718,4.1956,4.3139,4.3414,4.3506,4.3506,4.3506,4.3506,4.3506,4.3506,4.3873,4.4415,4.4929,4.5865,4.6828,4.7342,4.7893,4.8296,4.8296,4.8296,4.8296,4.8296,4.7995,4.8083,4.9358,4.9666,4.9869,5.033,5.1499,5.2021,5.0967,5.1736,5.2615,5.3138,5.2988,5.2926,5.3175,5.3196,5.3551,5.4434,5.4277,5.4601,5.5628,5.4544,5.4421,5.5649,5.4513,5.375,5.3501,5.3501,5.3501,5.3501,5.3501,5.3501,5.3501,5.3501,5.3501,2.7725,2.7357,2.7005,2.6967,2.6432,2.5859,2.5573,2.5111,2.464,2.4367,2.4256,2.4218,2.4294,2.4256,2.4194,0.0,0.0,2.4194,0.0,2.4194,2.4194,2.4194,2.4194,2.4194,2.4194,2.4194,2.4194,2.4194,2.5204,2.6049,2.657,2.7635,2.846,2.8987,3.0558,3.139,3.139,3.3006,3.3807,3.3807,3.3807,3.3807,3.3807,3.3807,3.4075,3.4582,3.4869,3.5782,3.7063,3.7063,3.7724,3.8663,3.8377,3.8615,3.9294,4.0608,4.2121,4.3506,4.3506,4.3506,4.3506,4.3506,4.3506,4.3506,4.3506,4.4066,4.4755,4.4984,4.6039,4.7149,4.7379,4.7874,4.8296,4.8296,4.8296,4.8296,4.8296,4.7987,4.8093,4.9358,4.9658,4.9953,5.0686,5.1903,5.2417,5.1371,5.2362,5.3196,5.3196,5.3196,5.3196,5.3196,5.3196,5.3551,5.4434,5.4814,5.5323,5.6077,5.4715,5.4437,5.5649,5.4546,5.3886,5.389,5.3636,5.3636,5.389,5.3636,5.3501,5.3501,5.3501,5.3501]}]]